     2              OBSERVATION DATA    GPS                 RINEX VERSION / TYPE
teqc 2002Apr3 20070406 16:16:44UTC                          PGM / RUN BY / DATE
                                                            COMMENT
L2: 1 -> 1; 150 -> 5; 250 -> 9                              COMMENT
L2: 1 -> 1; 150 -> 5; 250 -> 9                              COMMENT
L2: 1 -> 1; 150 -> 5; 250 -> 9                              COMMENT
L2: 1 -> 1; 150 -> 5; 250 -> 9                              COMMENT
L2: 1 -> 1; 150 -> 5; 250 -> 9                              COMMENT
Original Marker Name: MH05                                  COMMENT
Campaign Name: Painted Canyon Array                         COMMENT
4-Character Station Name: MH05                              COMMENT
6-Character Antenna Code: DMRCHT                            COMMENT
Vertical Measurement Point: BCR                             COMMENT
Vertical Offset to Rinex Ref. Point: 0.0348                 COMMENT
Radial Measurement Point: ECF                               COMMENT
Radial Offset to Rinex Ref. Point: 0.1897                   COMMENT
Antenna Height from Field Measurement: 0.8550 m             COMMENT
Additional Antenna Identification Info.:                    COMMENT
Turborogue and Ashtech Choke Ring                           COMMENT
Original XYZ: 0.0000 0.0000 0.0000                          COMMENT
New XYZ position is based on association with SCEC monument COMMENT
E1D0K9W3+0051. Position of that monument is believed to be  COMMENT
valid to within 1 m horizontally; vertical accuracy         COMMENT
should be no worse than 3-times this value.                 COMMENT
                                                            COMMENT
Revised Rinex header created by UCSD GPS archive for        COMMENT
GSAC on 09-Jun-2007 (2007:160) 17:14:39 GMT                 COMMENT
For assistance contact dagnew@ucsd.edu                      COMMENT
or anderson@python.ucsd.edu                                 COMMENT
                                                            COMMENT
MH05                                                        MARKER NAME
-Unknown- SCRIPPS INSTITUTION OF OCEANOGRAPHY               OBSERVER / AGENCY
378 ASHTECH Z-XII3 CC00                                     REC # / TYPE / VERS
002 DORNE-MARGOL. TYPE T                                    ANT # / TYPE
 -2333167.0000 -4778718.0000  3509717.0000                  APPROX POSITION XYZ
        0.7989        0.0000        0.0000                  ANTENNA: DELTA H/E/N
     1     1     0                                          WAVELENGTH FACT L1/2
     7    C1    L1    L2    P1    P2    S1    S2            # / TYPES OF OBSERV
    30                                                      INTERVAL
  2007     2    17    19    47   35.000000                  TIME OF FIRST OBS
  2007     2    17    20    15   35.000000                  TIME OF LAST OBS
                                                            END OF HEADER
 07  2 17 19 47 35.0000000  0 11G 6G18G 5G30G29G 7G26G21G10G24G12
  20477116.6034    -175481.70749   -122711.70347  20477116.3574   20477121.9754
       238.0004        207.0004
                   -315542.04449   -190759.81343
       215.0004         74.0004
                     26750.06759     17389.57443
       206.0004         74.0004
  22092637.9784      27876.33849     19083.42146  22092638.2854   22092644.3814
       231.0004        184.0004
                   -230183.14849   -160268.47345                  22961931.8764
       215.0004        145.0004
  20798486.8124    -174331.32349   -112750.58247  20798486.0484   20798492.6884
       240.0004        201.0004
                   -243808.19249   -151856.79543
       212.0004         74.0004
  22305606.4174    -224102.16049   -156333.79146  22305605.3914   22305611.0974
       233.0004        183.0004
  21992209.0794      23633.97549     16304.20846  21992207.9914   21992215.9404
       227.0004        180.0004
  20984605.2554     -77171.56749    -53167.10247  20984605.3004   20984611.5524
       241.0004        203.0004
                     42325.16459     23845.98343
       210.0004         74.0004
 07  2 17 19 47 40.0000000  0 11G 6G18G 5G30G29G 7G26G21G10G24G12
  20474088.6164    -191393.21949   -135110.28447  20474088.2744   20474094.2384
       239.0004        208.0004
                   -343795.82749   -212775.75143
       214.0004         74.0004
                     32551.38449     21910.08243
       204.0004         74.0004
  22093120.3084      30408.44449     21056.47646  22093120.3214   22093126.1534
       232.0004        184.0004
                   -250983.17649   -176476.28545                  22957973.0674
       215.0004        148.0004
  20794800.4084    -193703.06649   -127845.44447  20794799.9204   20794806.1004
       241.0004        203.0004
                   -269924.81549   -172207.33843
       213.0004         74.0004
  22301738.8314    -244424.28149   -172169.21146  22301738.2784   22301743.7114
       233.0004        184.0004
  21992583.5154      25602.24649     17837.90546  21992582.5224   21992590.0014
       228.0004        181.0004
  20983293.5624     -84063.71049    -58537.60847  20983293.3184   20983299.8774
       242.0004        204.0004
                     48388.77749     28570.85943
       208.0004         74.0004
 07  2 17 19 47 45.0000000  0 11G 6G18G 5G30G29G 7G26G21G10G24G12
  20471062.7754    -207292.66749   -147499.47747  20471062.8284   20471068.7344
       240.0004        208.0004
                   -372042.33749   -234786.01644                  23634104.4954
       216.0004        112.0004
                     38355.76449     26432.66443
       206.0004         74.0004
  22093603.7094      32951.26249     23037.88446  22093604.0964   22093610.4024
       233.0004        185.0004
  22954010.6224    -271770.58449   -192674.25745  22954010.3694   22954017.0524
       213.0004        151.0004
  20791116.0254    -213064.50949   -142932.28547  20791115.5004   20791122.0834
       239.0004        203.0004
                   -296032.68449   -192551.07844                  23301385.4274
       211.0004        112.0004
  22297873.2804    -264740.49449   -188000.01246  22297872.6644   22297877.6124
       233.0004        184.0004
  21992960.7554      27582.59149     19381.03746  21992959.6914   21992966.0724
       227.0004        181.0004
  20981983.5384     -90949.32449    -63903.02647  20981983.0754   20981989.5054
       240.0004        204.0004
                     54456.08249     33298.59743
       210.0004         74.0004
 07  2 17 19 47 50.0000000  0 11G 6G18G 5G30G29G 7G26G21G10G24G12
  20468039.1684    -223183.72749   -159882.13247  20468038.8824   20468044.5784
       243.0004        209.0004
                   -400285.34649   -256793.54444                  23628729.6604
       217.0004        129.0004
                     44159.51549     30954.97543
       205.0004         74.0004
  22094089.1614      35501.04649     25024.72646  22094089.4004   22094095.4464
       231.0004        185.0004
  22950057.1024    -292549.09949   -208865.29745  22950055.6874   22950063.0194
       211.0004        152.0004
  20787433.0604    -232419.31849   -158013.96047  20787432.5504   20787438.6574
       240.0004        204.0004
                   -322135.54149   -212890.94644                  23296418.9414
       208.0004        127.0004
  22294007.2604    -285054.55049   -203829.13646  22294006.9904   22294012.2224
       233.0004        184.0004
  21993338.4544      29571.37049     20930.71546  21993338.0294   21993345.7894
       225.0004        181.0004
  20980673.6144     -97832.09849    -69266.23947  20980673.5524   20980679.6724
       241.0004        204.0004
                     60523.45349     38026.39243
       210.0004         74.0004
 07  2 17 19 47 55.0000000  0 11G 6G18G 5G30G29G 7G26G21G10G24G12
  20465017.1054    -239064.68349   -172256.89947  20465016.7944   20465022.6364
       243.0004        210.0004
                   -428523.16049   -278797.03045                  23623356.2884
       218.0004        138.0004
                     49964.29849     35478.13043
       205.0004         74.0004
  22094576.1084      38059.51749     27018.32546  22094575.7534   22094581.9844
       232.0004        186.0004
  22946104.6894    -313316.95749   -225048.01445  22946103.8834   22946111.4154
       211.0004        153.0004
  20783751.6444    -251765.84449   -173089.17547  20783750.9794   20783757.5254
       241.0004        205.0004
                   -348231.60749   -233225.51545                  23291452.3244
       208.0004        134.0004
  22290142.5714    -305364.73549   -219655.25546  22290141.7964   22290146.5384
       233.0004        185.0004
  21993718.9404      31570.19649     22488.24146  21993718.8554   21993726.0024
       225.0004        181.0004
  20979364.8214    -104710.36549    -74625.93447  20979364.3884   20979370.7834
       242.0004        205.0004
                     66592.49049     42755.48443
       211.0004         74.0004
 07  2 17 19 48  0.0000000  0 11G 6G18G 5G30G29G 7G26G21G10G24G12
  20461996.5804    -254937.52149   -184625.34947  20461996.3854   20462002.1214
       242.0004        211.0004
                   -456757.79649   -300798.03445                  23617983.6124
       217.0004        144.0004
                     55768.09749     40000.54443
       206.0004         74.0004
  22095064.1984      40624.60649     29017.09446  22095064.2654   22095070.3004
       233.0004        187.0004
  22942154.6144    -334076.20549   -241224.04145  22942154.3274   22942161.1514
       213.0004        154.0004
  20780071.3264    -271106.14049   -188159.53847  20780070.7564   20780077.1474
       239.0004        205.0004
                   -374322.87949   -253556.37345                  23286487.0084
       209.0004        138.0004
  22286277.6254    -325673.10449   -235479.94846  22286277.1714   22286282.7794
       233.0004        185.0004
  21994101.2984      33577.04349     24052.01846  21994100.5514   21994107.4644
       224.0004        181.0004
  20978056.5294    -111586.18349    -79983.71147  20978055.8244   20978062.6194
       239.0004        205.0004
                     72661.18349     47484.31743
       212.0004         74.0004
 07  2 17 19 48  5.0000000  0 11G 6G18G 5G30G29G 7G26G21G10G24G12
  20458977.6104    -270802.19249   -196987.42947  20458977.3854   20458983.2744
       242.0004        211.0004
                   -484989.18649   -322796.50145                  23612610.9584
       217.0004        147.0004
                     61570.94849     44522.24743
       209.0004         74.0004
  22095553.7654      43196.34349     31021.04146  22095554.0364   22095559.5054
       232.0004        187.0004
  22938205.9144    -354826.78749   -257393.31945  22938205.7014   22938212.8594
       215.0004        154.0004
  20776391.9284    -290440.03549   -203224.90647  20776391.5234   20776397.8024
       239.0004        206.0004
                   -400409.26049   -273883.43045                  23281522.6044
       209.0004        142.0004
  22282413.8554    -345979.53349   -251303.14046  22282413.0264   22282418.2414
       233.0004        185.0004
  21994484.7814      35591.98449     25622.10146  21994483.8664   21994490.8074
       225.0004        180.0004
  20976748.4254    -118459.43249    -85339.48947  20976748.1294   20976754.6584
       239.0004        205.0004
                     78729.59449     52212.94043
       213.0004         74.0004
 07  2 17 19 48 10.0000000  0 11G 6G18G 5G30G29G 7G26G21G10G24G12
  20455958.8924    -286664.82149   -209347.91447  20455958.9844   20455964.5364
       239.0004        212.0004
  23607232.7604    -513223.42749   -344797.19245  23607231.5744   23607238.4344
       219.0004        149.0004
                     67366.75749     49038.46143
       207.0004         74.0004
  22096042.9544      45768.63149     33025.43546  22096043.2084   22096048.7634
       231.0004        187.0004
  22934258.2984    -375574.76549   -273560.56545  22934257.1344   22934264.5474
       216.0004        155.0004
  20772713.0784    -309773.64849   -218290.05847  20772712.5304   20772718.8584
       242.0004        206.0004
  23276550.3594    -426496.92049   -294211.44745  23276551.0794   23276558.7154
       209.0004        144.0004
  22278548.6884    -366290.12849   -267129.57746  22278547.9524   22278553.4454
       230.0004        185.0004
  21994867.8704      37608.91549     27193.72746  21994867.5104   21994874.3304
       228.0004        181.0004
  20975439.7104    -125336.22749    -90698.03247  20975439.4154   20975445.6994
       242.0004        205.0004
                     84791.65549     56936.60143                  23822439.4524
       211.0004         86.0004
 07  2 17 19 48 15.0000000  0 11G 6G18G 5G30G29G 7G26G21G10G24G12
  20452940.6164    -302526.64649   -221707.76447  20452940.4344   20452946.3294
       240.0004        211.0004
  23601858.8144    -541461.64249   -366800.98745  23601858.3634   23601865.1674
       218.0004        151.0004
                     73154.22349     53548.16743
       205.0004         74.0004
  22096532.4664      48340.21649     35029.25146  22096532.5294   22096538.8114
       234.0004        187.0004
  22930308.2724    -396321.35649   -289726.71945  22930308.8084   22930315.4884
       218.0004        156.0004
  20769033.7974    -329108.24449   -233355.97547  20769033.4174   20769039.7864
       240.0004        206.0004
  23271585.3344    -452586.98649   -314541.33945  23271586.5764   23271594.0314
       213.0004        147.0004
  22274682.2744    -386606.14249   -282960.23746  22274681.7394   22274687.0994
       233.0004        185.0004
  21995251.9614      39626.54949     28765.90646  21995251.5144   21995259.0574
       226.0004        181.0004
  20974130.4844    -132217.83049    -96060.32347  20974130.1324   20974136.6934
       241.0004        205.0004
                     90846.08149     61654.32144                  23823591.4924
       207.0004        117.0004
 07  2 17 19 48 20.0000000  0 11G 6G18G 5G30G29G 7G26G21G10G24G12
  20449922.3624    -318387.31549   -234066.72847  20449922.3034   20449928.0024
       240.0004        211.0004
  23596484.3814    -569703.69749   -388807.77045  23596483.8944   23596491.3544
       217.0004        152.0004
                     78933.67849     58051.63943
       206.0004         74.0004
  22097021.8154      50911.38649     37032.74946  22097021.9704   22097027.9074
       232.0004        187.0004
  22926362.0384    -417066.28649   -305891.57845  22926361.2604   22926369.1034
       216.0004        157.0004
  20765354.1444    -348443.50149   -248422.40347  20765353.9154   20765360.3524
       240.0004        207.0004
  23266620.7354    -478679.22749   -334872.92845  23266621.8634   23266628.3104
       211.0004        149.0004
  22270815.6784    -406927.30749   -298794.89646  22270814.5664   22270820.5064
       231.0004        185.0004
  21995636.1314      41645.16949     30338.86146  21995635.3394   21995642.9604
       227.0004        182.0004
  20972820.2124    -139103.98549   -101426.15747  20972819.6794   20972826.0084
       242.0004        206.0004
                     96893.12649     66366.28744                  23824742.5284
       209.0004        128.0004
 07  2 17 19 48 25.0000000  0 11G 6G18G 5G30G29G 7G26G21G10G24G12
  20446904.4774    -334246.39749   -246424.45347  20446904.5034   20446910.3874
       240.0004        210.0004
  23591109.4554    -597948.97849   -410817.06545  23591109.1254   23591115.7334
       219.0004        153.0004
                     84705.60949     62549.24344                  23803435.1954
       203.0004        104.0004
  22097511.1864      53482.61449     39036.29546  22097511.5614   22097517.0424
       234.0004        187.0004
  22922415.4444    -437809.05249   -322054.75545  22922413.9534   22922421.5824
       217.0004        158.0004
  20761675.1504    -367778.94649   -263488.98647  20761674.4424   20761680.9874
       240.0004        207.0004
  23261656.5784    -504773.14849   -355205.84945  23261656.3704   23261663.4544
       211.0004        151.0004
  22266947.9474    -427253.14449   -314633.21046  22266947.1834   22266952.4884
       232.0004        185.0004
  21996020.5874      43665.26849     31912.95746  21996020.4524   21996027.6324
       228.0004        182.0004
  20971509.0864    -145994.13449   -106795.10547  20971508.5074   20971514.9504
       242.0004        206.0004
                    102933.32349     71072.92345                  23825891.7644
       206.0004        133.0004
 07  2 17 19 48 30.0000000  0 11G 6G18G 5G30G29G 7G26G21G10G24G12
  20443887.1544    -350102.60749   -258779.93947  20443887.0614   20443892.7744
       240.0004        210.0004
  23585734.0844    -626196.30549   -432827.95545  23585733.6064   23585740.7034
       216.0004        154.0004
                     90471.21449     67041.91144                  23804533.4194
       208.0004        119.0004
  22098000.7284      56055.07949     41040.81646  22098000.6724   22098006.6774
       232.0004        187.0004
  22918469.1774    -458548.39349   -338215.27645  22918467.3654   22918475.1554
       219.0004        159.0004
  20757995.7094    -387113.29649   -278554.71047  20757995.2994   20758001.6804
       241.0004        207.0004
  23256689.2124    -530867.46849   -375539.07545  23256690.7584   23256697.2694
       208.0004        151.0004
  22263079.5484    -447582.38549   -330474.17746  22263078.6614   22263083.5274
       233.0004        185.0004
  21996405.6044      45688.05449     33489.14846  21996405.5054   21996412.7324
       227.0004        182.0004
  20970197.3844    -152887.08349   -112166.23547  20970196.6454   20970203.0244
       241.0004        206.0004
                    108967.80449     75775.08845                  23827039.9524
       209.0004        138.0004
 07  2 17 19 48 35.0000000  0 11G 6G18G 5G30G29G 7G26G21G10G24G12
  20440870.6064    -365954.75749   -271132.26647  20440870.5504   20440876.4284
       240.0004        210.0004
  23580358.6114    -654444.51549   -454839.52245  23580358.3584   23580364.8834
       218.0004        154.0004
                     96231.56849     71530.48944                  23805629.6464
       206.0004        126.0004
  22098490.7014      58629.96249     43047.20246  22098491.3134   22098496.6814
       232.0004        187.0004
  22914523.5274    -479283.16249   -354372.22145  22914522.0074   22914529.3544
       217.0004        160.0004
  20754316.9214    -406445.43649   -293618.71347  20754316.5164   20754322.8734
       240.0004        207.0004
  23251723.5994    -556960.97149   -395871.66145  23251724.6064   23251732.3394
       210.0004        151.0004
  22259210.6274    -467913.89249   -346316.91446  22259209.9904   22259214.9094
       233.0004        185.0004
  21996791.3504      47714.68149     35068.34146  21996790.7394   21996798.0124
       228.0004        182.0004
  20968885.3754    -159781.70249   -117538.66847  20968884.8134   20968891.3204
       241.0004        206.0004
  23828180.9464     114997.74949     80473.74045  23828181.5234   23828187.9544
       210.0004        141.0004
 07  2 17 19 48 40.0000000  0 11G 6G18G 5G30G29G 7G26G21G10G24G12
  20420078.1644    -475219.92849   -356273.95447  20420078.0244   20420083.6254
       240.0004        210.0004
  23557206.3464    -776110.70049   -549644.32745  23557206.1964   23557213.0624
       218.0004        155.0004
                      8569.98549      3222.75244                  23788947.9154
       205.0004        130.0004
  22081204.5254     -32209.51749    -27736.80246  22081205.1904   22081210.8594
       233.0004        187.0004
  22892801.9414    -593430.37149   -443318.08545  22892799.9744   22892808.0354
       216.0004        161.0004
  20732861.8904    -519192.38249   -381473.47147  20732861.3894   20732867.7754
       240.0004        207.0004
  23228981.5344    -676470.83249   -488996.20945  23228983.0404   23228990.0574
       211.0004        151.0004
  22237564.5554    -581664.74249   -434953.93346  22237563.8654   22237568.5264
       232.0004        185.0004
  21979401.2004     -43671.64249    -36141.78546  21979400.4084   21979407.7354
       228.0004        182.0004
  20949796.3794    -260094.86849   -195704.76947  20949796.0084   20949802.2404
       242.0004        206.0004
  23811551.3394      27606.41149     12376.58545  23811551.1664   23811558.4914
       210.0004        143.0004
 07  2 17 19 48 45.0000000  0 11G 6G18G 5G30G29G 7G26G21G10G24G12
  20419309.0094    -479262.02149   -359423.64047  20419308.8174   20419314.7404
       240.0004        209.0004
  23554076.4524    -792558.52649   -562460.79645  23554076.2424   23554082.8194
       219.0004        155.0004
                     26121.92649     16899.57945                  23792288.0894
       207.0004        133.0004
  22083941.2704     -17827.84349    -16530.31146  22083941.4254   22083946.8084
       233.0004        187.0004
  22891103.7204    -602353.92049   -450271.48145  22891102.3404   22891109.5974
       215.0004        161.0004
  20731429.7954    -526718.03749   -387337.61947  20731429.4304   20731435.7674
       240.0004        207.0004
  23226262.3304    -690760.67149   -500131.13345  23226263.2934   23226270.8404
       211.0004        151.0004
  22235940.5674    -590198.77349   -441603.82446  22235939.9494   22235944.3784
       232.0004        185.0004
  21982034.1944     -29835.38749    -25360.29246  21982033.7254   21982040.9314
       228.0004        183.0004
  20950729.5714    -255190.82549   -191883.44247  20950729.2924   20950735.7074
       242.0004        206.0004
  23814944.0554      45429.26649     26264.50445  23814942.7184   23814949.5974
       209.0004        146.0004
 07  2 17 19 48 50.0000000  0 11G 6G18G 5G30G29G 7G26G21G10G24G12
  20418541.6234    -483294.58449   -362565.89547  20418541.4984   20418547.1694
       240.0004        209.0004
  23550947.4314    -809001.75449   -575273.68645  23550947.1894   23550954.1754
       216.0004        155.0004
  23795620.8904      43674.06249     30576.55845  23795620.0754   23795628.2374
       204.0004        135.0004
  22086679.5104      -3438.35849     -5317.73046  22086679.1004   22086685.2494
       233.0004        186.0004
  22889407.3924    -611267.31549   -457216.97445  22889406.2044   22889413.6684
       215.0004        161.0004
  20729999.1834    -534235.94949   -393195.73147  20729998.6414   20730005.1944
       240.0004        207.0004
  23223544.3124    -705044.28449   -511261.21145  23223545.1644   23223552.7854
       214.0004        151.0004
  22234317.1744    -598729.65349   -448251.25846  22234316.0934   22234321.6354
       232.0004        185.0004
  21984668.9364     -15989.90949    -14571.60946  21984667.8814   21984675.0634
       227.0004        183.0004
  20951663.4704    -250283.01549   -188059.17147  20951662.8464   20951669.5554
       241.0004        206.0004
  23818336.1044      63252.96949     40153.08645  23818334.1204   23818341.0654
       208.0004        147.0004
 07  2 17 19 48 55.0000000  0 11G 6G18G 5G30G29G 7G26G21G10G24G12
  20417776.1654    -487317.24149   -365700.43147  20417776.1584   20417781.8794
       241.0004        209.0004
  23547819.4034    -825439.91449   -588082.63645  23547819.1244   23547825.6424
       217.0004        156.0004
  23798961.2914      61226.86249     44254.06145  23798960.3334   23798968.7954
       205.0004        136.0004
  22089419.3124      10959.40349      5901.29546  22089419.3234   22089425.2634
       232.0004        187.0004
  22887713.0704    -620170.24149   -464154.30345  22887712.1074   22887719.0654
       214.0004        161.0004
  20728570.1304    -541745.71749   -399047.49547  20728569.6804   20728576.1644
       240.0004        208.0004
  23220827.5844    -719321.21149   -522386.08045  23220828.6254   23220836.1704
       215.0004        152.0004
  22232694.4674    -607256.92449   -454895.87846  22232693.4974   22232698.7084
       233.0004        185.0004
  21987305.4974      -2134.77749     -3775.41046  21987304.5264   21987311.7474
       229.0004        183.0004
  20952598.2004    -245370.99949   -184231.62847  20952597.7784   20952604.1604
       242.0004        206.0004
  23821728.1684      81078.00349     54042.70745  23821726.0924   23821732.9274
       209.0004        148.0004
 07  2 17 19 49  0.0000000  0 11G 6G18G 5G30G29G 7G26G21G10G24G12
  20417012.6114    -491329.87549   -368827.16047  20417012.5264   20417018.1714
       241.0004        209.0004
  23544692.3594    -841872.93749   -600887.56945  23544692.8284   23544698.7754
       218.0004        156.0004
  23802301.7244      78780.37249     57932.11145  23802301.0704   23802309.6784
       207.0004        137.0004
  22092160.7194      25365.47449     17126.79446  22092160.7454   22092166.3604
       232.0004        186.0004
  22886020.7694    -629062.53749   -471083.35645  22886020.3484   22886027.1544
       217.0004        161.0004
  20727142.6434    -549247.24549   -404892.84147  20727141.9484   20727148.5914
       240.0004        208.0004
  23218112.2194    -733591.20849   -533505.54145  23218113.4054   23218120.6244
       215.0004        153.0004
  22231072.4584    -615780.52949   -461537.64346  22231071.4694   22231077.0264
       232.0004        185.0004
  21989943.9194      11730.06749      7028.36746  21989943.5994   21989950.2484
       228.0004        183.0004
  20953533.7454    -240454.70249   -180400.75047  20953533.3114   20953539.7674
       242.0004        206.0004
  23825120.2854      98904.39749     67933.39145  23825118.3944   23825125.4044
       210.0004        149.0004
 07  2 17 19 49  5.0000000  0 11G 6G18G 5G30G29G 7G26G21G10G24G12
  20416250.9574    -495332.42949   -371946.03347  20416250.7244   20416256.6244
       240.0004        209.0004
  23541566.2994    -858300.74849   -613688.44145  23541566.3834   23541572.5994
       218.0004        156.0004
  23805642.2744      96334.65349     71610.75545  23805641.6574   23805649.6364
       205.0004        138.0004
  22094903.6944      39779.86849     28358.78846  22094903.6964   22094909.3584
       232.0004        186.0004
  22884330.5644    -637944.12949   -478004.05045  22884329.8784   22884336.8594
       216.0004        162.0004
  20725716.7214    -556740.47849   -410731.72247  20725716.2554   20725722.8554
       240.0004        208.0004
  23215398.1674    -747854.35949   -544619.67745  23215399.0244   23215406.1984
       213.0004        154.0004
  22229451.1774    -624300.40249   -468176.50346  22229450.5524   22229455.2924
       232.0004        185.0004
  21992584.2124      25604.69049     17839.75446  21992583.5114   21992590.3924
       228.0004        183.0004
  20954470.0814    -235534.07349   -176566.49347  20954469.5634   20954476.2274
       241.0004        206.0004
  23828512.6634     116732.19449     81825.15545  23828511.2354   23828517.6664
       209.0004        149.0004
 07  2 17 19 49 10.0000000  0 11G 6G18G 5G30G29G 7G26G21G10G24G12
  20415491.2184    -499325.00949   -375057.12947  20415491.0804   20415496.9454
       240.0004        209.0004
  23538441.2544    -874723.41749   -626485.31245  23538441.2564   23538447.3224
       218.0004        156.0004
  23808982.9204     113889.50449     85289.84845  23808982.1554   23808989.8344
       203.0004        139.0004
  22097648.2314      54202.47249     39597.17846  22097648.0574   22097654.0884
       232.0004        186.0004
  22882642.4094    -646815.17349   -484916.52945  22882642.4364   22882648.8154
       216.0004        162.0004
  20724292.3824    -564225.52849   -416564.22347  20724291.8514   20724298.4184
       240.0004        208.0004
  23212685.4134    -762110.70749   -555728.51545  23212686.5024   23212693.0394
       213.0004        154.0004
  22227830.6114    -632816.60749   -474812.50046  22227829.4244   22227834.9114
       232.0004        185.0004
  21995226.2954      39488.95249     28658.66546  21995225.6724   21995233.0054
       226.0004        183.0004
  20955407.2664    -230609.21249   -172728.93647  20955406.9244   20955413.2544
       241.0004        206.0004
  23831905.2334     134561.28449     95717.93545  23831903.8964   23831910.6384
       208.0004        150.0004
 07  2 17 19 49 15.0000000  0 11G 6G18G 5G30G29G 7G26G21G10G24G12
  20414733.4364    -503307.34049   -378160.24547  20414733.3844   20414739.1064
       241.0004        209.0004
  23535317.1954    -891140.68249   -639277.96545  23535317.1794   23535323.0904
       218.0004        156.0004
  23812323.6914     131445.28349     98969.66845  23812322.1724   23812330.0914
       206.0004        139.0004
  22100394.3574      68633.48749     50842.11946  22100394.7554   22100400.3514
       232.0004        186.0004
  22880956.3244    -655675.35549   -491820.56145  22880955.7444   22880963.2394
       217.0004        162.0004
  20722869.6514    -571702.06949   -422390.09847  20722869.1564   20722875.6564
       240.0004        208.0004
  23209974.0054    -776359.91049   -566831.76845  23209975.0294   23209981.4844
       213.0004        155.0004
  22226210.7494    -641328.95749   -481445.49646  22226209.9454   22226215.0544
       232.0004        185.0004
  21997870.2894      53383.13549     39485.29446  21997869.8724   21997876.4904
       227.0004        183.0004
  20956345.2834    -225679.87049   -168887.89547  20956344.9144   20956351.4234
       241.0004        206.0004
  23835298.1274     152391.93349    109611.93445  23835296.6184   23835303.8914
       210.0004        150.0004
 07  2 17 19 49 20.0000000  0 11G 6G18G 5G30G29G 7G26G21G10G24G12
  20413977.6014    -507279.38149   -381255.34147  20413977.5774   20413983.0874
       241.0004        209.0004
  23532194.1594    -907552.57649   -652066.43645  23532193.8514   23532200.6764
       219.0004        156.0004
  23815664.5554     149001.88649    112650.12945  23815663.3894   23815670.4854
       206.0004        139.0004
  22103142.1164      83072.97749     62093.66146  22103142.3234   22103147.7844
       231.0004        186.0004
  22879272.3114    -664524.67549   -498716.12245  22879271.4504   22879278.6074
       218.0004        162.0004
  20721448.5394    -579170.12549   -428209.35847  20721448.1704   20721454.5114
       240.0004        208.0004
  23207263.8894    -790602.08249   -577929.54745  23207264.5454   23207271.2014
       213.0004        155.0004
  22224591.6234    -649837.42249   -488075.46946  22224590.9464   22224595.9534
       232.0004        185.0004
  22000516.1564      67287.19849     50319.62846  22000515.2704   22000522.0754
       227.0004        183.0004
  20957284.1454    -220746.07249   -165043.37747  20957283.8044   20957290.2184
       242.0004        206.0004
  23838691.2904     170224.05249    123507.07745  23838690.5084   23838696.7274
       209.0004        151.0004
 07  2 17 19 49 25.0000000  0 11G 6G18G 5G30G29G 7G26G21G10G24G12
  20413223.6964    -511241.12749   -384342.41547  20413223.5394   20413229.4924
       241.0004        209.0004
  23529072.1334    -923959.01849   -664850.65745  23529071.3634   23529077.6454
       218.0004        156.0004
  23819005.5844     166559.42249    126331.30645  23819004.4564   23819011.8684
       202.0004        140.0004
  22105891.4614      97520.97649     73351.84046  22105891.6004   22105897.8324
       232.0004        185.0004
  22877590.4064    -673363.03949   -505603.14045  22877589.8544   22877596.4124
       215.0004        162.0004
  20720029.0554    -586629.66249   -434021.98147  20720028.5334   20720035.1604
       240.0004        208.0004
  23204555.1304    -804837.10349   -589021.75645  23204555.8604   23204562.8834
       214.0004        156.0004
  22222973.2424    -658341.96049   -494702.36646  22222971.8874   22222977.6964
       233.0004        185.0004
  22003163.9234      81201.17849     61161.69246  22003163.5474   22003170.7214
       228.0004        183.0004
  20958223.8754    -215807.75149   -161195.33447  20958223.5344   20958229.8884
       241.0004        206.0004
  23842084.7844     188057.77549    137403.47245  23842083.9494   23842090.2704
       212.0004        151.0004
 07  2 17 19 49 30.0000000  0 11G 6G18G 5G30G29G 7G26G21G10G24G12
  20412471.7384    -515192.85149   -387421.68147  20412471.6604   20412477.2804
       241.0004        209.0004
  23525951.1214    -940360.27849   -677630.84445  23525950.5534   23525956.9054
       218.0004        156.0004
  23822346.7214     184117.50449    140012.92245  23822345.7934   23822353.6564
       209.0004        140.0004
  22108642.3894     111977.18049     84616.40646  22108642.6754   22108648.1024
       232.0004        185.0004
  22875910.5154    -682190.74849   -512481.85745  22875909.8174   22875916.7964
       216.0004        162.0004
  20718611.1084    -594080.94149   -439828.17347  20718610.5744   20718617.0204
       240.0004        208.0004
  23201847.6734    -819065.27349   -600108.64045  23201847.7754   23201855.1984
       214.0004        156.0004
  22221355.5484    -666842.87149   -501326.45646  22221354.5064   22221359.8024
       232.0004        185.0004
  22005813.5154      95124.78049     72011.25146  22005812.9334   22005819.5744
       228.0004        183.0004
  20959164.3974    -210865.18849   -157343.99047  20959163.8634   20959170.6054
       241.0004        206.0004
  23845478.5534     205892.74149    151300.83345  23845477.7194   23845484.5864
       209.0004        151.0004
 07  2 17 19 49 35.0000000  0 11G 6G18G 5G30G29G 7G26G21G10G24G12
  20411721.6994    -519134.35349   -390492.98047  20411721.5494   20411727.1904
       240.0004        209.0004
  23522831.0884    -956756.14049   -690406.81945  23522830.7034   23522836.5634
       219.0004        156.0004
  23825688.0304     201676.39549    153695.16845  23825688.1794   23825695.1774
       208.0004        141.0004
  22111394.9064     126441.76049     95887.49746  22111394.8604   22111400.8094
       232.0004        185.0004
  22874232.6704    -691007.57249   -519352.10745  22874233.1384   22874239.9774
       217.0004        162.0004
  20717194.7934    -601523.74849   -445627.76247  20717194.1754   20717200.6984
       240.0004        208.0004
  23199141.5724    -833286.23749   -611189.90645  23199142.2384   23199148.9704
       215.0004        156.0004
  22219738.6144    -675339.93149   -507947.53446  22219738.0554   22219743.1394
       233.0004        185.0004
  22008465.0074     109058.19349     82868.45346  22008464.4174   22008471.5704
       227.0004        183.0004
  20960105.7784    -205918.20549   -153489.19947  20960105.3014   20960111.6954
       241.0004        206.0004
  23848872.6094     223729.16449    165199.33145  23848872.0594   23848878.4004
       208.0004        151.0004
 07  2 17 19 49 40.0000000  0 11G 6G18G 5G30G29G 7G26G21G10G24G12
  20410973.5854    -523065.77549   -393556.42347  20410973.3274   20410979.2144
       241.0004        209.0004
  23519712.0344    -973146.79749   -703178.73745  23519711.1834   23519717.4384
       218.0004        156.0004
  23829029.4584     219235.87349    167377.86645  23829029.6664   23829037.1704
       205.0004        141.0004
  22114148.9774     140914.47749    107164.93846  22114149.1434   22114154.7414
       231.0004        185.0004
  22872556.8794    -699813.72749   -526214.02545  22872556.1294   22872564.0404
       217.0004        162.0004
  20715780.0644    -608958.28749   -451420.90547  20715779.5144   20715785.8134
       240.0004        208.0004
  23196436.8514    -847500.25549   -622265.76245  23196437.3314   23196444.0324
       213.0004        156.0004
  22218122.3704    -683833.30949   -514565.74946  22218121.4554   22218126.6394
       233.0004        185.0004
  22011118.2694     123001.19949     93733.13546  22011118.0004   22011124.7484
       227.0004        183.0004
  20961047.9774    -200967.00749   -149631.12347  20961047.5794   20961053.8744
       241.0004        206.0004
  23852266.9014     241566.81949    179098.78845  23852266.2204   23852273.1894
       208.0004        151.0004
 07  2 17 19 49 45.0000000  0 11G 6G18G 5G30G29G 7G26G21G10G24G12
  20410227.4424    -526986.67449   -396611.67147  20410227.4144   20410233.2134
       241.0004        209.0004
  23516594.0924    -989531.77849   -715946.23945  23516592.9814   23516599.5824
       217.0004        156.0004
  23832371.0534     236796.40349    181061.38445  23832370.5234   23832378.9174
       206.0004        141.0004
  22116904.6654     155395.80149    118449.07946  22116904.4164   22116910.2064
       231.0004        185.0004
  22870883.2454    -708608.68849   -533067.22745  22870882.9574   22870890.0844
       218.0004        162.0004
  20714366.9764    -616384.05449   -457207.21747  20714366.3534   20714373.1824
       240.0004        208.0004
  23193733.5264    -861706.88649   -633335.85645  23193733.8024   23193740.1594
       215.0004        156.0004
  22216506.9114    -692322.56849   -521180.75446  22216506.0534   22216511.3434
       233.0004        185.0004
  22013773.4744     136954.24249    104605.62646  22013773.6224   22013779.7164
       228.0004        183.0004
  20961991.0464    -196011.12749   -145769.39647  20961990.5464   20961996.9174
       241.0004        206.0004
  23855661.5324     259406.18349    192999.58045  23855661.4594   23855668.1294
       207.0004        151.0004
 07  2 17 19 49 50.0000000  0 11G 6G18G 5G30G29G 7G26G21G10G24G12
  20409483.2884    -530897.37549   -399658.96947  20409482.9694   20409488.8364
       240.0004        209.0004
  23513477.1414   -1005911.43849   -728709.59345  23513476.4294   23513481.9624
       217.0004        156.0004
  23835712.7744     254357.59949    194745.40745  23835713.5994   23835720.6394
       207.0004        141.0004
  22119661.9284     169885.39049    129739.65946  22119661.5774   22119668.3854
       230.0004        184.0004
  22869211.6804    -717392.83849   -539912.00445  22869211.8544   22869218.6384
       217.0004        162.0004
  20712955.4954    -623801.42749   -462986.98547  20712954.9904   20712961.4324
       240.0004        208.0004
  23191031.5524    -875906.46949   -644400.44945  23191031.9234   23191037.7134
       214.0004        156.0004
  22214892.1684    -700808.06849   -527792.82546  22214891.4614   22214896.6084
       232.0004        185.0004
  22016430.5084     150916.97349    115485.67346  22016429.8434   22016437.0034
       228.0004        183.0004
  20962934.9424    -191050.92149   -141904.30547  20962934.5924   20962941.0434
       241.0004        206.0004
  23859056.4124     277246.86649    206901.40045  23859056.6694   23859063.8254
       206.0004        151.0004
 07  2 17 19 49 55.0000000  0 11G 6G18G 5G30G29G 7G26G21G10G24G12
  20408741.0294    -534797.82749   -402698.27847  20408740.6234   20408746.5994
       241.0004        209.0004
  23510361.2184   -1022285.68149   -741468.72145  23510360.5364   23510366.3614
       217.0004        156.0004
  23839054.6414     271919.47149    208429.96745  23839054.0064   23839062.5974
       207.0004        141.0004
  22122420.7594     184383.31149    141036.73546  22122420.5974   22122427.1104
       230.0004        184.0004
  22867542.1714    -726166.07549   -546748.28245  22867541.5304   22867548.8084
       218.0004        162.0004
  20711545.6364    -631210.25449   -468760.09647  20711545.1264   20711551.6644
       240.0004        208.0004
  23188330.8594    -890098.88549   -655459.45045  23188331.0024   23188337.5644
       212.0004        156.0004
  22213278.1654    -709289.71749   -534401.89546  22213277.3484   22213282.0494
       232.0004        185.0004
  22019089.4024     164889.46049    126373.32646  22019089.2124   22019095.8174
       228.0004        183.0004
  20963879.6464    -186086.34449   -138035.80447  20963879.2084   20963885.6104
       241.0004        206.0004
  23862451.6054     295088.94749    220804.30145  23862450.7394   23862458.6494
       210.0004        151.0004
 07  2 17 19 50  0.0000000  0 11G 6G18G 5G30G29G 7G26G21G10G24G12
  20408000.7614    -538688.09549   -405729.65647  20408000.4654   20408006.3794
       240.0004        209.0004
  23507246.3114   -1038654.55849   -754223.67345  23507245.0934   23507251.0374
       218.0004        156.0004
  23842396.6934     289482.02849    222115.06545  23842395.6734   23842404.8384
       206.0004        141.0004
  22125181.1674     198889.39749    152340.17346  22125181.2964   22125187.1144
       230.0004        184.0004
  22865874.7574    -734928.44949   -553576.08945  22865874.2954   22865881.5334
       217.0004        162.0004
  20710137.3964    -638610.67449   -474526.65547  20710136.8814   20710143.4264
       240.0004        208.0004
  23185631.5224    -904284.17649   -666512.89745  23185631.1324   23185638.0574
       213.0004        155.0004
  22211664.8704    -717767.60749   -541008.03446  22211664.2554   22211668.9254
       233.0004        185.0004
  22021750.1344     178871.61549    137268.51046  22021749.4204   22021756.6254
       229.0004        183.0004
  20964825.1804    -181117.45349   -134163.93947  20964824.9344   20964831.3124
       241.0004        206.0004
  23865847.0604     312932.32049    234708.20745  23865846.1294   23865854.6714
       209.0004        150.0004
 07  2 17 19 50  5.0000000  0 11G 6G18G 5G30G29G 7G26G21G10G24G12
  20407262.4344    -542567.92749   -408752.90547  20407262.1364   20407267.9334
       240.0004        209.0004
  23504132.4614   -1055017.91349   -766974.32245  23504130.9694   23504138.0074
       217.0004        156.0004
  23845738.9034     307045.38649    235800.78445  23845738.0594   23845746.3644
       207.0004        141.0004
  22127943.1874     213403.94649    163650.20346  22127942.8044   22127949.1344
       231.0004        184.0004
  22864209.4324    -743679.75549   -560395.27745  22864208.8884   22864216.3504
       217.0004        162.0004
  20708730.7894    -646002.47349   -480286.49647  20708730.4644   20708736.8474
       241.0004        208.0004
  23182933.5924    -918462.06749   -677560.59145  23182933.4194   23182940.9604
       213.0004        155.0004
  22210052.3444    -726241.53549   -547611.09346  22210051.9414   22210056.7674
       233.0004        185.0004
  22024412.7364     192863.60049    148171.35046  22024411.9374   22024418.8734
       229.0004        183.0004
  20965771.5764    -176144.05549   -130288.56547  20965771.1394   20965777.6364
       241.0004        206.0004
  23869242.7974     330777.15649    248613.25845  23869242.0284   23869250.3974
       208.0004        150.0004
 07  2 17 19 50 10.0000000  0 11G 6G18G 5G30G29G 7G26G21G10G24G12
  20406526.0914    -546437.48949   -411768.14747  20406525.7564   20406531.7204
       240.0004        209.0004
  23501019.6644   -1071375.75149   -779720.66745  23501019.0634   23501025.3914
       218.0004        156.0004
  23849081.2664     324609.49949    249487.08845  23849080.6554   23849088.5014
       207.0004        141.0004
  22130706.7744     227926.81249    174966.71846  22130706.6814   22130712.7104
       231.0004        184.0004
  22862546.2064    -752420.07249   -567205.89745  22862545.6994   22862553.1644
       219.0004        162.0004
  20707325.8244    -653385.72149   -486039.67447  20707325.3374   20707331.8084
       241.0004        208.0004
  23180237.0084    -932632.72849   -688602.65045  23180236.4864   23180244.8764
       212.0004        155.0004
  22208440.5234    -734711.62549   -554211.16046  22208439.9874   22208445.0054
       232.0004        185.0004
  22027077.1864     206865.31049    159081.77646  22027076.7324   22027083.6084
       228.0004        183.0004
  20966718.8204    -171166.25049   -126409.75547  20966718.5734   20966725.0754
       241.0004        206.0004
  23872638.7924     348623.39949    262519.41245  23872638.3464   23872645.8024
       207.0004        150.0004
 07  2 17 19 50 15.0000000  0 11G 6G18G 5G30G29G 7G26G21G10G24G12
  20405791.7234    -550296.57949   -414775.23247  20405791.3854   20405797.2634
       240.0004        209.0004
  23497907.9254   -1087728.02449   -792462.67345  23497907.1574   23497913.6544
       216.0004        156.0004
  23852423.7564     342174.36349    263173.98045  23852423.4314   23852431.5114
       211.0004        141.0004
  22133471.9674     242458.02049    186289.72846  22133472.3564   22133478.3184
       231.0004        183.0004
  22860885.0964    -761149.29849   -574007.88445  22860885.1194   22860891.8364
       217.0004        162.0004
  20705922.4734    -660760.31749   -491786.11147  20705922.1584   20705928.3304
       240.0004        208.0004
  23177541.7924    -946796.08449   -699639.02745  23177541.4124   23177548.8624
       214.0004        156.0004
  22206829.4434    -743177.76749   -560808.15346  22206829.1424   22206833.7154
       233.0004        185.0004
  22029743.5134     220876.82849    169999.83746  22029742.9064   22029749.5934
       228.0004        183.0004
  20967666.9344    -166183.95549   -122527.44947  20967666.5474   20967672.9354
       241.0004        206.0004
  23876035.0734     366471.10049    276426.70345  23876034.7554   23876041.8944
       211.0004        150.0004
 07  2 17 19 50 20.0000000  0 11G 6G18G 5G30G29G 7G26G21G10G24G12
  20405059.3944    -554145.02049   -417774.02047  20405059.2314   20405064.8924
       241.0004        209.0004
  23494797.3324   -1104074.44249   -805200.13745  23494796.8714   23494802.3384
       216.0004        156.0004
  23855766.4734     359740.25649    276861.68345  23855766.5074   23855773.1244
       213.0004        140.0004
  22136238.7804     256997.87049    197619.46546  22136238.9014   22136244.7654
       232.0004        183.0004
  22859226.1284    -769867.17849   -580801.03345  22859225.1984   22859232.3584
       217.0004        162.0004
  20704520.8424    -668125.97849   -497525.59247  20704520.5394   20704526.7934
       240.0004        208.0004
  23174848.0684    -960951.78549   -710669.43945  23174847.9274   23174855.2904
       211.0004        155.0004
  22205219.1794    -751639.72849   -567401.88746  22205218.7474   22205223.7474
       233.0004        185.0004
  22032411.7784     234898.40649    180925.73746  22032411.2094   22032417.5814
       228.0004        183.0004
  20968615.9374    -161196.89549   -118641.43747  20968615.3904   20968621.9934
       240.0004        206.0004
  23879431.6734     384320.51649    290335.32245  23879430.2944   23879439.2214
       206.0004        149.0004
 07  2 17 19 50 25.0000000  0 11G 6G18G 5G30G29G 7G26G21G10G24G12
  20404328.8904    -557983.73649   -420765.22347  20404328.6374   20404334.5244
       241.0004        209.0004
  23491687.6494   -1120416.02949   -817933.82445  23491686.7944   23491692.6574
       220.0004        156.0004
  23859109.1774     377306.19249    290549.41845  23859108.8934   23859116.0764
       207.0004        141.0004
  22139007.0754     271545.34149    208955.16546  22139006.9744   22139013.2834
       231.0004        183.0004
  22857569.1424    -778574.69149   -587586.08645  22857568.3654   22857575.9144
       216.0004        162.0004
  20703120.7264    -675483.71049   -503258.88147  20703120.3884   20703126.6124
       241.0004        208.0004
  23172155.5934    -975100.78049   -721694.61845  23172155.4314   23172163.1374
       214.0004        155.0004
  22203609.5364    -760098.47849   -573993.11146  22203609.2214   22203614.0784
       233.0004        185.0004
  22035081.7114     248929.03049    191858.69646  22035081.1014   22035087.9234
       228.0004        182.0004
  20969565.6524    -156206.07249   -114752.47847  20969565.1924   20969571.8644
       240.0004        206.0004
  23882828.4224     402170.59349    304244.45745  23882828.0524   23882835.5034
       208.0004        149.0004
 07  2 17 19 50 30.0000000  0 11G 6G18G 5G30G29G 7G26G21G10G24G12
  20403600.3854    -561812.07749   -423748.34247  20403600.2314   20403605.8914
       241.0004        209.0004
  23488579.0224   -1136752.01349   -830663.14245  23488578.0664   23488584.8024
       218.0004        156.0004
  23862452.0354     394872.90449    304237.75745  23862451.5194   23862458.9124
       207.0004        141.0004
  22141776.9334     286101.07449    220297.27746  22141776.9374   22141783.2174
       231.0004        183.0004
  22855914.2534    -787271.09049   -594362.48445  22855913.5704   22855921.6814
       217.0004        162.0004
  20701722.2634    -682832.81249   -508985.45447  20701721.8564   20701728.2084
       240.0004        208.0004
  23169464.5534    -989242.36149   -732714.00545  23169464.1344   23169471.0514
       214.0004        154.0004
  22202000.6264    -768553.29949   -580581.28546  22201999.9654   22202005.3004
       233.0004        186.0004
  22037753.5224     262969.38449    202799.22846  22037753.1514   22037759.5164
       228.0004        183.0004
  20970516.2164    -151210.78549   -110860.04947  20970515.7444   20970522.3784
       241.0004        206.0004
  23886225.4124     420022.03749    318154.66245  23886225.1204   23886232.0684
       208.0004        149.0004
 07  2 17 19 50 35.0000000  0 11G 6G18G 5G30G29G 7G26G21G10G24G12
  20402873.8894    -565629.98449   -426723.34047  20402873.6844   20402879.4584
       240.0004        209.0004
  23485471.4154   -1153082.50449   -843388.18245  23485470.5974   23485477.3064
       219.0004        156.0004
  23865795.0434     412440.33249    317926.65245  23865794.5644   23865802.2184
       207.0004        141.0004
  22144548.3774     300665.11349    231645.87746  22144548.6384   22144554.6384
       231.0004        183.0004
  22854261.4784    -795956.38949   -601130.23945  22854260.6054   22854268.0754
       216.0004        162.0004
  20700325.4404    -690173.19249   -514705.23247  20700325.0334   20700331.3644
       240.0004        208.0004
  23166774.8974   -1003376.59249   -743727.68445  23166775.0254   23166781.8504
       214.0004        154.0004
  22200392.4834    -777004.20649   -587166.39946  22200391.6694   22200396.9564
       233.0004        186.0004
  22040427.1994     277019.47449    213747.33946  22040426.6104   22040433.7014
       228.0004        182.0004
  20971467.6374    -146211.04149   -106964.14647  20971467.1054   20971473.8514
       241.0004        205.0004
  23889622.6924     437874.88349    332065.94245  23889622.8784   23889629.8624
       209.0004        149.0004
 07  2 17 19 50 40.0000000  0 11G 6G18G 5G30G29G 7G26G21G10G24G12
  20402149.3004    -569437.72349   -429690.40447  20402148.9964   20402154.9384
       240.0004        209.0004
  23482364.8354   -1169407.63849   -856109.04345  23482364.4774   23482370.7964
       219.0004        156.0004
  23869138.1094     430008.21749    331615.90945  23869136.2914   23869146.1704
       207.0004        141.0004
  22147321.3464     315237.18349    243000.73346  22147321.5384   22147327.2104
       231.0004        183.0004
  22852610.7594    -804630.77449   -607889.47645  22852610.1274   22852616.6704
       214.0004        162.0004
  20698930.2014    -697505.19249   -520418.47447  20698929.7394   20698936.2164
       240.0004        208.0004
  23164086.5894   -1017503.69349   -754735.81045  23164086.1274   23164093.5174
       212.0004        154.0004
  22198785.0414    -785451.39049   -593748.61846  22198783.8524   22198789.0034
       232.0004        186.0004
  22043102.6554     291079.02749    224702.83746  22043101.9284   22043108.7934
       228.0004        182.0004
  20972419.8384    -141207.11449   -103064.98047  20972419.4564   20972425.9564
       241.0004        205.0004
  23893020.1734     455728.87449    345978.13045  23893020.0064   23893027.4754
       208.0004        149.0004
 07  2 17 19 50 45.0000000  0 11G 6G18G 5G30G29G 7G26G21G10G24G12
  20401426.7504    -573234.70749   -432649.09547  20401426.5864   20401432.4024
       241.0004        209.0004
  23479259.4034   -1185726.86549   -868825.31345  23479258.9574   23479265.4794
       220.0004        157.0004
  23872481.3444     447577.08049    345305.92445  23872480.7454   23872488.7084
       209.0004        141.0004
  22150095.9564     329817.86049    254362.29346  22150095.7584   22150101.8924
       230.0004        183.0004
  22850962.2054    -813293.75049   -614639.83645  22850961.5684   22850969.7624
       215.0004        162.0004
  20697536.6834    -704828.21549   -526124.72447  20697536.1244   20697542.5704
       240.0004        208.0004
  23161399.7634   -1031622.96449   -765737.84045  23161399.9864   23161406.7984
       213.0004        154.0004
  22197178.3874    -793894.34349   -600327.54146  22197177.5344   22197183.0804
       233.0004        186.0004
  22045780.0124     305148.61249    235666.14646  22045779.5844   22045785.4024
       229.0004        182.0004
  20973372.9744    -136198.40249    -99162.09247  20973372.6164   20973379.1634
       240.0004        205.0004
  23896417.9834     473584.50449    359891.59445  23896418.2144   23896425.0854
       207.0004        149.0004
 07  2 17 19 50 50.0000000  0 11G 6G18G 5G30G29G 7G26G21G10G24G12
  20400706.1224    -577021.69949   -435599.99747  20400705.9154   20400711.6604
       241.0004        209.0004
  23476154.9604   -1202040.90749   -881537.53945  23476154.0974   23476160.5034
       221.0004        157.0004
  23875824.6584     465146.22749    358996.15645  23875824.1514   23875831.9904
       208.0004        141.0004
  22152872.0514     344406.39249    265729.97246  22152872.6754   22152878.5454
       230.0004        183.0004
  22849315.7054    -821945.97349   -621381.81445  22849315.1684   22849322.6474
       216.0004        162.0004
  20696144.7324    -712142.91449   -531824.48947  20696144.2174   20696150.6574
       240.0004        208.0004
  23158714.2724   -1045735.22949   -776734.40045  23158714.0564   23158721.5134
       213.0004        154.0004
  22195572.4224    -802333.79249   -606903.73046  22195571.4864   22195577.2014
       232.0004        186.0004
  22048459.1554     319227.46049    246636.67746  22048459.1594   22048465.0184
       228.0004        182.0004
  20974326.8704    -131185.64049    -95256.04447  20974326.2564   20974333.0374
       240.0004        205.0004
  23899815.9614     491441.06349    373805.78145  23899815.8524   23899822.3084
       206.0004        149.0004
 07  2 17 19 50 55.0000000  0 11G 6G18G 5G30G29G 7G26G21G10G24G12
  20399987.4914    -580798.11649   -438542.65747  20399987.2534   20399992.9444
       240.0004        209.0004
  23473051.5814   -1218349.21449   -894245.28745  23473050.8554   23473056.2584
       220.0004        157.0004
  23879168.1304     482716.14449    372686.98745  23879167.4664   23879176.0184
       206.0004        141.0004
  22155649.7284     359003.26749    277104.15746  22155649.4134   22155656.1004
       230.0004        183.0004
  22847671.3594    -830586.93749   -628115.01145  22847670.8674   22847677.8864
       216.0004        162.0004
  20694754.4624    -719448.81149   -537517.39247  20694753.9604   20694760.5094
       240.0004        208.0004
  23156030.2254   -1059839.88449   -787725.03645  23156030.1944   23156037.9204
       213.0004        154.0004
  22193967.1804    -810769.21349   -613476.77546  22193966.7274   22193971.5464
       232.0004        186.0004
  22051140.1394     333316.09349    257614.83246  22051139.6944   22051146.1424
       228.0004        182.0004
  20975281.6084    -126168.33849    -91346.45847  20975281.1854   20975287.8864
       240.0004        205.0004
  23903214.2394     509299.06349    387721.09045  23903214.4794   23903221.4054
       207.0004        149.0004
 07  2 17 19 51  0.0000000  0 11G 6G18G 5G30G29G 7G26G21G10G24G12
  20399270.7864    -584564.49849   -441477.50147  20399270.5094   20399276.5304
       240.0004        209.0004
  23469949.2284   -1234652.30949   -906948.98945  23469947.9134   23469954.9994
       221.0004        157.0004
  23882511.6344     500286.33849    386378.03345  23882510.9024   23882518.7314
       207.0004        141.0004
  22158428.8904     373607.90249    288484.38946  22158429.5984   22158435.0104
       230.0004        183.0004
  22846029.0874    -839217.11649   -634839.81045  22846028.9634   22846035.7704
       216.0004        162.0004
  20693365.7624    -726746.47649   -543203.88347  20693364.9324   20693371.6854
       240.0004        208.0004
  23153347.5054   -1073937.47949   -798710.17245  23153347.4414   23153355.1074
       211.0004        154.0004
  22192362.6484    -819201.10749   -620047.08446  22192362.0874   22192367.0014
       232.0004        186.0004
  22053822.8944     347413.97949    268600.19646  22053822.0574   22053828.3454
       229.0004        182.0004
  20976237.1314    -121147.02949    -87433.75247  20976236.6544   20976243.3514
       241.0004        205.0004
  23906612.6564     527157.93249    401637.08245  23906613.1964   23906620.0214
       208.0004        148.0004
 07  2 17 19 51  5.0000000  0 11G 6G18G 5G30G29G 7G26G21G10G24G12
  20398556.1214    -588320.05749   -444403.90947  20398555.8644   20398561.6704
       240.0004        209.0004
  23466847.9654   -1250949.44549   -919648.04445  23466846.4704   23466853.2834
       220.0004        158.0004
  23885855.3434     517857.51949    400069.84245  23885855.2074   23885862.7754
       206.0004        141.0004
  22161209.6904     388221.09449    299871.27946  22161209.3644   22161216.1194
       230.0004        183.0004
  22844388.9864    -847835.75249   -641555.63245  22844389.0394   22844396.2284
       216.0004        162.0004
  20691978.7754    -734035.00049   -548883.24947  20691978.1224   20691984.7204
       240.0004        208.0004
  23150666.2904   -1088027.24149   -809689.21145  23150665.4984   23150673.5184
       213.0004        154.0004
  22190758.9234    -827628.74649   -626614.06546  22190758.2284   22190763.6314
       233.0004        186.0004
  22056507.5534     361521.87049    279593.35246  22056506.8484   22056513.5734
       228.0004        182.0004
  20977193.5644    -116120.93449    -83517.31447  20977193.2014   20977199.5804
       242.0004        205.0004
  23910011.4014     545018.45149    415554.35845  23910010.8644   23910018.2034
       207.0004        148.0004
 07  2 17 19 51 10.0000000  0 11G 6G18G 5G30G29G 7G26G21G10G24G12
  20397843.3984    -592065.37249   -447322.33347  20397843.0174   20397848.9604
       240.0004        209.0004
  23463747.7584   -1267241.14849   -932342.84945  23463746.5564   23463754.3904
       221.0004        158.0004
  23889199.1164     535429.13249    413761.99245  23889198.5824   23889207.2434
       209.0004        141.0004
  22163992.0064     402842.28749    311264.41646  22163992.3374   22163998.0294
       231.0004        183.0004
  22842750.9794    -856443.36249   -648262.84145  22842750.4334   22842757.8874
       216.0004        161.0004
  20690593.4444    -741315.00949   -554555.97947  20690592.8414   20690599.2844
       240.0004        208.0004
  23147986.4424   -1102109.69749   -820662.55245  23147986.1334   23147994.0234
       212.0004        154.0004
  22189155.9034    -836052.61649   -633178.11946  22189154.9684   22189160.1074
       233.0004        186.0004
  22059193.9914     375639.21449    290593.88446  22059193.4084   22059200.0224
       228.0004        182.0004
  20978150.8104    -111090.57649    -79597.55147  20978150.4394   20978157.1554
       241.0004        205.0004
  23913410.3624     562880.10149    429472.51745  23913410.1814   23913416.6804
       207.0004        148.0004
 07  2 17 19 51 15.0000000  0 11G 6G18G 5G30G29G 7G26G21G10G24G12
  20397132.6494    -595800.33049   -450232.69247  20397132.5694   20397138.2664
       240.0004        209.0004
  23460648.6184   -1283527.35849   -945033.38545  23460648.7714   23460654.0034
       221.0004        158.0004
  23892543.0014     553001.18949    427454.48645  23892542.1974   23892551.0054
       208.0004        142.0004
  22166775.8504     417471.46649    322663.76846  22166776.1804   22166781.8304
       230.0004        183.0004
  22841115.0914    -865039.95149   -654961.47345  22841114.5554   22841122.0274
       216.0004        161.0004
  20689209.7024    -748586.47749   -560222.05947  20689209.0594   20689215.7694
       240.0004        208.0004
  23145308.0174   -1116184.72449   -831630.09245  23145307.6674   23145314.8534
       212.0004        154.0004
  22187553.6064    -844472.72949   -639739.23846  22187552.4874   22187558.0874
       233.0004        186.0004
  22061882.2424     389766.00049    301601.76046  22061881.5874   22061888.1104
       227.0004        182.0004
  20979108.8664    -106055.98149    -75674.49447  20979108.5754   20979115.3624
       241.0004        205.0004
  23916809.5224     580742.85549    443391.52945  23916809.6474   23916816.2784
       207.0004        148.0004
 07  2 17 19 51 20.0000000  0 11G 6G18G 5G30G29G 7G26G21G10G24G12
  20396423.9084    -599524.74549   -453134.83247  20396423.7104   20396429.6564
       240.0004        209.0004
  23457550.5494   -1299807.80149   -957719.43645  23457549.6364   23457556.3404
       220.0004        159.0004
  23895886.9884     570573.95049    441147.52645  23895886.3824   23895894.7304
       205.0004        142.0004
  22169561.2574     432108.93949    334069.58746  22169561.5824   22169567.7384
       231.0004        183.0004
  22839481.3394    -873625.24149   -661651.30045  22839480.9564   22839488.5224
       215.0004        161.0004
  20687827.6754    -755849.08249   -565881.22647  20687827.1954   20687833.6314
       240.0004        208.0004
  23142631.0714   -1130252.08449   -842591.66545  23142629.7714   23142638.1014
       212.0004        154.0004
  22185952.0574    -852888.83849   -646297.24046  22185951.6254   22185956.4404
       232.0004        186.0004
  22064572.3394     403902.49849    312617.21546  22064571.2654   22064578.2224
       227.0004        182.0004
  20980067.7984    -101016.86749    -71747.91347  20980067.3724   20980074.2404
       240.0004        205.0004
  23920208.9214     598606.94949    457311.58545  23920208.9644   23920215.7194
       207.0004        148.0004
 07  2 17 19 51 25.0000000  0 11G 6G18G 5G30G29G 7G26G21G10G24G12
  20395717.1394    -603238.95849   -456029.02447  20395717.0694   20395722.7184
       240.0004        209.0004
  23454453.4854   -1316082.88349   -970401.30045  23454452.6904   23454459.4374
       221.0004        159.0004
  23899231.0244     588146.99049    454840.79345  23899230.0574   23899237.5484
       207.0004        142.0004
  22172348.1794     446754.26649    345481.53046  22172348.2434   22172354.2264
       231.0004        183.0004
  22837849.7034    -882199.55149   -668332.55745  22837849.0664   22837856.2044
       214.0004        161.0004
  20686447.2324    -763103.23849   -571533.81347  20686446.7114   20686453.2634
       240.0004        208.0004
  23139955.5274   -1144312.17549   -853547.57045  23139954.6034   23139962.4044
       211.0004        154.0004
  22184351.2324    -861301.35749   -652852.44646  22184351.0634   22184355.7454
       233.0004        186.0004
  22067264.1734     418048.27649    323639.90246  22067263.3714   22067269.8054
       227.0004        182.0004
  20981027.4614     -95973.65049    -67818.13247  20981027.1574   20981033.7374
       241.0004        206.0004
  23923608.5114     616472.01149    471232.39645  23923608.0114   23923615.2404
       207.0004        148.0004
 07  2 17 19 51 30.0000000  0 11G 6G18G 5G30G29G 7G26G21G10G24G12
  20395012.3464    -606942.69749   -458915.05547  20395012.4974   20395018.1754
       241.0004        209.0004
  23451357.4914   -1332352.30149   -983078.74045  23451356.7344   23451361.8944
       217.0004        159.0004
  23902575.1634     605720.60549    468534.50945  23902574.4824   23902581.4434
       207.0004        142.0004
  22175136.6404     461407.68949    356899.77346  22175137.0324   22175143.1634
       230.0004        183.0004
  22836220.2054    -890762.63849   -675005.08945  22836219.9044   22836226.7644
       214.0004        161.0004
  20685068.4734    -770348.68149   -577179.61247  20685067.8164   20685074.3534
       240.0004        208.0004
  23137281.3894   -1158364.74449   -864497.62345  23137280.8444   23137287.9574
       212.0004        153.0004
  22182751.1064    -869710.02549   -659404.64746  22182750.5314   22182755.6074
       232.0004        186.0004
  22069957.8724     432203.61149    334670.02646  22069956.8574   22069964.3714
       228.0004        181.0004
  20981987.9944     -90926.03849    -63884.93147  20981987.7524   20981994.0814
       241.0004        206.0004
  23927008.3534     634338.27449    485154.14345  23927008.2274   23927015.4004
       207.0004        147.0004
 07  2 17 19 51 35.0000000  0 11G 6G18G 5G30G29G 7G26G21G10G24G12
  20394309.5294    -610635.92449   -461792.89347  20394309.4234   20394315.1634
       240.0004        209.0004
  23448262.6134   -1348616.00349   -995751.74045  23448261.1074   23448268.4664
       218.0004        158.0004
  23905919.4214     623294.78449    482228.66745  23905919.0874   23905926.7964
       206.0004        142.0004
  22177926.6544     476069.29249    368324.38446  22177926.5714   22177933.2224
       231.0004        183.0004
  22834592.8284    -899314.44049   -681668.82545  22834592.2114   22834600.0534
       216.0004        161.0004
  20683691.4084    -777585.32149   -582818.55147  20683690.8994   20683697.3704
       240.0004        208.0004
  23134608.7214   -1172409.68349   -875441.73545  23134608.2844   23134616.0654
       216.0004        153.0004
  22181151.7564    -878114.77249   -665953.79546  22181150.9594   22181156.2414
       232.0004        186.0004
  22072653.3524     446368.55649    345707.65346  22072652.6514   22072659.1094
       226.0004        181.0004
  20982949.3724     -85873.98949    -59948.26947  20982949.0974   20982955.8884
       241.0004        206.0004
  23930408.4214     652205.74549    499076.83145  23930408.5934   23930414.9704
       208.0004        147.0004
 07  2 17 19 51 40.0000000  0 11G 6G18G 5G30G29G 7G26G21G10G24G12
  20393608.7684    -614318.59649   -464662.51047  20393608.8084   20393614.4804
       240.0004        209.0004
  23445168.7944   -1364873.98849  -1008420.27345  23445167.8484   23445173.9204
       219.0004        158.0004
  23909263.7844     640869.59149    495923.30945  23909263.0624   23909272.2984
       209.0004        142.0004
  22180718.2394     490739.09449    379755.39746  22180718.6284   22180724.6154
       231.0004        183.0004
  22832967.6094    -907854.96949   -688323.75245  22832967.3064   22832974.0024
       215.0004        161.0004
  20682315.9984    -784813.13649   -588450.61447  20682315.5114   20682322.0904
       240.0004        208.0004
  23131937.5294   -1186446.91549   -886379.84145  23131936.8334   23131944.9654
       211.0004        154.0004
  22179553.1304    -886515.55249   -672499.85046  22179552.3454   22179557.3914
       233.0004        186.0004
  22075350.6874     460543.10149    356752.74146  22075349.7034   22075355.9064
       227.0004        181.0004
  20983911.5994     -80817.48549    -56008.13947  20983911.4604   20983917.7244
       241.0004        206.0004
  23933808.7104     670074.49949    513000.52545  23933808.9894   23933815.2224
       207.0004        147.0004
 07  2 17 19 51 45.0000000  0 11G 6G18G 5G30G29G 7G26G21G10G24G12
  20392909.9194    -617991.06149   -467524.17147  20392909.8724   20392915.6274
       240.0004        209.0004
  23442076.0254   -1381126.57249  -1021084.61145  23442075.3694   23442081.4244
       217.0004        158.0004
  23912608.1804     658444.57749    509618.09545  23912608.0864   23912616.5244
       208.0004        142.0004
  22183511.3224     505416.69449    391192.48146  22183512.3044   22183517.6864
       231.0004        183.0004
  22831344.4844    -916384.48149   -694970.12245  22831344.0194   22831351.5864
       214.0004        161.0004
  20680942.1914    -792032.51649   -594076.10147  20680941.6824   20680948.3144
       240.0004        208.0004
  23129267.7214   -1200476.84149   -897312.23845  23129267.2414   23129274.7294
       210.0004        153.0004
  22177955.1844    -894912.76149   -679043.12546  22177954.5724   22177959.6064
       232.0004        186.0004
  22078049.7964     474726.86449    367805.02546  22078048.3154   22078056.0554
       227.0004        181.0004
  20984874.5944     -75756.90949    -52064.83347  20984874.3344   20984880.7344
       242.0004        206.0004
  23937209.1964     687944.14049    526924.90745  23937208.7854   23937215.6294
       208.0004        146.0004
 07  2 17 19 51 50.0000000  0 11G 6G18G 5G30G29G 7G26G21G10G24G12
  20392213.1224    -621652.85749   -470377.51747  20392212.9154   20392218.7184
       240.0004        209.0004
  23438984.3584   -1397373.31249  -1033744.39145  23438982.7104   23438989.1494
       219.0004        158.0004
  23915952.7244     676020.25749    523313.42045  23915952.3614   23915960.1324
       210.0004        142.0004
  22186305.9404     520102.53149    402635.98346  22186306.4304   22186312.2184
       231.0004        183.0004
  22829723.5384    -924902.57249   -701607.58845  22829722.9524   22829729.9154
       216.0004        161.0004
  20679570.1154    -799242.95249   -599694.62047  20679569.6524   20679575.9684
       240.0004        208.0004
  23126599.3664   -1214498.94649   -908238.53845  23126598.9694   23126606.9574
       210.0004        153.0004
  22176358.0144    -903305.94249   -685583.26346  22176357.1574   22176362.6054
       233.0004        186.0004
  22080750.6934     488920.27849    378864.82946  22080750.2254   22080756.5454
       227.0004        181.0004
  20985838.4454     -70691.81049    -48118.00547  20985838.2864   20985844.8264
       241.0004        206.0004
  23940609.9254     705815.14049    540850.34445  23940609.8714   23940616.7594
       206.0004        146.0004
 07  2 17 19 51 55.0000000  0 11G 6G18G 5G30G29G 7G26G21G10G24G12
  20391518.2804    -625304.33949   -473222.82747  20391518.2064   20391523.8954
       240.0004        209.0004
  23435893.7444   -1413614.47149  -1046399.81945  23435892.5694   23435899.0094
       219.0004        158.0004
  23919297.3234     693596.26449    537009.00345  23919296.7554   23919304.8264
       209.0004        142.0004
  22189102.0954     534796.24649    414085.63346  22189102.8644   22189108.4964
       232.0004        183.0004
  22828104.7254    -933409.55849   -708236.40245  22828103.9824   22828111.4164
       214.0004        161.0004
  20678199.6674    -806444.74849   -605306.40847  20678198.9114   20678205.6594
       240.0004        208.0004
  23123932.4724   -1228513.52549   -919158.98545  23123932.5254   23123940.0084
       210.0004        153.0004
  22174761.5594    -911695.40149   -692120.49846  22174760.6434   22174766.0894
       233.0004        187.0004
  22083453.4054     503123.04749    389931.91446  22083452.3144   22083459.0434
       227.0004        181.0004
  20986803.1234     -65622.49149    -44167.88647  20986802.8994   20986809.5314
       241.0004        206.0004
  23944010.8674     723687.11249    554776.53845  23944010.3874   23944017.8144
       209.0004        147.0004
 07  2 17 19 52  0.0000000  0 11G 6G18G 5G30G29G 7G26G21G10G24G12
  20390825.4024    -628945.38649   -476060.00947  20390825.3254   20390830.9804
       240.0004        209.0004
  23432804.2084   -1429850.05649  -1059050.90145  23432803.1784   23432810.0254
       219.0004        158.0004
  23922642.0334     711172.65249    550704.88545  23922641.3304   23922649.4374
       206.0004        141.0004
  22191899.7484     549497.88849    425541.44546  22191899.7474   22191906.3104
       232.0004        183.0004
  22826488.0314    -941905.27549   -714856.43645  22826488.4314   22826494.3124
       216.0004        161.0004
  20676830.8664    -813637.86849   -610911.43647  20676830.3884   20676836.7424
       240.0004        208.0004
  23121266.9714   -1242520.59149   -930073.57945  23121266.7704   23121274.6104
       210.0004        153.0004
  22173165.8114    -920081.07149   -698654.78646  22173165.4174   22173171.2434
       233.0004        187.0004
  22086157.8864     517335.20449    401006.32146  22086157.5814   22086164.1474
       228.0004        181.0004
  20987768.6074     -60548.91349    -40214.44947  20987768.2904   20987774.9994
       241.0004        206.0004
  23947411.9964     741560.10549    568703.53145  23947412.5514   23947418.8964
       206.0004        146.0004
 07  2 17 19 52  5.0000000  0 11G 6G18G 5G30G29G 7G26G21G10G24G12
  20390134.5774    -632575.80549   -478888.90347  20390134.3944   20390140.3084
       240.0004        209.0004
  23429715.7584   -1446079.80049  -1071697.43645  23429714.8964   23429721.3994
       220.0004        159.0004
  23925986.8234     728749.65149    564401.23745  23925986.1744   23925994.2224
       208.0004        141.0004
  22194698.9364     564207.72449    437003.65046  22194699.4494   22194704.8714
       231.0004        184.0004
  22824873.4864    -950389.58849   -721467.57745  22824873.7494   22824880.1044
       217.0004        162.0004
  20675463.7484    -820822.07049   -616509.51147  20675463.2454   20675469.7554
       240.0004        208.0004
  23118602.9834   -1256519.82449   -940982.05845  23118602.5154   23118610.5434
       212.0004        153.0004
  22171570.8544    -928462.71649   -705185.92846  22171570.7014   22171575.7144
       232.0004        187.0004
  22088864.1984     531556.96449    412088.21746  22088862.7294   22088870.3024
       228.0004        181.0004
  20988734.9374     -55470.86649    -36257.53047  20988734.7314   20988741.2984
       241.0004        206.0004
  23950813.3744     759434.37549    582631.51945  23950813.6374   23950820.6494
       209.0004        146.0004
 07  2 17 19 52 10.0000000  0 11G 6G18G 5G30G29G 7G26G21G10G24G12
  20389445.7274    -636195.76349   -481709.65147  20389445.5614   20389451.2564
       241.0004        209.0004
  23426628.4254   -1462303.87649  -1084339.55645  23426627.6334   23426633.2984
       220.0004        159.0004
  23929331.6694     746326.98449    578097.83845  23929330.9894   23929339.1474
       209.0004        141.0004
  22197499.6574     578925.43149    448471.99046  22197499.9614   22197506.1074
       232.0004        184.0004
  22823261.1134    -958862.67249   -728069.96945  22823260.5064   22823267.4724
       217.0004        162.0004
  20674098.3274    -827997.51149   -622100.76447  20674097.6904   20674104.0724
       240.0004        208.0004
  23115940.4354   -1270511.42049   -951884.59445  23115940.2684   23115947.5374
       209.0004        152.0004
  22169976.5844    -936840.61049   -711714.14946  22169976.1954   22169981.2654
       234.0004        187.0004
  22091572.2804     545788.08349    423177.39646  22091571.5034   22091578.3174
       227.0004        181.0004
  20989702.0644     -50388.57249    -32297.30547  20989701.6224   20989708.5174
       241.0004        206.0004
  23954214.9654     777309.62649    596560.27245  23954215.2324   23954222.7754
       207.0004        146.0004
 07  2 17 19 52 15.0000000  0 11G 6G18G 5G30G29G 7G26G21G10G24G12
  20388758.8734    -639805.25549   -484522.24247  20388758.7964   20388764.7354
       240.0004        209.0004
  23423542.1504   -1478522.33449  -1096977.30145  23423540.4004   23423547.7994
       221.0004        159.0004
  23932676.6284     763904.73649    591794.77445  23932676.1334   23932684.6924
       209.0004        142.0004
  22200301.8484     593651.01049    459946.45846  22200301.7314   22200308.0424
       231.0004        184.0004
  22821650.9004    -967324.49049   -734663.58045  22821651.1904   22821657.8714
       216.0004        162.0004
  20672734.5314    -835164.26249   -627685.24547  20672734.2344   20672740.6354
       240.0004        208.0004
  23113279.3314   -1284495.41449   -962781.19345  23113279.4604   23113286.9854
       210.0004        152.0004
  22168383.0674    -945214.69049   -718239.40546  22168382.6184   22168387.8714
       233.0004        187.0004
  22094282.1474     560028.57049    434273.86746  22094281.3574   22094287.9674
       226.0004        180.0004
  20990670.0174     -45302.02949    -28333.76647  20990669.7424   20990676.1334
       241.0004        206.0004
  23957616.7234     795185.93249    610489.84245  23957616.7974   23957624.0714
       206.0004        146.0004
 07  2 17 19 52 20.0000000  0 11G 6G18G 5G30G29G 7G26G21G10G24G12
  20388073.9944    -643404.26349   -487326.66447  20388073.7104   20388079.5234
       240.0004        209.0004
  23420456.9254   -1494735.17049  -1109610.65745  23420455.8064   23420462.5134
       221.0004        159.0004
  23936021.6234     781482.79549    605491.94545  23936020.8884   23936029.9614
       208.0004        142.0004
  22203105.5584     608384.46949    471427.06446  22203106.3494   22203111.9794
       232.0004        184.0004
  22820042.7934    -975775.05749   -741248.43945  22820042.3534   22820049.1924
       214.0004        162.0004
  20671372.4084    -842322.27149   -633262.91147  20671372.0974   20671378.3024
       240.0004        208.0004
  23110619.6944   -1298471.74449   -973671.84445  23110619.6714   23110626.8704
       208.0004        152.0004
  22166790.2524    -953585.00849   -724761.72646  22166789.8214   22166795.2094
       233.0004        187.0004
  22096993.7964     574278.37749    445377.61946  22096992.6504   22096999.2204
       227.0004        180.0004
  20991638.7384     -40211.24449    -24366.92047  20991638.3114   20991645.0754
       240.0004        206.0004
  23961018.7024     813063.22249    624420.18345  23961019.3214   23961026.0114
       207.0004        146.0004
 07  2 17 19 52 25.0000000  0 11G 6G18G 5G30G29G 7G26G21G10G24G12
  20387391.0974    -646992.86149   -490122.97647  20387390.8434   20387396.6974
       240.0004        209.0004
  23417372.8124   -1510942.30049  -1122239.57745  23417372.2914   23417377.4644
       221.0004        160.0004
  23939366.7074     799061.19749    619189.39145  23939366.6614   23939375.4674
       208.0004        142.0004
  22205910.7604     623125.83649    482913.83446  22205910.9984   22205917.3424
       231.0004        184.0004
  22818436.8184    -984214.32449   -747824.47945  22818436.3954   22818443.3524
       216.0004        162.0004
  20670011.9394    -849471.53449   -638833.76847  20670011.2194   20670017.6374
       240.0004        208.0004
  23107961.4974   -1312440.41149   -984556.51745  23107961.4114   23107969.0094
       213.0004        152.0004
  22165198.1434    -961951.55549   -731281.11346  22165198.0134   22165202.3564
       233.0004        187.0004
  22099707.2214     588537.50449    456488.61946  22099706.1924   22099713.4704
       227.0004        180.0004
  20992608.2934     -35116.21549    -20396.77047  20992608.0204   20992614.6194
       240.0004        206.0004
  23964420.8504     830941.52749    638351.31745  23964421.3964   23964428.1624
       208.0004        146.0004
 07  2 17 19 52 30.0000000  0 11G 6G18G 5G30G29G 7G26G21G10G24G12
  20386710.2284    -650570.94849   -492911.08947  20386710.0744   20386715.9184
       240.0004        209.0004
  23414289.7564   -1527143.76449  -1134864.07445  23414289.2554   23414294.9544
       221.0004        160.0004
  23942711.8344     816639.94849    632887.11545  23942711.9554   23942719.7944
       208.0004        142.0004
  22208717.4684     637875.10049    494406.76246  22208717.4754   22208723.5964
       231.0004        184.0004
  22816833.0344    -992642.29049   -754391.70846  22816832.6554   22816840.2854
       217.0004        163.0004
  20668653.1674    -856612.03149   -644397.78747  20668652.6504   20668659.0804
       240.0004        208.0004
  23105304.8064   -1326401.36249   -995435.17145  23105305.0104   23105312.1624
       214.0004        152.0004
  22163606.7984    -970314.30549   -737797.53146  22163606.4454   22163611.5634
       233.0004        187.0004
  22102422.4134     602805.99149    467606.92246  22102421.4724   22102428.8434
       225.0004        180.0004
  20993578.6754     -30016.90949    -16423.28247  20993578.2984   20993584.9934
       241.0004        206.0004
  23967823.1774     848820.80349    652283.20445  23967823.7114   23967830.4604
       207.0004        146.0004
 07  2 17 19 52 35.0000000  0 11G 6G18G 5G30G29G 7G26G21G10G24G12
  20386031.3584    -654138.30049   -495690.84747  20386031.1344   20386037.1854
       240.0004        209.0004
  23411207.8734   -1543339.27549  -1147483.94145  23411207.3284   23411213.5194
       219.0004        160.0004
  23946057.0754     834219.24649    646585.25645  23946057.5794   23946065.3624
       208.0004        142.0004
  22211525.7054     652632.44649    505905.98646  22211525.9314   22211531.5924
       231.0004        184.0004
  22815231.4404   -1001058.68349   -760949.93246  22815231.6144   22815238.5084
       216.0004        163.0004
  20667296.0844    -863743.48249   -649954.76447  20667295.6694   20667301.8854
       240.0004        208.0004
  23102649.6574   -1340354.38749  -1006307.65245  23102650.0184   23102657.5054
       213.0004        152.0004
  22162016.2024    -978673.03149   -744310.82746  22162015.5664   22162020.2434
       232.0004        187.0004
  22105139.4154     617084.03149    478732.65846  22105138.1614   22105145.9804
       226.0004        180.0004
  20994549.8944     -24913.10449    -12446.29547  20994549.5364   20994556.3764
       241.0004        206.0004
  23971225.7664     866701.32249    666216.06345  23971226.2954   23971233.3864
       204.0004        146.0004
 07  2 17 19 52 40.0000000  0 11G 6G18G 5G30G29G 7G26G21G10G24G12
  20385354.4824    -657695.34349   -498462.57147  20385354.1734   20385360.2814
       240.0004        209.0004
  23408127.0154   -1559529.23849  -1160099.47645  23408125.8824   23408132.8694
       222.0004        160.0004
  23949402.3624     851798.69249    660283.50745  23949402.5744   23949410.3964
       208.0004        142.0004
  22214335.4204     667397.46049    517411.18246  22214335.2564   22214341.6694
       230.0004        184.0004
  22813631.9754   -1009463.92849   -767499.45946  22813630.9324   22813639.0274
       218.0004        163.0004
  20665940.6534    -870866.36249   -655505.05747  20665940.2474   20665946.3694
       240.0004        208.0004
  23099995.9574   -1354299.83449  -1017174.23645  23099995.9264   23100003.5124
       213.0004        152.0004
  22160426.2834    -987028.11149   -750821.27046  22160425.5574   22160430.4004
       233.0004        187.0004
  22107858.1854     631371.20449    489865.52146  22107857.2494   22107864.9654
       226.0004        180.0004
  20995521.9114     -19805.20349     -8466.11347  20995521.4334   20995528.3784
       241.0004        206.0004
  23974628.4754     884582.60849    680149.51845  23974629.4194   23974635.6134
       207.0004        146.0004
 07  2 17 19 52 45.0000000  0 11G 6G18G 5G30G29G 7G26G21G10G24G12
  20384679.6254    -661241.77649   -501226.02347  20384679.3404   20384685.2284
       240.0004        209.0004
  23405047.2704   -1575713.41649  -1172710.50945  23405046.6234   23405053.9414
       221.0004        160.0004
  23952747.7154     869378.49049    673982.03445  23952747.5684   23952755.9714
       208.0004        142.0004
  22217146.6014     682170.38749    528922.54846  22217146.6494   22217153.1974
       230.0004        184.0004
  22812034.6804   -1017857.78649   -774040.11646  22812034.3274   22812041.3894
       217.0004        163.0004
  20664586.9044    -877980.33849   -661048.41247  20664586.5044   20664593.0044
       240.0004        208.0004
  23097343.7364   -1368237.39849  -1028034.67045  23097343.6324   23097350.8554
       214.0004        152.0004
  22158837.0774    -995379.31749   -757328.70046  22158836.8364   22158841.9754
       233.0004        187.0004
  22110578.7164     645667.73849    501005.67546  22110577.6864   22110585.4204
       226.0004        180.0004
  20996494.7324     -14692.96849     -4482.55447  20996494.5894   20996501.2254
       241.0004        206.0004
  23978031.4314     902464.92449    694083.77345  23978032.1844   23978038.0484
       209.0004        146.0004
 07  2 17 19 52 50.0000000  0 11G 6G18G 5G30G29G 7G26G21G10G24G12
  20384006.7794    -664777.62649   -503981.22947  20384006.7864   20384012.3494
       240.0004        209.0004
  23401968.6104   -1591891.83749  -1185317.05445  23401968.2354   23401973.8214
       221.0004        160.0004
  23956093.1424     886958.64649    687680.84845  23956092.6224   23956100.9574
       209.0004        141.0004
  22219959.2984     696951.17949    540440.03946  22219959.6324   22219966.3084
       230.0004        184.0004
  22810439.5744   -1026240.15949   -780571.83446  22810439.2524   22810446.3154
       216.0004        163.0004
  20663234.8504    -885085.47549   -666584.88447  20663234.5004   20663240.7574
       240.0004        208.0004
  23094693.0024   -1382167.13849  -1038889.01145  23094692.6274   23094699.9334
       215.0004        152.0004
  22157248.6404   -1003726.65649   -763833.11646  22157248.3564   22157253.0034
       233.0004        187.0004
  22113301.0214     659973.64249    512153.12246  22113299.5014   22113306.7824
       226.0004        180.0004
  20997468.3744      -9576.41649      -495.63347  20997468.0454   20997474.8554
       241.0004        206.0004
  23981434.5504     920348.23349    708018.80345  23981435.2484   23981441.5834
       207.0004        146.0004
 07  2 17 19 52 55.0000000  0 11G 6G18G 5G30G29G 7G26G21G10G24G12
  20383335.9144    -668303.05349   -506728.31347  20383335.4604   20383341.4214
       240.0004        209.0004
  23398891.0324   -1608064.63749  -1197919.21145  23398890.7154   23398896.0484
       221.0004        160.0004
  23959438.5954     904538.96849    701379.78845  23959437.4674   23959446.1144
       207.0004        141.0004
  22222773.4534     711739.67249    551963.54046  22222773.6944   22222780.0534
       230.0004        184.0004
  22808846.5724   -1034611.30349   -787094.79646  22808846.3644   22808853.9264
       219.0004        163.0004
  20661884.4444    -892181.87449   -672114.54547  20661884.2054   20661890.4784
       240.0004        208.0004
  23092043.7524   -1396089.16149  -1049737.34445  23092043.4814   23092051.6204
       213.0004        152.0004
  22155660.9154   -1012070.28049   -770334.63646  22155660.3264   22155665.7394
       233.0004        187.0004
  22116025.0764     674288.69349    523307.71046  22116024.1354   22116031.8814
       226.0004        180.0004
  20998442.8244      -4455.72049      3494.52247  20998442.3714   20998449.2484
       241.0004        206.0004
  23984837.8324     938232.36849    721954.47445  23984837.6524   23984845.3084
       206.0004        146.0004
 07  2 17 19 53  0.0000000  0 11G 6G18G 5G30G29G 7G26G21G10G24G12
  20382667.0484    -671817.92749   -509467.17847  20382666.8934   20382672.5894
       241.0004        209.0004
  23395814.5644   -1624231.67249  -1210516.89345  23395813.5854   23395819.5144
       222.0004        161.0004
  23962784.0884     922119.59349    715078.96845  23962783.5704   23962791.4714
       207.0004        141.0004
  22225589.1114     726535.97249    563493.10846  22225589.0154   22225595.6764
       230.0004        183.0004
  22807255.7994   -1042971.04649   -793608.87146  22807255.2164   22807262.6164
       217.0004        163.0004
  20660535.7604    -899269.41749   -677637.30347  20660535.3494   20660541.6484
       240.0004        208.0004
  23089395.9434   -1410003.41749  -1060579.60945  23089395.5644   23089403.0414
       214.0004        153.0004
  22154073.9114   -1020410.08849   -776833.18546  22154073.4344   22154078.3524
       233.0004        187.0004
  22118750.8684     688613.00549    534469.50646  22118749.7884   22118757.3104
       227.0004        180.0004
  20999418.0564        669.25549      7488.01047  20999417.6564   20999424.4864
       240.0004        206.0004
  23988241.2644     956117.45049    735890.89045  23988241.3164   23988248.4354
       208.0004        146.0004
 07  2 17 19 53  5.0000000  0 11G 6G18G 5G30G29G 7G26G21G10G24G12
  20382000.1744    -675322.29649   -512197.85647  20381999.9754   20382005.6434
       240.0004        209.0004
  23392739.1664   -1640392.98649  -1223110.10745  23392738.5544   23392744.0644
       222.0004        161.0004
  23966129.6304     939700.43949    728778.31045  23966128.8344   23966138.2184
       207.0004        141.0004
  22228406.2364     741340.06449    575028.76046  22228406.6444   22228413.1374
       230.0004        183.0004
  22805667.1464   -1051319.37649   -800114.04646  22805666.4364   22805673.7024
       215.0004        163.0004
  20659188.7184    -906348.19149   -683153.23147  20659188.4414   20659194.6444
       240.0004        208.0004
  23086749.6424   -1423909.81549  -1071415.75245  23086749.0564   23086757.1414
       215.0004        153.0004
  22152487.6074   -1028746.11449   -783328.79046  22152487.1124   22152492.7744
       233.0004        187.0004
  22121478.4374     702946.53449    545638.48546  22121477.2404   22121484.2054
       226.0004        180.0004
  21000394.1204       5798.43549     11484.77047  21000393.8704   21000400.3974
       241.0004        206.0004
  23991644.8514     974003.42249    749827.99445  23991644.9504   23991652.7344
       207.0004        146.0004
 07  2 17 19 53 10.0000000  0 11G 6G18G 5G30G29G 7G26G21G10G24G12
  20381335.3044    -678816.32449   -514920.47247  20381335.1254   20381341.0314
       241.0004        209.0004
  23389664.8344   -1656548.74449  -1235699.00045  23389663.7634   23389669.8804
       222.0004        161.0004
  23969475.1504     957281.28349    742477.66445  23969474.5484   23969483.5914
       207.0004        141.0004
  22231224.7704     756151.68949    586570.27946  22231225.2634   22231230.8804
       230.0004        183.0004
  22804080.6334   -1059656.58249   -806610.56946  22804080.3544   22804087.9204
       213.0004        163.0004
  20657843.2984    -913418.32849   -688662.42247  20657842.8834   20657849.2454
       241.0004        208.0004
  23084104.7804   -1437808.62549  -1082245.98245  23084104.6774   23084112.4834
       215.0004        154.0004
  22150901.9984   -1037078.56449   -789821.59646  22150901.5104   22150906.5224
       233.0004        187.0004
  22124207.7414     717289.06049    556814.47746  22124206.6404   22124214.3634
       226.0004        180.0004
  21001370.9304      10931.62149     15484.65947  21001370.8044   21001377.3554
       241.0004        206.0004
  23995048.5694     991890.08749    763765.64545  23995049.0934   23995055.4484
       207.0004        145.0004
 07  2 17 19 53 15.0000000  0 11G 6G18G 5G30G29G 7G26G21G10G24G12
  20380672.4434    -682299.61049   -517634.72447  20380672.2244   20380678.2704
       240.0004        209.0004
  23386591.6354   -1672698.46049  -1248283.17945  23386591.3104   23386596.0174
       221.0004        162.0004
  23972820.7844     974862.62849    756177.40045  23972820.8024   23972828.9474
       205.0004        140.0004
  22234044.8524     770971.32449    598118.03646  22234045.0514   22234051.2704
       229.0004        183.0004
  22802496.2924   -1067982.12749   -813097.99946  22802496.2804   22802503.3874
       216.0004        163.0004
  20656499.6364    -920479.34349   -694164.51647  20656499.3634   20656505.7354
       240.0004        209.0004
  23081461.4784   -1451699.37249  -1093069.93545  23081461.4974   23081468.6854
       215.0004        154.0004
  22149317.1544   -1045406.97549   -796311.26946  22149316.2374   22149321.5484
       233.0004        187.0004
  22126938.8354     731641.04549    567997.83246  22126937.6604   22126944.6214
       227.0004        180.0004
  21002348.6114      16069.27149     19488.01647  21002348.4274   21002355.1904
       241.0004        206.0004
  23998452.4714    1009777.87049    777704.16145  23998452.6074   23998459.2454
       206.0004        145.0004
 07  2 17 19 53 20.0000000  0 11G 6G18G 5G30G29G 7G26G21G10G24G12
  20380011.6794    -685772.01349   -520340.49147  20380011.6624   20380017.2544
       241.0004        209.0004
  23383519.6024   -1688842.19449  -1260862.68845  23383519.1874   23383525.9274
       222.0004        162.0004
  23976166.4954     992444.41849    769877.48745  23976165.8264   23976173.7424
       207.0004        140.0004
  22236866.4564     785798.96149    609672.03446  22236866.6984   22236873.0054
       229.0004        183.0004
  22800914.1984   -1076295.95649   -819576.30446  22800913.0764   22800920.5554
       214.0004        163.0004
  20655157.7124    -927531.24649   -699659.50147  20655157.3424   20655163.6704
       240.0004        209.0004
  23078819.7244   -1465581.96749  -1103887.53645  23078819.7564   23078827.0244
       216.0004        155.0004
  22147733.0724   -1053731.34949   -802797.78646  22147732.3144   22147737.6304
       233.0004        187.0004
  22129671.7154     746002.49549    579188.56646  22129670.5684   22129678.6274
       225.0004        180.0004
  21003327.1214      21211.41049     23494.88247  21003326.8294   21003333.5354
       241.0004        206.0004
  24001856.6294    1027666.76049    791643.54145  24001857.3504   24001863.7754
       207.0004        145.0004
 07  2 17 19 53 25.0000000  0 11G 6G18G 5G30G29G 7G26G21G10G24G12
  20379352.8954    -689233.99049   -523038.13547  20379352.7484   20379358.6264
       241.0004        209.0004
  23380448.6324   -1704980.25249  -1273437.78345  23380447.9334   23380454.3164
       222.0004        162.0004
  23979512.2134    1010026.30449    783577.64345  23979511.7194   23979519.6184
       205.0004        141.0004
  22239689.4954     800634.20649    621231.95646  22239689.7234   22239695.8254
       229.0004        183.0004
  22799334.2754   -1084598.42349   -826045.75246  22799333.4704   22799341.2024
       215.0004        163.0004
  20653817.4684    -934574.41049   -705147.67947  20653817.2404   20653823.5434
       240.0004        209.0004
  23076179.4694   -1479456.75749  -1114699.05945  23076179.3334   23076187.3814
       216.0004        155.0004
  22146149.7134   -1062052.06949   -809281.46346  22146148.8404   22146154.3144
       232.0004        187.0004
  22132406.3574     760373.01949    590386.37746  22132405.7244   22132412.3494
       227.0004        179.0004
  21004306.4424      26357.66749     27504.95147  21004306.1014   21004312.8394
       240.0004        205.0004
  24005260.9064    1045556.40849    805583.50945  24005261.3434   24005267.9464
       206.0004        144.0004
 07  2 17 19 53 30.0000000  0 11G 6G18G 5G30G29G 7G26G21G10G24G12
  20378696.1624    -692685.29149   -525727.45847  20378696.0224   20378701.5904
       241.0004        209.0004
  23377378.7754   -1721112.40149  -1286008.28645  23377378.6284   23377383.8164
       221.0004        162.0004
  23982857.9764    1027608.46749    797278.01445  23982858.4834   23982865.2344
       205.0004        140.0004
  22242513.9904     815477.19649    632797.91746  22242514.4584   22242519.8904
       228.0004        183.0004
  22797756.5394   -1092889.42049   -832506.26546  22797755.9324   22797763.3764
       216.0004        163.0004
  20652478.9244    -941608.57949   -710628.84947  20652478.5174   20652484.8224
       240.0004        209.0004
  23073540.7224   -1493323.60249  -1125504.39245  23073540.9204   23073548.3194
       216.0004        155.0004
  22144567.0574   -1070368.88649   -815762.09746  22144565.9664   22144571.7764
       232.0004        187.0004
  22135142.7174     774752.79849    601591.39246  22135141.8104   22135148.7694
       226.0004        179.0004
  21005286.5514      31508.23249     31518.37647  21005286.1534   21005292.8634
       241.0004        205.0004
  24008665.3604    1063446.95949    819524.17745  24008666.2664   24008671.9724
       207.0004        144.0004
 07  2 17 19 53 35.0000000  0 11G 6G18G 5G30G29G 7G26G21G10G24G12
  20378041.3874    -696126.06949   -528408.58647  20378041.3064   20378047.1594
       241.0004        209.0004
  23374310.0094   -1737238.79949  -1298574.29045  23374309.7124   23374315.0644
       221.0004        162.0004
  23986203.7784    1045190.70349    810978.45645  23986204.5264   23986210.5754
       206.0004        140.0004
  22245339.9634     830327.80849    644369.80446  22245340.1514   22245346.8794
       228.0004        182.0004
  22796180.9914   -1101168.96949   -838957.85745  22796181.3624   22796188.1394
       216.0004        162.0004
  20651142.0244    -948633.97649   -716103.18547  20651141.7724   20651148.0314
       240.0004        209.0004
  23070903.4734   -1507182.56149  -1136303.57445  23070903.5264   23070910.7904
       217.0004        156.0004
  22142985.1064   -1078682.02149   -822239.85846  22142984.2914   22142990.0194
       232.0004        187.0004
  22137880.8364     789141.65449    612803.47546  22137880.0254   22137886.6594
       227.0004        179.0004
  21006267.4504      36662.91649     35535.01447  21006267.2544   21006273.8204
       241.0004        205.0004
  24012069.9554    1081338.24449    833465.42045  24012070.4404   24012076.8154
       206.0004        144.0004
 07  2 17 19 53 40.0000000  0 11G 6G18G 5G30G29G 7G26G21G10G24G12
  20377388.6884    -699556.24049   -531081.44447  20377388.6274   20377394.2564
       240.0004        209.0004
  23371242.3774   -1753359.35449  -1311135.74745  23371240.4674   23371247.0674
       221.0004        162.0004
  23989549.6094    1062773.11049    824679.02145  23989550.0604   23989557.2624
       205.0004        140.0004
  22248167.3714     845186.11449    655947.70146  22248167.6444   22248173.9894
       228.0004        182.0004
  22794607.6304   -1109437.04949   -845400.51146  22794607.5724   22794614.6214
       215.0004        163.0004
  20649806.8644    -955650.46749   -721570.57747  20649806.4664   20649812.9194
       240.0004        209.0004
  23068267.7314   -1521033.57249  -1147096.58045  23068267.4214   23068274.9324
       218.0004        156.0004
  22141403.8964   -1086991.36049   -828714.66246  22141403.1264   22141408.2004
       232.0004        187.0004
  22140620.6834     803539.65049    624022.69446  22140620.0684   22140626.8844
       226.0004        179.0004
  21007249.1684      41821.81549     39554.93347  21007248.6544   21007255.5804
       241.0004        205.0004
  24015474.7084    1099230.38049    847407.32845  24015475.5124   24015481.9104
       206.0004        144.0004
 07  2 17 19 53 45.0000000  0 11G 6G18G 5G30G29G 7G26G21G10G24G12
  20376738.0074    -702975.63349   -533745.90847  20376737.8984   20376743.5924
       240.0004        209.0004
  23368175.8584   -1769473.90349  -1323692.52745  23368175.4494   23368182.3164
       220.0004        162.0004
  23992895.5074    1080355.89549    838379.87845  23992895.5044   23992903.5484
       206.0004        140.0004
  22250996.3264     860052.28849    667531.72546  22250996.2764   22251002.6974
       229.0004        182.0004
  22793036.4734   -1117693.42249   -851834.03446  22793036.1194   22793043.4424
       215.0004        163.0004
  20648473.4194    -962657.81449   -727030.84447  20648473.1394   20648479.2514
       240.0004        209.0004
  23065633.5504   -1534876.38249  -1157883.18745  23065633.8944   23065640.5804
       218.0004        156.0004
  22139823.4364   -1095296.72149   -835186.36446  22139822.9504   22139828.0704
       232.0004        187.0004
  22143362.3044     817946.99449    635249.19146  22143361.4904   22143368.6124
       226.0004        179.0004
  21008231.7264      46985.11049     43578.28247  21008231.4044   21008238.0834
       241.0004        205.0004
  24018879.6294    1117123.50649    861350.00845  24018880.1654   24018886.7044
       209.0004        144.0004
 07  2 17 19 53 50.0000000  0 11G 6G18G 5G30G29G 7G26G21G10G24G12
  20376089.3564    -706384.32849   -536402.03447  20376088.9974   20376095.1204
       241.0004        209.0004
  23365110.4784   -1785582.54649  -1336244.71145  23365109.8014   23365115.8724
       220.0004        162.0004
  23996241.4264    1097938.89449    852080.90245  23996241.3084   23996249.8044
       207.0004        140.0004
  22253826.7184     874926.20149    679121.77646  22253827.4564   22253833.0724
       229.0004        182.0004
  22791467.5364   -1125938.20049   -858258.53246  22791467.0664   22791474.6934
       216.0004        163.0004
  20647141.6784    -969656.13449   -732484.08347  20647141.0424   20647147.5274
       240.0004        209.0004
  23063000.9424   -1548711.11249  -1168663.50045  23063001.3264   23063008.1684
       218.0004        156.0004
  22138243.6904   -1103598.20849   -841655.05646  22138242.7734   22138248.4314
       234.0004        187.0004
  22146105.6934     832363.56449    646482.87346  22146105.1304   22146112.0534
       225.0004        179.0004
  21009215.0814      52152.69549     47604.96747  21009214.6934   21009221.4064
       241.0004        205.0004
  24022284.7634    1135017.50349    875293.37045  24022284.9384   24022292.2344
       206.0004        144.0004
 07  2 17 19 53 55.0000000  0 11G 6G18G 5G30G29G 7G26G21G10G24G12
  20375442.6854    -709782.56349   -539050.00647  20375442.5854   20375448.4554
       241.0004        209.0004
  23362046.1794   -1801685.44249  -1348792.39945  23362044.8434   23362051.1324
       220.0004        162.0004
  23999587.3904    1115521.89749    865781.93045  23999587.2024   23999595.6824
       207.0004        140.0004
  22256658.5734     889807.67649    690717.72546  22256659.3554   22256664.9374
       229.0004        182.0004
  22789900.7504   -1134171.58549   -864674.15046  22789900.3204   22789908.4504
       218.0004        163.0004
  20645811.6434    -976645.69249   -737930.48847  20645811.2224   20645817.4934
       241.0004        209.0004
  23060369.8024   -1562538.03449  -1179437.72145  23060369.7784   23060377.2204
       218.0004        157.0004
  22136664.6654   -1111896.01949   -848120.87546  22136664.1864   22136669.3154
       233.0004        187.0004
  22148850.7894     846789.11249    657723.55546  22148849.9704   22148857.2454
       226.0004        179.0004
  21010199.2084      57324.34649     51634.83047  21010198.8824   21010205.4084
       241.0004        205.0004
  24025689.9934    1152912.14749    889237.22945  24025690.1914   24025698.2634
       206.0004        144.0004
 07  2 17 19 54  0.0000000  0 11G 6G18G 5G30G29G 7G26G21G10G24G12
  20374798.0384    -713170.22949   -541689.74947  20374797.9714   20374803.5804
       241.0004        209.0004
  23358982.9554   -1817782.56949  -1361335.60046  23358981.9834   23358988.4184
       220.0004        163.0004
  24002933.3414    1133104.94849    879482.99045  24002934.0554   24002941.7634
       206.0004        141.0004
  22259491.9034     904696.71349    702319.56046  22259492.1844   22259498.8384
       229.0004        182.0004
  22788336.1524   -1142393.49849   -871080.83846  22788335.4644   22788343.1664
       216.0004        163.0004
  20644483.2424    -983626.41249   -743370.01147  20644482.5724   20644489.1224
       240.0004        209.0004
  23057740.1784   -1576356.99349  -1190205.72345  23057739.9694   23057747.5404
       216.0004        157.0004
  22135086.3654   -1120190.09549   -854583.79446  22135085.6294   22135090.7744
       233.0004        187.0004
  22151597.5824     861223.68949    668971.26746  22151597.0584   22151603.3624
       226.0004        179.0004
  21011184.1144      62500.13049     55667.90447  21011183.8804   21011190.3224
       241.0004        205.0004
  24029095.3974    1170807.48449    903181.62745  24029096.0434   24029102.8484
       205.0004        143.0004
 07  2 17 19 54  5.0000000  0 11G 6G18G 5G30G29G 7G26G21G10G24G12
  20374155.4504    -716547.01449   -544321.00947  20374155.3364   20374160.9874
       240.0004        209.0004
  23355920.9144   -1833873.63249  -1373874.07946  23355920.2934   23355926.8104
       221.0004        163.0004
  24006279.3594    1150688.29449    893184.28745  24006279.4694   24006287.2754
       207.0004        141.0004
  22262326.6744     919593.55349    713927.48846  22262326.8124   22262333.6114
       229.0004        182.0004
  22786773.7704   -1150603.62249   -877478.33246  22786773.8154   22786780.7194
       217.0004        163.0004
  20643156.6144    -990597.93049   -748802.36147  20643156.0804   20643162.7094
       240.0004        209.0004
  23055112.1314   -1590167.67549  -1200967.29145  23055112.2884   23055120.0234
       217.0004        158.0004
  22133508.7844   -1128480.18349   -861043.59746  22133508.5714   22133513.4524
       233.0004        187.0004
  22154346.1804     875667.58049    680226.25046  22154345.4664   22154352.3234
       225.0004        179.0004
  21012169.8964      67680.33649     59704.42747  21012169.5984   21012176.3174
       241.0004        205.0004
  24032500.9544    1188703.82349    917126.80345  24032501.8654   24032506.3824
       204.0004        143.0004
 07  2 17 19 54 10.0000000  0 11G 6G18G 5G30G29G 7G26G21G10G24G12
  20373514.8534    -719913.41449   -546944.17347  20373514.6494   20373520.4324
       240.0004        209.0004
  23352859.9414   -1849959.06649  -1386408.16246  23352859.6524   23352865.0574
       220.0004        163.0004
  24009625.3294    1168271.47849    906885.46045  24009624.9134   24009633.0384
       206.0004        141.0004
  22265162.8434     934497.69549    725541.09746  22265163.2684   22265169.1854
       229.0004        182.0004
  22785213.5764   -1158802.45249   -883867.02746  22785213.5754   22785220.8774
       215.0004        163.0004
  20641831.6424    -997560.78849   -754227.96447  20641830.9984   20641837.5194
       240.0004        209.0004
  23052485.5064   -1603970.62349  -1211722.82945  23052485.4164   23052493.1564
       215.0004        158.0004
  22131931.9194   -1136766.73149   -867500.63646  22131931.0334   22131936.5824
       233.0004        187.0004
  22157096.4184     890120.27649    691488.08346  22157094.8924   22157103.1164
       226.0004        179.0004
  21013156.4154      72864.47149     63744.01147  21013156.0654   21013162.9294
       241.0004        205.0004
  24035906.6284    1206600.65049    931072.36145  24035906.4884   24035912.3734
       204.0004        143.0004
 07  2 17 19 54 15.0000000  0 11G 6G18G 5G30G29G 7G26G21G10G24G12
  20372876.3134    -723269.04849   -549558.95547  20372876.0614   20372882.0164
       240.0004        209.0004
  23349800.1104   -1866038.46349  -1398937.54346  23349799.3404   23349805.6704
       219.0004        163.0004
  24012971.3744    1185854.94249    920586.84945  24012970.5664   24012980.0834
       207.0004        141.0004
  22268000.4874     949409.58049    737160.73946  22268000.6844   22268007.2994
       229.0004        182.0004
  22783655.5794   -1166989.56449   -890246.58746  22783655.6434   22783662.7674
       217.0004        163.0004
  20640508.3814   -1004514.51449   -759646.45047  20640507.5644   20640514.0404
       240.0004        209.0004
  23049860.4374   -1617765.30049  -1222471.92545  23049860.7334   23049868.0914
       217.0004        158.0004
  22130355.7984   -1145049.32749   -873954.60646  22130355.1144   22130360.3964
       233.0004        187.0004
  22159848.4344     904582.18949    702757.09546  22159848.2164   22159854.6594
       226.0004        179.0004
  21014143.7514      78052.95349     67786.98047  21014143.4914   21014150.0684
       241.0004        205.0004
  24039312.4214    1224498.32749    945018.58745  24039312.2804   24039318.5474
       205.0004        143.0004
 07  2 17 19 54 20.0000000  0 11G 6G18G 5G30G29G 7G26G21G10G24G12
  20372239.7784    -726614.05049   -552165.44947  20372239.5124   20372245.3514
       240.0004        209.0004
  23346741.3864   -1882111.98849  -1411462.35546  23346740.7984   23346746.7464
       222.0004        163.0004
  24016317.4174    1203438.40749    934288.23945  24016316.7904   24016325.2694
       206.0004        141.0004
  22270839.5904     964329.02049    748786.27146  22270840.2884   22270846.0474
       228.0004        182.0004
  22782099.8254   -1175165.14649   -896617.16946  22782099.6314   22782107.1674
       216.0004        164.0004
  20639186.8284   -1011459.29149   -765057.96547  20639186.2594   20639192.4874
       239.0004        209.0004
  23047236.9044   -1631551.94949  -1233214.75945  23047237.2204   23047243.8904
       217.0004        159.0004
  22128780.3634   -1153328.19249   -880405.66546  22128779.9444   22128785.1724
       233.0004        187.0004
  22162602.1854     919053.09849    714033.12646  22162601.7804   22162607.9144
       226.0004        179.0004
  21015131.8714      83245.57249     71833.17847  21015131.6674   21015138.4014
       241.0004        205.0004
  24042718.3754    1242396.69949    958965.34845  24042718.5524   24042725.4434
       203.0004        142.0004
 07  2 17 19 54 25.0000000  0 11G 6G18G 5G30G29G 7G26G21G10G24G12
  20371605.2584    -729948.46449   -554763.69347  20371605.0914   20371610.7024
       240.0004        209.0004
  23343683.7844   -1898179.66049  -1423982.60246  23343683.0354   23343689.3544
       221.0004        163.0004
  24019663.4584    1221021.87749    947989.63545  24019663.4634   24019671.6254
       208.0004        141.0004
  22273680.1214     979255.98749    760417.65846  22273680.9124   22273686.9644
       230.0004        182.0004
  22780546.2414   -1183329.13649   -902978.71446  22780546.1364   22780553.8974
       216.0004        164.0004
  20637866.9814   -1018395.15149   -770462.53147  20637866.4524   20637872.8534
       240.0004        209.0004
  23044614.8884   -1645330.47849  -1243951.27945  23044615.1754   23044621.8744
       218.0004        159.0004
  22127205.6634   -1161603.29949   -886853.79746  22127205.1054   22127210.3124
       233.0004        187.0004
  22165357.6204     933532.99749    725316.14646  22165356.6034   22165363.9514
       227.0004        179.0004
  21016120.7784      88442.32449     75882.59147  21016120.6824   21016127.3394
       241.0004        205.0004
  24046124.4164    1260295.77649    972912.66445  24046124.6444   24046131.5644
       204.0004        142.0004
 07  2 17 19 54 30.0000000  0 11G 6G18G 5G30G29G 7G26G21G10G24G12
  20370972.8004    -733272.03249   -557353.48547  20370972.7394   20370978.3764
       240.0004        209.0004
  23340627.3254   -1914241.37249  -1436498.20646  23340626.3214   23340633.1774
       220.0004        163.0004
  24023009.5254    1238605.57549    961691.21045  24023009.2074   24023017.8104
       207.0004        141.0004
  22276522.1014     994190.63249    772055.04446  22276522.4944   22276528.6044
       230.0004        182.0004
  22778994.9244   -1191481.37949   -909331.11246  22778995.5204   22779002.0024
       217.0004        164.0004
  20636548.8614   -1025321.83049   -775859.94047  20636548.2954   20636554.7164
       240.0004        209.0004
  23041994.4554   -1659100.75849  -1254681.36645  23041994.6894   23042001.2494
       217.0004        159.0004
  22125631.7294   -1169874.44849   -893298.83946  22125631.2544   22125636.4004
       233.0004        187.0004
  22168114.8244     948022.07249    736606.33246  22168114.3644   22168120.2644
       228.0004        179.0004
  21017110.5254      93643.41549     79935.39347  21017110.2374   21017116.8604
       241.0004        205.0004
  24049530.6404    1278195.66949    986860.62045  24049530.5264   24049537.9964
       204.0004        142.0004
 07  2 17 19 54 35.0000000  0 11G 6G18G 5G30G29G 7G26G21G10G24G12
  20370342.3424    -736585.15249   -559935.14047  20370342.0064   20370347.9154
       241.0004        209.0004
  23337571.9554   -1930297.40649  -1449009.38946  23337570.7164   23337577.8594
       221.0004        163.0004
  24026355.5964    1256189.09949    975392.64845  24026355.4904   24026363.9194
       206.0004        141.0004
  22279365.4814    1009132.62449    783698.14046  22279365.5764   22279371.5944
       230.0004        182.0004
  22777445.7944   -1199622.17449   -915674.58846  22777446.2224   22777453.1034
       217.0004        164.0004
  20635232.4334   -1032239.72349   -781250.50747  20635231.9664   20635238.4584
       239.0004        208.0004
  23039375.5624   -1672863.11349  -1265405.28545  23039375.6424   23039383.0714
       219.0004        159.0004
  22124058.4574   -1178142.02949   -899741.10446  22124058.0034   22124063.3244
       234.0004        187.0004
  22170873.7234     962519.94849    747903.36846  22170873.9234   22170880.4544
       227.0004        179.0004
  21018101.0154      98848.45849     83991.26547  21018100.6624   21018107.3804
       241.0004        205.0004
  24052936.9374    1296096.05749   1000808.95345  24052936.5294   24052943.9654
       205.0004        142.0004
 07  2 17 19 54 40.0000000  0 11G 6G18G 5G30G29G 7G26G21G10G24G12
  20369713.9704    -739887.29149   -562508.23047  20369713.7314   20369719.3854
       241.0004        209.0004
  23334517.7504   -1946347.25349  -1461515.74246  23334517.6304   23334523.2324
       221.0004        164.0004
  24029701.7184    1273772.93349    989094.32445  24029701.5644   24029710.0224
       205.0004        141.0004
  22282210.3394    1024082.41349    795347.32646  22282210.6074   22282216.6674
       230.0004        182.0004
  22775898.9244   -1207751.08449   -922008.79246  22775899.0534   22775905.9994
       217.0004        164.0004
  20633917.7534   -1039148.34849   -786633.84747  20633917.1064   20633923.7974
       240.0004        208.0004
  23036758.2864   -1686617.00249  -1276122.59145  23036758.8444   23036766.0584
       218.0004        159.0004
  22122485.9564   -1186405.56349   -906180.21346  22122485.4124   22122490.8514
       233.0004        187.0004
  22173634.3594     977027.07549    759207.61646  22173633.9634   22173640.8654
       228.0004        179.0004
  21019092.3784     104057.91849     88050.58447  21019092.1954   21019099.0234
       241.0004        205.0004
  24056343.4674    1313997.40149   1014758.03745  24056343.9704   24056351.0544
       207.0004        142.0004
 07  2 17 19 54 45.0000000  0 11G 6G18G 5G30G29G 7G26G21G10G24G12
  20369087.5454    -743179.15649   -565073.31947  20369087.2244   20369093.2354
       240.0004        209.0004
  23331464.6304   -1962391.55349  -1474017.79046  23331465.1434   23331470.4124
       222.0004        164.0004
  24033047.7434    1291356.30449   1002795.63845  24033047.9074   24033056.0754
       207.0004        140.0004
  22285056.5644    1039039.27649    807002.01746  22285056.9264   22285062.8274
       230.0004        182.0004
  22774354.1804   -1215868.77549   -928334.26546  22774354.1034   22774361.4954
       216.0004        164.0004
  20632604.6994   -1046048.37349   -792010.49147  20632603.9854   20632610.6254
       240.0004        208.0004
  23034142.5244   -1700363.21249  -1286833.92545  23034142.5254   23034149.5044
       219.0004        159.0004
  22120914.1134   -1194665.72549   -912616.70246  22120913.6904   22120918.7344
       233.0004        187.0004
  22176396.6154     991542.74849    770518.52946  22176396.5504   22176402.9374
       227.0004        179.0004
  21020084.4144     109271.09649     92112.79947  21020084.2094   21020090.8184
       241.0004        205.0004
  24059750.0064    1331898.94549   1028707.27345  24059750.8114   24059758.3804
       207.0004        143.0004
 07  2 17 19 54 50.0000000  0 11G 6G18G 5G30G29G 7G26G21G10G24G12
  20368463.2554    -746459.86549   -567629.71447  20368462.9374   20368468.7004
       241.0004        209.0004
  23328412.7544   -1978429.42549  -1486514.81446  23328412.4164   23328419.1474
       222.0004        164.0004
  24036393.8734    1308940.13849   1016497.31145  24036394.2804   24036402.5484
       206.0004        140.0004
  22287904.3164    1054004.17049    818662.97046  22287904.5054   22287910.6784
       230.0004        182.0004
  22772811.7444   -1223974.36549   -934650.29946  22772812.0004   22772819.9594
       217.0004        164.0004
  20631293.4824   -1052938.93149   -797379.75447  20631292.9334   20631299.7424
       239.0004        208.0004
  23031528.3824   -1714100.82149  -1297538.55045  23031528.7544   23031535.4534
       218.0004        159.0004
  22119343.0564   -1202921.64549   -919049.88346  22119342.4484   22119347.6814
       233.0004        187.0004
  22179160.6734    1006067.86249    781836.79546  22179160.3374   22179166.9644
       227.0004        180.0004
  21021077.3294     114488.89649     96178.62047  21021077.0614   21021083.6124
       241.0004        205.0004
  24063156.7994    1349801.61449   1042657.39245  24063157.4134   24063165.1174
       208.0004        142.0004
 07  2 17 19 54 55.0000000  0 11G 6G18G 5G30G29G 7G26G21G10G24G12
  20367840.9324    -749730.09449   -570177.94347  20367840.6274   20367846.4564
       240.0004        209.0004
  23325361.9644   -1994461.53549  -1499007.35546  23325360.8294   23325366.9704
       221.0004        164.0004
  24039739.9534    1326523.73749   1030198.80245  24039740.0244   24039748.4904
       207.0004        140.0004
  22290753.4244    1068976.35149    830329.59646  22290753.7624   22290760.0204
       230.0004        182.0004
  22771271.5174   -1232068.45949   -940957.38046  22771272.1164   22771278.9994
       217.0004        164.0004
  20629983.9294   -1059820.62549   -802742.11647  20629983.3804   20629989.9874
       239.0004        208.0004
  23028915.7764   -1727830.37949  -1308236.90245  23028916.0034   23028922.7444
       218.0004        160.0004
  22117772.7144   -1211173.97949   -925480.26246  22117772.1054   22117777.5644
       232.0004        187.0004
  22181926.4254    1020601.72349    793161.87446  22181925.9824   22181932.1984
       227.0004        180.0004
  21022071.0194     119710.64449    100247.51247  21022070.8134   21022077.5604
       241.0004        205.0004
  24066563.6394    1367704.68449   1056607.81645  24066563.8954   24066572.0624
       206.0004        143.0004
 07  2 17 19 55  0.0000000  0 11G 6G18G 5G30G29G 7G26G21G10G24G12
  20367220.7054    -752989.43449   -572717.68547  20367220.4774   20367226.4124
       241.0004        209.0004
  23322312.3544   -2010487.51949  -1511495.11346  23322312.1794   23322318.2334
       222.0004        165.0004
  24043086.0834    1344107.51249   1043900.43545  24043085.4384   24043094.3474
       206.0004        139.0004
  22293604.0104    1083956.12149    842002.14046  22293604.3394   22293610.4554
       229.0004        182.0004
  22769733.5134   -1240150.72149   -947255.24346  22769733.6414   22769740.7544
       218.0004        165.0004
  20628676.1264   -1066693.16349   -808097.33647  20628675.4754   20628682.1404
       240.0004        209.0004
  23026304.7764   -1741551.57849  -1318928.73845  23026305.0514   23026311.5674
       218.0004        160.0004
  22116203.0724   -1219422.40149   -931907.60246  22116202.6914   22116207.6394
       234.0004        187.0004
  22184693.8934    1035144.68849    804494.04746  22184693.1574   22184700.3724
       228.0004        180.0004
  21023065.5174     124936.70749    104319.76847  21023065.0154   21023071.8644
       241.0004        205.0004
  24069970.6584    1385608.47349   1070558.80345  24069971.2164   24069977.9124
       206.0004        143.0004
 07  2 17 19 55  5.0000000  0 11G 6G18G 5G30G29G 7G26G21G10G24G12
  20366602.4714    -756238.28449   -575249.25847  20366602.2454   20366608.1124
       240.0004        209.0004
  23319263.8144   -2026507.70049  -1523978.36646  23319263.0804   23319268.6724
       222.0004        165.0004
  24046432.1164    1361691.00649   1057601.84445  24046432.2614   24046440.6094
       205.0004        140.0004
  22296455.9474    1098943.11649    853680.30946  22296456.7144   22296462.4254
       229.0004        182.0004
  22768197.7254   -1248221.49549   -953544.15646  22768197.6854   22768204.9274
       217.0004        165.0004
  20627369.9964   -1073556.79649   -813445.62047  20627369.4294   20627375.9904
       240.0004        209.0004
  23023695.2564   -1755264.75549  -1329614.32945  23023694.6384   23023702.5614
       219.0004        160.0004
  22114634.1364   -1227667.23949   -938332.14746  22114633.3384   22114638.7014
       233.0004        187.0004
  22187463.0414    1049696.38049    815833.02246  22187462.8794   22187469.2164
       227.0004        180.0004
  21024060.7474     130166.67749    108395.07147  21024060.4464   21024066.9914
       242.0004        205.0004
  24073377.7174    1403512.70249   1084510.13145  24073379.0764   24073384.6194
       206.0004        143.0004
 07  2 17 19 55 10.0000000  0 11G 6G18G 5G30G29G 7G26G21G10G24G12
  20365986.2534    -759476.46949   -577772.51247  20365986.1714   20365991.8234
       240.0004        209.0004
  23316216.4164   -2042521.89049  -1536456.93446  23316215.8404   23316221.9984
       223.0004        165.0004
  24049778.1544    1379274.35649   1071303.14145  24049777.3764   24049786.8494
       204.0004        140.0004
  22299309.2644    1113937.40749    865364.16846  22299309.7494   22299316.2554
       230.0004        182.0004
  22766664.1314   -1256280.65649   -959824.01646  22766664.8464   22766671.1134
       217.0004        165.0004
  20626065.6054   -1080411.47549   -818786.92647  20626065.1824   20626071.7514
       240.0004        209.0004
  23021087.3184   -1768969.73849  -1340293.53445  23021087.1934   23021095.0424
       218.0004        160.0004
  22113065.8874   -1235908.40149   -944753.82646  22113064.9144   22113070.1024
       233.0004        187.0004
  22190233.8404    1064256.89149    827178.86946  22190234.0414   22190240.0534
       227.0004        180.0004
  21025056.7414     135400.67049    112473.50847  21025056.5664   21025063.3184
       241.0004        205.0004
  24076784.9014    1421417.41249   1098461.83145  24076786.0084   24076792.0184
       206.0004        143.0004
 07  2 17 19 55 15.0000000  0 11G 6G18G 5G30G29G 7G26G21G10G24G12
  20365372.1284    -762703.70649   -580287.24647  20365371.9864   20365377.8854
       240.0004        209.0004
  23313170.1944   -2058529.89549  -1548930.70246  23313169.5594   23313175.7724
       223.0004        165.0004
  24053124.2064    1396857.88449   1085004.58045  24053123.6594   24053132.7584
       204.0004        140.0004
  22302164.0674    1128939.41849    877054.03446  22302164.1934   22302170.2014
       231.0004        182.0004
  22765132.8294   -1264327.83949   -966094.53846  22765132.6374   22765140.2084
       218.0004        165.0004
  20624762.9614   -1087256.86449   -824120.99847  20624762.6144   20624769.2174
       240.0004        209.0004
  23018480.9904   -1782666.18949  -1350966.09645  23018481.6074   23018488.5384
       218.0004        160.0004
  22111498.4064   -1244145.55649   -951172.38246  22111498.0184   22111502.8814
       233.0004        187.0004
  22193006.3794    1078826.54649    838531.83646  22193006.5214   22193012.4824
       227.0004        180.0004
  21026053.5624     140639.04649    116555.35547  21026053.2564   21026059.8084
       240.0004        205.0004
  24080192.2324    1439322.97649   1112414.19945  24080192.6994   24080199.8784
       207.0004        143.0004
 07  2 17 19 55 20.0000000  0 11G 6G18G 5G30G29G 7G26G21G10G24G12
  20364760.0224    -765920.39149   -582793.75147  20364759.6904   20364765.5274
       240.0004        209.0004
  23310125.0874   -2074532.09749  -1561399.93546  23310124.2374   23310131.0994
       222.0004        165.0004
  24056470.1694    1414441.10449   1098705.78045  24056469.4034   24056478.9494
       204.0004        140.0004
  22305020.2194    1143948.64849    888749.53046  22305020.6464   22305026.7934
       230.0004        182.0004
  22763603.7324   -1272363.48349   -972356.07146  22763603.5154   22763610.9124
       216.0004        165.0004
  20623462.0314   -1094093.33749   -829448.11447  20623461.6054   20623468.1524
       239.0004        209.0004
  23015876.1824   -1796354.53149  -1361632.33245  23015876.7104   23015883.1794
       218.0004        160.0004
  22109931.6044   -1252379.11049   -957588.13646  22109930.3144   22109935.8704
       233.0004        187.0004
  22195780.5864    1093404.90249    849891.59346  22195780.1714   22195786.2704
       228.0004        180.0004
  21027051.1504     145881.37249    120640.28747  21027050.7864   21027057.5484
       241.0004        205.0004
  24083599.6444    1457228.92949   1126366.87045  24083600.0514   24083607.3754
       206.0004        143.0004
 07  2 17 19 55 25.0000000  0 11G 6G18G 5G30G29G 7G26G21G10G24G12
  20364150.0024    -769126.05049   -585291.67047  20364149.8524   20364155.4554
       240.0004        209.0004
  23307081.1324   -2090528.10149  -1573864.34746  23307079.8444   23307086.5824
       222.0004        165.0004
  24059816.1604    1432024.52749   1112407.12945  24059815.3864   24059825.2664
       205.0004        140.0004
  22307877.8684    1158965.50949    900450.97346  22307878.5074   22307884.4674
       230.0004        182.0004
  22762076.8884   -1280387.15749   -978608.28546  22762076.8824   22762084.2564
       216.0004        165.0004
  20622162.8704   -1100920.47049   -834767.96547  20622162.4244   20622168.8624
       240.0004        209.0004
  23013273.0224   -1810034.30149  -1372291.89445  23013273.4324   23013280.3264
       219.0004        160.0004
  22108365.5984   -1260608.61449   -964000.74046  22108364.6184   22108370.3144
       233.0004        187.0004
  22198556.5274    1107992.37649    861258.44646  22198556.6394   22198562.6534
       228.0004        180.0004
  21028049.5744     151128.06649    124728.61647  21028049.2744   21028055.8824
       241.0004        205.0004
  24087007.2104    1475135.69849   1140320.17945  24087007.9114   24087014.5784
       207.0004        143.0004
 07  2 17 19 55 30.0000000  0 11G 6G18G 5G30G29G 7G26G21G10G24G12
  20363541.9664    -772321.30049   -587781.47547  20363541.7234   20363547.3954
       240.0004        209.0004
  23304038.2874   -2106518.39449  -1586324.30646  23304037.6704   23304042.8274
       223.0004        165.0004
  24063162.1204    1449607.55549   1126108.17545  24063161.5204   24063171.1954
       203.0004        140.0004
  22310736.8254    1173989.47949    912157.95846  22310737.1484   22310743.5534
       230.0004        182.0004
  22760552.2314   -1288399.33249   -984851.53646  22760551.6284   22760559.4184
       216.0004        165.0004
  20620865.3864   -1107738.79549   -840080.94047  20620864.9824   20620871.3974
       240.0004        209.0004
  23010671.3634   -1823706.07949  -1382945.22645  23010671.4144   23010678.8374
       218.0004        161.0004
  22106800.2214   -1268834.66249   -970410.64346  22106799.3114   22106804.2714
       233.0004        187.0004
  22201334.1044    1122588.44049    872631.99346  22201334.1864   22201340.2644
       228.0004        180.0004
  21029048.7384     156378.61349    128819.95147  21029048.3934   21029054.9884
       240.0004        205.0004
  24090414.8534    1493042.75549   1154273.71545  24090415.6824   24090421.9794
       206.0004        143.0004
 07  2 17 19 55 35.0000000  0 11G 6G18G 5G30G29G 7G26G21G10G24G12
  20362936.0594    -775505.44949   -590262.63147  20362935.9934   20362941.5074
       240.0004        209.0004
  23300996.6094   -2122502.36849  -1598779.33846  23300996.4564   23301002.3794
       222.0004        165.0004
  24066508.1004    1467190.80549   1139809.39545  24066507.3244   24066516.4214
       204.0004        139.0004
  22313597.2694    1189021.17349    923870.95346  22313597.8284   22313603.5434
       230.0004        182.0004
  22759029.8534   -1296399.42649   -991085.36546  22759029.4924   22759037.0484
       216.0004        165.0004
  20619569.7064   -1114547.71249   -845386.59347  20619569.3694   20619575.9594
       240.0004        209.0004
  23008071.3454   -1837369.16449  -1393591.78645  23008071.7934   23008079.1644
       218.0004        161.0004
  22105235.6464   -1277056.62649   -976817.36846  22105234.6944   22105240.1534
       233.0004        187.0004
  22204113.4264    1137193.68549    884012.69346  22204113.0824   22204119.4714
       229.0004        180.0004
  21030048.7044     161633.61949    132914.75847  21030048.4704   21030055.2484
       240.0004        205.0004
  24093822.6304    1510950.69649   1168227.93545  24093823.8134   24093829.6294
       207.0004        143.0004
 07  2 17 19 55 40.0000000  0 11G 6G18G 5G30G29G 7G26G21G10G24G12
  20362332.1494    -778678.99649   -592735.52447  20362331.9414   20362337.6984
       240.0004        209.0004
  23297956.0704   -2138480.48449  -1611229.81946  23297955.8714   23297961.7974
       223.0004        165.0004
  24069854.0244    1484773.72149   1153510.35445  24069853.0374   24069861.7794
       206.0004        140.0004
  22316459.0954    1204060.00649    935589.51446  22316459.4074   22316466.0644
       229.0004        182.0004
  22757509.6824   -1304387.91849   -997310.16046  22757509.6944   22757517.0014
       216.0004        165.0004
  20618275.7044   -1121347.70449   -850685.28547  20618275.2554   20618281.8344
       240.0004        209.0004
  23005472.9064   -1851024.08549  -1404231.97945  23005473.2824   23005480.2334
       219.0004        161.0004
  22103671.7144   -1285274.98649   -983221.27546  22103670.8874   22103675.7484
       233.0004        187.0004
  22206894.3954    1151807.58049    895400.14146  22206894.5274   22206901.1754
       228.0004        180.0004
  21031049.4564     166892.56649    137012.63847  21031049.2984   21031055.8614
       241.0004        205.0004
  24097230.4574    1528858.94449   1182182.39745  24097230.9544   24097237.8574
       207.0004        143.0004
 07  2 17 19 55 45.0000000  0 11G 6G18G 5G30G29G 7G26G21G10G24G12
  20361730.2894    -781841.81649   -595200.05947  20361729.9884   20361735.7564
       241.0004        209.0004
  23294916.6704   -2154452.64049  -1623675.64146  23294916.3354   23294921.0974
       222.0004        164.0004
  24073199.9184    1502356.44149   1167211.16545  24073198.7814   24073207.7204
       205.0004        140.0004
  22319322.2744    1219106.11249    947313.75646  22319322.5754   22319329.0214
       230.0004        182.0004
  22755991.7544   -1312364.64649  -1003525.78746  22755991.0054   22755998.9214
       216.0004        165.0004
  20616983.4644   -1128138.61149   -855976.90147  20616983.2694   20616989.6784
       241.0004        209.0004
  23002876.0664   -1864670.67849  -1414865.68245  23002875.6714   23002883.1584
       219.0004        161.0004
  22102108.5174   -1293489.64749   -989622.30546  22102107.8894   22102113.0184
       233.0004        187.0004
  22209677.0494    1166430.21649    906794.39446  22209676.3614   22209683.4654
       228.0004        180.0004
  21032050.9824     172155.56249    141113.67647  21032050.7244   21032057.4614
       240.0004        205.0004
  24100638.3794    1546767.63949   1196137.21245  24100639.5044   24100645.6574
       207.0004        143.0004
 07  2 17 19 55 50.0000000  0 11G 6G18G 5G30G29G 7G26G21G10G24G12
  20361130.4904    -784993.73449   -597656.09847  20361130.4334   20361136.1064
       240.0004        209.0004
  23291878.4524   -2170418.58149  -1636116.62146  23291877.2194   23291884.3464
       223.0004        164.0004
  24076545.7724    1519939.10649   1180911.92945  24076544.7954   24076553.8294
       205.0004        140.0004
  22322186.8884    1234159.64149    959043.76746  22322187.2414   22322193.4414
       231.0004        182.0004
  22754476.0544   -1320329.50449  -1009732.17546  22754475.7344   22754483.1064
       217.0004        165.0004
  20615692.9484   -1134920.30249   -861261.33247  20615692.7234   20615698.9264
       240.0004        209.0004
  23000280.8424   -1878308.79849  -1425492.77845  23000281.1174   23000288.4454
       220.0004        161.0004
  22100546.0634   -1301700.42249   -996020.30546  22100545.3414   22100550.2454
       232.0004        187.0004
  22212461.3794    1181061.76849    918195.59846  22212460.8334   22212467.3004
       227.0004        180.0004
  21033053.3164     177422.76249    145217.98847  21033053.1704   21033059.8324
       241.0004        205.0004
  24104046.4114    1564676.88849   1210092.45145  24104046.7364   24104053.6454
       208.0004        142.0004
 07  2 17 19 55 55.0000000  0 11G 6G18G 5G30G29G 7G26G21G10G24G12
  20360532.7964    -788134.73949   -600103.63247  20360532.7074   20360538.2724
       240.0004        209.0004
  23288841.4354   -2186378.30649  -1648552.76046  23288840.1414   23288846.7344
       223.0004        164.0004
  24079891.6514    1537521.72949   1194612.66045  24079891.9184   24079899.8384
       204.0004        140.0004
  22325052.9024    1249220.64149    970779.59946  22325052.6284   22325059.7894
       230.0004        182.0004
  22752962.6764   -1328282.36849  -1015929.20746  22752962.4124   22752969.9064
       215.0004        165.0004
  20614404.2084   -1141692.65149   -866538.48647  20614403.7354   20614410.1924
       239.0004        209.0004
  22997687.2194   -1891938.38749  -1436113.24045  22997687.5524   22997693.8934
       218.0004        161.0004
  22098984.3414   -1309907.28649  -1002415.26446  22098983.3924   22098988.9764
       233.0004        187.0004
  22215247.4064    1195702.24449    929603.75346  22215247.0744   22215253.5194
       228.0004        180.0004
  21034056.4334     182694.22449    149325.62147  21034056.3964   21034062.9524
       241.0004        205.0004
  24107454.5814    1582586.78949   1224048.19445  24107454.5964   24107461.6154
       208.0004        142.0004
 07  2 17 19 56  0.0000000  0 11G 6G18G 5G30G29G 7G26G21G10G24G12
  20359937.1394    -791264.97949   -602542.78147  20359936.7494   20359942.5924
       241.0004        209.0004
  23285805.5304   -2202331.96049  -1660984.17746  23285804.8934   23285810.9394
       221.0004        164.0004
  24083237.5084    1555104.18549   1208313.26645  24083237.6324   24083245.8644
       206.0004        140.0004
  22327920.3254    1264288.98049    982521.16046  22327920.6224   22327926.7664
       230.0004        182.0004
  22751451.5324   -1336223.44149  -1022117.05146  22751451.5784   22751458.0864
       215.0004        165.0004
  20613117.2014   -1148455.88449   -871808.53747  20613116.6364   20613123.1834
       240.0004        209.0004
  22995095.2204   -1905559.54849  -1446727.12945  22995095.0074   22995101.6314
       221.0004        161.0004
  22097423.3354   -1318110.39949  -1008807.29446  22097422.6734   22097427.9824
       233.0004        187.0004
  22218035.0764    1210351.48949    941018.73646  22218034.3654   22218040.9564
       228.0004        180.0004
  21035060.3284     187969.76349    153436.42747  21035060.0414   21035066.7094
       241.0004        205.0004
  24110862.8534    1600497.15849   1238004.30845  24110862.9074   24110870.2424
       207.0004        143.0004
 07  2 17 19 56  5.0000000  0 11G 6G18G 5G30G29G 7G26G21G10G24G12
  20359343.5384    -794384.40049   -604973.49947  20359343.4004   20359349.1674
       240.0004        209.0004
  23282770.7824   -2218279.56749  -1673410.87846  23282770.2144   23282775.9064
       222.0004        163.0004
  24086583.3084    1572686.46049   1222013.72445  24086582.5664   24086591.6024
       204.0004        140.0004
  22330789.1404    1279364.58249    994268.37646  22330789.1264   22330795.3794
       229.0004        182.0004
  22749942.6374   -1344152.64649  -1028295.64846  22749942.0634   22749949.8484
       217.0004        164.0004
  20611831.9424   -1155209.98149   -877071.46847  20611831.5464   20611837.9374
       240.0004        209.0004
  22992504.8494   -1919172.21749  -1457334.41045  22992505.1304   22992511.7454
       218.0004        161.0004
  22095863.0614   -1326309.72849  -1015196.37846  22095862.1934   22095867.7514
       233.0004        187.0004
  22220824.4374    1225009.48849    952440.55746  22220823.7544   22220830.1954
       228.0004        180.0004
  21036065.0174     193249.38049    157550.41547  21036064.8554   21036071.2024
       241.0004        205.0004
  24114271.1924    1618407.95549   1251960.75945  24114270.7984   24114278.6714
       207.0004        142.0004
 07  2 17 19 56 10.0000000  0 11G 6G18G 5G30G29G 7G26G21G10G24G12
  20358751.9044    -797493.41749   -607396.11147  20358751.8794   20358757.3674
       240.0004        209.0004
  23279737.1224   -2234221.48449  -1685833.14046  23279736.2844   23279742.8904
       222.0004        163.0004
  24089928.9884    1590268.12149   1235713.70945  24089927.8604   24089936.3534
       206.0004        140.0004
  22333659.2174    1294447.00049   1006020.89646  22333659.3994   22333666.3914
       229.0004        182.0004
  22748435.9274   -1352070.38649  -1034465.31346  22748435.8464   22748442.4764
       217.0004        164.0004
  20610548.3714   -1161955.29849   -882327.56147  20610547.8654   20610554.4284
       240.0004        209.0004
  22989915.9914   -1932776.85649  -1467935.43145  22989916.0924   22989922.4034
       218.0004        161.0004
  22094303.4124   -1334505.66449  -1021582.82247  22094302.8224   22094308.0014
       233.0004        188.0004
  22223615.3534    1239675.85749    963868.88746  22223614.7924   22223621.0744
       228.0004        180.0004
  21037070.3804     198532.66949    161667.26447  21037070.2094   21037076.7694
       241.0004        205.0004
  24117679.5504    1636318.81449   1265917.25245  24117679.0484   24117686.2524
       208.0004        142.0004
 07  2 17 19 56 15.0000000  0 11G 6G18G 5G30G29G 7G26G21G10G24G12
  20358162.4654    -800591.02249   -609809.82547  20358162.3674   20358168.0664
       240.0004        209.0004
  23276704.7274   -2250156.65449  -1698250.14546  23276703.5534   23276710.0854
       221.0004        163.0004
  24093274.7484    1607850.17549   1249413.99145  24093273.9934   24093281.8534
       206.0004        140.0004
  22336530.8154    1309537.27049   1017779.54146  22336530.5724   22336537.7474
       229.0004        181.0004
  22746931.5944   -1359975.66949  -1040625.26646  22746931.6074   22746938.4334
       214.0004        164.0004
  20609266.6394   -1168690.83449   -887576.02847  20609266.1024   20609272.6244
       240.0004        209.0004
  22987328.8504   -1946372.38849  -1478529.34745  22987328.5844   22987336.1274
       220.0004        161.0004
  22092744.6034   -1342697.22749  -1027965.85447  22092743.6324   22092749.1224
       234.0004        188.0004
  22226408.0904    1254351.60649    975304.52446  22226407.5984   22226413.8344
       227.0004        180.0004
  21038076.6764     203820.66649    165787.78147  21038076.4034   21038083.0474
       240.0004        205.0004
  24121088.0844    1654230.71349   1279874.55345  24121087.9584   24121094.4824
       206.0004        141.0004
 07  2 17 19 56 20.0000000  0 11G 6G18G 5G30G29G 7G26G21G10G24G12
  20357575.0424    -803678.00749   -612215.27047  20357574.9544   20357580.5324
       241.0004        209.0004
  23273673.4734   -2266085.95949  -1710662.60246  23273674.0614   23273679.4854
       221.0004        163.0004
  24096620.4224    1625431.80749   1263113.94645  24096620.5774   24096627.8914
       206.0004        141.0004
  22339403.7254    1324634.54349   1029543.63546  22339404.0224   22339410.5364
       229.0004        181.0004
  22745429.4424   -1367869.29349  -1046776.16746  22745429.1074   22745436.7604
       214.0004        164.0004
  20607986.6064   -1175417.43249   -892817.53547  20607986.2284   20607992.5894
       240.0004        209.0004
  22984743.2774   -1959959.74349  -1489116.89845  22984743.2634   22984750.6124
       222.0004        162.0004
  22091186.4864   -1350885.27549  -1034346.14747  22091185.8204   22091190.8994
       234.0004        188.0004
  22229202.4134    1269035.82049    986746.76546  22229201.3344   22229208.6734
       227.0004        180.0004
  21039083.6794     209112.48249    169911.27247  21039083.4664   21039090.0124
       241.0004        205.0004
  24124496.6264    1672142.73949   1293831.96045  24124497.0184   24124503.0104
       206.0004        141.0004
 07  2 17 19 56 25.0000000  0 11G 6G18G 5G30G29G 7G26G21G10G24G12
  20356989.7054    -806754.04049   -614612.17747  20356989.5494   20356995.4894
       241.0004        209.0004
  23270643.4124   -2282009.01749  -1723070.17345  23270642.3804   23270648.4744
       223.0004        162.0004
  24099966.0774    1643013.29849   1276813.79145  24099965.3614   24099973.2864
       206.0004        141.0004
  22342278.0394    1339739.16449   1041313.46246  22342277.9534   22342284.9184
       229.0004        181.0004
  22743929.5734   -1375750.95649  -1052917.71046  22743929.2754   22743936.1094
       216.0004        164.0004
  20606708.3504   -1182134.70149   -898051.76747  20606707.8834   20606714.4244
       240.0004        209.0004
  22982159.3984   -1973538.38349  -1499697.65145  22982159.7424   22982166.0674
       222.0004        162.0004
  22089629.0864   -1359069.45849  -1040723.42847  22089628.1294   22089633.7824
       234.0004        188.0004
  22231998.4154    1283728.88049    998195.89246  22231997.9484   22232004.0894
       226.0004        180.0004
  21040091.4664     214408.50449    174038.04447  21040091.1284   21040098.0114
       241.0004        205.0004
  24127905.2834    1690055.29749   1307789.78145  24127906.1684   24127911.5904
       206.0004        141.0004
 07  2 17 19 56 30.0000000  0 11G 6G18G 5G30G29G 7G26G21G10G24G12
  20356406.4504    -809819.02749   -617000.47847  20356406.4234   20356412.1614
       241.0004        209.0004
  23267614.5614   -2297925.76449  -1735472.81545  23267614.2064   23267620.1444
       222.0004        162.0004
  24103311.7004    1660594.73749   1290513.60245  24103311.7644   24103319.6844
       205.0004        141.0004
  22345153.7784    1354851.24849   1053089.10446  22345153.1124   22345160.7484
       229.0004        181.0004
  22742432.0584   -1383620.46649  -1059049.78146  22742432.4424   22742439.1984
       217.0004        164.0004
  20605431.8914   -1188842.55049   -903278.65947  20605431.3074   20605437.9444
       240.0004        209.0004
  22979577.1344   -1987108.32949  -1510271.62945  22979577.7794   22979583.4114
       222.0004        162.0004
  22088072.4454   -1367249.64349  -1047097.59647  22088071.4864   22088077.1444
       234.0004        188.0004
  22234796.1244    1298430.89449   1009652.00246  22234795.5214   22234802.1024
       227.0004        180.0004
  21041100.1004     219708.82349    178168.16147  21041099.9304   21041106.4474
       241.0004        205.0004
  24131314.0274    1707968.47549   1321748.08045  24131314.5394   24131321.3274
       208.0004        142.0004
 07  2 17 19 56 35.0000000  0 11G 6G18G 5G30G29G 7G26G21G10G24G12
  20355825.2414    -812873.34749   -619380.47647  20355825.1854   20355830.8364
       241.0004        209.0004
  23264586.8114   -2313836.61549  -1747870.87045  23264585.4334   23264592.3094
       222.0004        162.0004
  24106657.2494    1678175.68049   1304213.02345  24106656.7894   24106665.6244
       204.0004        142.0004
  22348030.8124    1369970.31249   1064870.18346  22348031.4204   22348037.7794
       228.0004        181.0004
  22740936.7644   -1391478.26249  -1065172.73646  22740936.7474   22740944.3074
       216.0004        164.0004
  20604157.1414   -1195541.39549   -908498.54247  20604156.8294   20604163.1604
       240.0004        209.0004
  22976996.4744   -2000669.90949  -1520839.09545  22976996.7764   22977003.0844
       220.0004        162.0004
  22086516.4724   -1375426.29249  -1053469.01347  22086515.9534   22086521.1324
       234.0004        188.0004
  22237595.4414    1313141.38849   1021114.71246  22237595.0134   22237601.3974
       227.0004        180.0004
  21042109.4414     225013.01349    182301.29347  21042109.3314   21042115.7934
       241.0004        205.0004
  24134722.8274    1725881.83549   1335706.52745  24134723.8084   24134729.7434
       207.0004        142.0004
 07  2 17 19 56 40.0000000  0 11G 6G18G 5G30G29G 7G26G21G10G24G12
  20355246.0544    -815916.99349   -621752.14447  20355245.9864   20355251.9614
       240.0004        209.0004
  23261560.1774   -2329741.44549  -1760264.24345  23261559.2984   23261564.7764
       223.0004        162.0004
  24110002.7434    1695756.22249   1317912.13545  24110002.0534   24110011.4044
       204.0004        142.0004
  22350909.2154    1385096.42049   1076656.76546  22350909.2484   22350915.9314
       228.0004        181.0004
  22739443.6974   -1399324.31249  -1071286.53146  22739443.8714   22739450.1874
       216.0004        164.0004
  20602884.1304   -1202231.17949   -913711.35747  20602883.7604   20602890.0794
       240.0004        209.0004
  22974417.4064   -2014223.01549  -1531399.95845  22974417.8714   22974423.2724
       219.0004        162.0004
  22084961.1744   -1383599.35349  -1059837.62747  22084960.3304   22084965.5924
       234.0004        188.0004
  22240396.3744    1327860.40249   1032584.06846  22240395.3154   22240402.7624
       226.0004        179.0004
  21043119.5524     230321.13349    186437.49647  21043119.3924   21043125.9474
       241.0004        205.0004
  24138131.6934    1743795.43149   1349665.16145  24138132.2994   24138138.9084
       207.0004        142.0004
 07  2 17 19 56 45.0000000  0 11G 6G18G 5G30G29G 7G26G21G10G24G12
  20354668.9854    -818949.52349   -624115.15547  20354668.9164   20354674.6304
       241.0004        209.0004
  23258534.8034   -2345639.87449  -1772652.62345  23258534.5124   23258539.1534
       222.0004        162.0004
  24113348.2054    1713336.78249   1331611.26445  24113348.0374   24113356.1134
       205.0004        142.0004
  22353789.0334    1400229.97549   1088449.12946  22353789.2644   22353795.2534
       228.0004        181.0004
  22737952.9604   -1407158.09749  -1077390.78346  22737953.2734   22737959.7584
       216.0004        164.0004
  20601612.9204   -1208911.43449   -918916.75647  20601612.6704   20601618.9904
       240.0004        209.0004
  22971840.0734   -2027767.24149  -1541953.89945  22971840.5864   22971846.2974
       219.0004        162.0004
  22083406.6794   -1391768.36649  -1066203.09447  22083406.1164   22083411.2504
       234.0004        188.0004
  22243198.9884    1342588.37449   1044060.40346  22243198.3744   22243204.6744
       225.0004        179.0004
  21044130.4914     235633.60149    190577.07647  21044130.2924   21044136.9094
       241.0004        205.0004
  24141540.6604    1761709.68849   1363624.30445  24141541.0294   24141547.9314
       207.0004        142.0004
 07  2 17 19 56 50.0000000  0 11G 6G18G 5G30G29G 7G26G21G10G24G12
  20354093.9984    -821971.14849   -626469.67147  20354094.0044   20354099.4924
       241.0004        209.0004
  23255510.5894   -2361532.14149  -1785036.19845  23255509.5164   23255515.2994
       222.0004        162.0004
  24116693.6474    1730917.05149   1345310.16745  24116693.4214   24116701.3004
       205.0004        142.0004
  22356670.2294    1415370.72049   1100247.10546  22356670.0294   22356676.8754
       229.0004        180.0004
  22736464.5014   -1414979.92449  -1083485.70646  22736464.9834   22736471.9144
       216.0004        164.0004
  20600343.4784   -1215582.42149   -924114.92447  20600343.0194   20600349.5034
       240.0004        209.0004
  22969264.3124   -2041302.88549  -1552501.16445  22969264.4394   22969270.5964
       219.0004        162.0004
  22081852.8884   -1399933.57749  -1072565.59047  22081852.3224   22081857.1714
       233.0004        188.0004
  22246003.2924    1357325.02149   1055543.49346  22246002.6634   22246009.4154
       226.0004        179.0004
  21045142.2264     240950.15949    194719.84947  21045141.9414   21045148.6184
       241.0004        205.0004
  24144949.7294    1779624.28749   1377583.71245  24144950.2394   24144957.6244
       207.0004        142.0004
 07  2 17 19 56 55.0000000  0 11G 6G18G 5G30G29G 7G26G21G10G24G12
  20353521.0154    -824982.16849   -628815.91847  20353520.7414   20353526.5854
       240.0004        209.0004
  23252487.5074   -2377418.50849  -1797415.18345  23252486.2294   23252493.5474
       222.0004        162.0004
  24120038.9544    1748496.74649   1359008.62045  24120038.8954   24120047.0004
       206.0004        142.0004
  22359552.7144    1430518.34149   1112050.44146  22359553.4934   22359559.4324
       229.0004        180.0004
  22734978.2764   -1422790.04049  -1089571.50846  22734978.4624   22734985.2524
       217.0004        164.0004
  20599075.7444   -1222244.42749   -929306.09547  20599075.2874   20599081.6714
       240.0004        209.0004
  22966690.1874   -2054830.16949  -1563041.90645  22966690.9314   22966696.8574
       219.0004        162.0004
  22080299.7614   -1408095.29749  -1078925.36347  22080298.9474   22080304.0574
       233.0004        188.0004
  22248809.1604    1372070.04449   1067033.12346  22248808.3904   22248815.2964
       227.0004        179.0004
  21046154.6484     246270.52249    198865.58947  21046154.4304   21046160.9024
       241.0004        205.0004
  24148358.8054    1797538.97749   1391543.19145  24148359.3294   24148366.0604
       208.0004        142.0004
 07  2 17 19 57  0.0000000  0 11G 6G18G 5G30G29G 7G26G21G10G24G12
  20352950.2134    -827981.82949   -631153.31447  20352949.9364   20352955.7634
       240.0004        209.0004
  23249465.6884   -2393298.22449  -1809788.97445  23249465.1904   23249470.0144
       222.0004        162.0004
  24123384.3064    1766076.58249   1372707.17845  24123384.5484   24123392.5864
       204.0004        143.0004
  22362436.6404    1445673.53549   1123859.67846  22362437.1374   22362443.9834
       229.0004        180.0004
  22733494.4594   -1430587.71049  -1095647.61346  22733494.4294   22733501.5854
       216.0004        164.0004
  20597809.8424   -1228896.74249   -934489.71647  20597809.4734   20597815.5344
       240.0004        209.0004
  22964117.7344   -2068348.40749  -1573575.59745  22964117.5124   22964125.3214
       219.0004        162.0004
  22078747.4444   -1416252.79849  -1085281.85947  22078746.6824   22078751.7414
       234.0004        188.0004
  22251616.7594    1386824.15849   1078529.82046  22251616.3074   22251622.7554
       227.0004        179.0004
  21047167.9454     251595.39249    203014.83547  21047167.8194   21047174.2624
       241.0004        205.0004
  24151768.0274    1815454.42749   1405503.26145  24151768.6584   24151775.3634
       208.0004        142.0004
 07  2 17 19 57  5.0000000  0 11G 6G18G 5G30G29G 7G26G21G10G24G12
  20352381.4094    -830970.91649   -633482.47247  20352381.3204   20352386.9544
       241.0004        209.0004
  23246444.9644   -2409172.06449  -1822158.18845  23246444.3614   23246450.6514
       222.0004        162.0004
  24126729.5264    1783655.77949   1386405.24445  24126729.7834   24126737.6424
       205.0004        143.0004
  22365321.8954    1460835.52849   1135674.20246  22365322.3104   22365328.9314
       229.0004        180.0004
  22732012.8474   -1438373.72849  -1101714.63546  22732013.0654   22732019.5334
       217.0004        164.0004
  20596545.6694   -1235540.06749   -939666.33347  20596545.2484   20596551.6784
       240.0004        209.0004
  22961546.9054   -2081858.27549  -1584102.76245  22961546.9124   22961553.5584
       218.0004        162.0004
  22077195.7804   -1424406.87449  -1091635.67947  22077195.3464   22077200.4574
       234.0004        188.0004
  22254425.9624    1401586.55049   1090032.98046  22254424.8224   22254432.2864
       226.0004        179.0004
  21048181.9464     256923.98649    207166.99047  21048181.8674   21048188.1604
       241.0004        205.0004
  24155177.2584    1833369.85749   1419463.31545  24155177.9284   24155184.2784
       208.0004        142.0004
 07  2 17 19 57 10.0000000  0 11G 6G18G 5G30G29G 7G26G21G10G24G12
  20351814.7354    -833948.84749   -635802.93747  20351814.5924   20351820.2804
       241.0004        209.0004
  23243425.4934   -2425039.44749  -1834522.38545  23243424.6724   23243431.4394
       223.0004        162.0004
  24130074.7624    1801234.87749   1400103.22645  24130074.1174   24130082.9404
       204.0004        143.0004
  22368208.5144    1476004.84549   1147494.44246  22368208.5614   22368215.2594
       228.0004        180.0004
  22730533.5844   -1446147.48749  -1107772.10646  22730533.5894   22730540.2904
       217.0004        164.0004
  20595283.2824   -1242173.86849   -944835.53047  20595282.7624   20595289.3604
       240.0004        209.0004
  22958977.7734   -2095359.18449  -1594622.94345  22958977.3314   22958984.6564
       218.0004        162.0004
  22075644.8544   -1432556.93749  -1097986.37547  22075644.2794   22075649.3594
       233.0004        188.0004
  22257236.8464    1416357.81549   1101543.04346  22257236.3964   22257243.2564
       227.0004        179.0004
  21049196.7644     262256.88349    211322.49147  21049196.6344   21049202.9134
       241.0004        205.0004
  24158586.6004    1851285.88349   1433423.82945  24158587.3784   24158595.1734
       207.0004        142.0004
 07  2 17 19 57 15.0000000  0 11G 6G18G 5G30G29G 7G26G21G10G24G12
  20351250.0854    -836916.08449   -638115.07147  20351249.9034   20351255.6554
       241.0004        209.0004
  23240407.1474   -2440900.81349  -1846881.88946  23240406.0324   23240412.6914
       222.0004        163.0004
  24133419.8484    1818813.42449   1413800.78045  24133419.8614   24133427.4734
       204.0004        142.0004
  22371096.4454    1491181.05449   1159320.05046  22371096.4324   22371102.8384
       229.0004        180.0004
  22729056.5794   -1453909.42249  -1113820.36246  22729056.7214   22729063.4544
       218.0004        164.0004
  20594022.6334   -1248798.59249   -949997.65547  20594022.1354   20594028.6104
       240.0004        209.0004
  22956410.2304   -2108851.65249  -1605136.54945  22956410.2684   22956417.0284
       219.0004        162.0004
  22074094.6394   -1440703.39549  -1104334.26647  22074093.5734   22074098.9304
       234.0004        188.0004
  22260049.3274    1431137.46049   1113059.63746  22260048.4194   22260055.3714
       226.0004        179.0004
  21050212.3174     267593.63149    215480.99447  21050212.1214   21050218.4704
       241.0004        205.0004
  24161995.9744    1869202.00849   1447384.42545  24161996.2884   24162004.2264
       207.0004        142.0004
 07  2 17 19 57 20.0000000  0 11G 6G18G 5G30G29G 7G26G21G10G24G12
  20350687.5304    -839872.39449   -640418.68847  20350687.6724   20350693.0754
       241.0004        209.0004
  23237390.0114   -2456755.92849  -1859236.50746  23237389.4004   23237395.5764
       222.0004        163.0004
  24136764.9064    1836391.67749   1427498.10245  24136764.5264   24136772.7424
       206.0004        142.0004
  22373985.7644    1506364.40549   1171151.22946  22373986.6414   22373992.7454
       229.0004        180.0004
  22727581.8774   -1461659.26649  -1119859.20346  22727581.5634   22727588.3584
       218.0004        164.0004
  20592763.7864   -1255413.92049   -955152.45147  20592763.5464   20592769.8554
       240.0004        209.0004
  22953844.3704   -2122335.28749  -1615643.28545  22953844.7644   22953851.8774
       219.0004        162.0004
  22072545.1254   -1448846.03349  -1110679.17347  22072544.7254   22072549.8074
       234.0004        188.0004
  22262863.4544    1445925.72949   1124582.96746  22262862.5714   22262869.6624
       225.0004        179.0004
  21051228.6534     272934.49649    219642.71047  21051228.4784   21051234.9694
       242.0004        205.0004
  24165405.3734    1887118.45149   1461345.27245  24165405.3784   24165414.0194
       208.0004        142.0004
 07  2 17 19 57 25.0000000  0 11G 6G18G 5G30G29G 7G26G21G10G24G12
  20350127.0604    -842817.75849   -642713.77547  20350126.7904   20350132.4364
       241.0004        209.0004
  23234374.0394   -2472604.87949  -1871586.33446  23234373.3684   23234379.5934
       223.0004        163.0004
  24140109.8514    1853969.44549   1441195.05045  24140109.6404   24140117.6754
       207.0004        142.0004
  22376876.3944    1521554.68949   1182987.81246  22376876.8214   22376883.1864
       229.0004        180.0004
  22726109.4334   -1469397.13649  -1125888.70346  22726108.9224   22726116.5114
       218.0004        165.0004
  20591506.7004   -1262020.04149   -960300.07747  20591506.2174   20591512.6954
       240.0004        209.0004
  22951280.1584   -2135810.27349  -1626143.27445  22951279.7404   22951286.9154
       219.0004        162.0004
  22070996.3374   -1456984.97449  -1117021.19847  22070996.2374   22071000.5814
       235.0004        188.0004
  22265679.1904    1460722.48949   1136112.90346  22265677.7424   22265686.0894
       225.0004        178.0004
  21052245.7444     278279.33849    223807.52047  21052245.5244   21052251.8524
       241.0004        205.0004
  24168814.8384    1905035.12649   1475306.29845  24168815.4574   24168823.4014
       208.0004        142.0004
 07  2 17 19 57 30.0000000  0 11G 6G18G 5G30G29G 7G26G21G10G24G12
  20349568.7274    -845751.88449   -645000.10847  20349568.5174   20349574.1754
       241.0004        209.0004
  23231359.3614   -2488447.25149  -1883931.03546  23231358.6554   23231364.7564
       223.0004        163.0004
  24143454.7934    1871547.20749   1454891.99545  24143454.3644   24143462.6854
       207.0004        142.0004
  22379768.4484    1536752.41449   1194830.18046  22379769.4884   22379775.0644
       229.0004        180.0004
  22724639.3534   -1477122.57449  -1131908.52046  22724639.1904   22724646.3934
       216.0004        165.0004
  20590251.4484   -1268616.44149   -965440.13247  20590250.9564   20590257.4984
       240.0004        209.0004
  22948717.6884   -2149276.23349  -1636636.23245  22948717.8334   22948723.8494
       219.0004        162.0004
  22069448.3294   -1465119.80049  -1123360.02747  22069448.0494   22069452.8484
       235.0004        188.0004
  22268496.6054    1475528.16849   1147649.78246  22268495.0424   22268503.0344
       225.0004        178.0004
  21053263.6864     283628.59249    227975.76447  21053263.4394   21053269.8494
       241.0004        205.0004
  24172224.3924    1922952.39049   1489267.78945  24172224.7574   24172232.3414
       206.0004        142.0004
 07  2 17 19 57 35.0000000  0 11G 6G18G 5G30G29G 7G26G21G10G24G12
  20349012.3974    -848675.37849   -647278.15447  20349012.1924   20349018.0294
       240.0004        209.0004
  23228345.7884   -2504283.64849  -1896271.07246  23228345.2614   23228351.9194
       223.0004        164.0004
  24146799.6114    1889124.27549   1468588.40045  24146799.8084   24146807.4664
       206.0004        143.0004
  22382661.7684    1551956.89149   1206677.81946  22382661.8564   22382668.3204
       229.0004        180.0004
  22723171.5154   -1484836.21149  -1137919.14446  22723171.6164   22723178.1754
       218.0004        164.0004
  20588997.8864   -1275203.84249   -970573.16747  20588997.3744   20589003.9034
       240.0004        209.0004
  22946156.8254   -2162733.68249  -1647122.54945  22946156.8564   22946163.5824
       218.0004        162.0004
  22067900.9904   -1473251.17949  -1129696.16447  22067900.4304   22067905.3474
       234.0004        188.0004
  22271315.6084    1490342.10049   1159193.10446  22271314.4104   22271321.9004
       225.0004        178.0004
  21054282.3504     288981.58049    232146.92547  21054282.1944   21054288.5264
       241.0004        205.0004
  24175633.9194    1940869.59849   1503229.22845  24175634.4474   24175641.3604
       207.0004        142.0004
 07  2 17 19 57 40.0000000  0 11G 6G18G 5G30G29G 7G26G21G10G24G12
  20348458.1724    -851587.86649   -649547.62947  20348457.9364   20348463.8014
       240.0004        209.0004
  23225333.4454   -2520113.72549  -1908606.20446  23225333.1564   23225338.4524
       222.0004        164.0004
  24150144.3594    1906700.97449   1482284.51645  24150144.6834   24150151.8694
       207.0004        143.0004
  22385556.4764    1567168.44249   1218530.96646  22385556.8024   22385562.9614
       230.0004        179.0004
  22721705.9524   -1492537.77449  -1143920.36446  22721706.4104   22721713.2434
       217.0004        164.0004
  20587746.1464   -1281781.88649   -975698.91947  20587745.7104   20587752.0994
       240.0004        209.0004
  22943597.6624   -2176182.33649  -1657602.01445  22943597.7984   22943604.5464
       220.0004        162.0004
  22066354.3754   -1481378.74249  -1136029.32847  22066354.3114   22066358.8924
       234.0004        188.0004
  22274136.2024    1505164.60949   1170743.09446  22274135.4274   22274142.5674
       224.0004        178.0004
  21055301.7614     294338.66249    236321.27147  21055301.5184   21055307.8764
       241.0004        205.0004
  24179043.4904    1958787.05649   1517190.86245  24179044.3164   24179050.8494
       206.0004        142.0004
 07  2 17 19 57 45.0000000  0 11G 6G18G 5G30G29G 7G26G21G10G24G12
  20347906.0534    -854489.22749   -651808.42547  20347905.8084   20347911.5344
       241.0004        209.0004
  23222322.2884   -2535937.40349  -1920936.32146  23222321.7414   23222328.4824
       223.0004        164.0004
  24153489.0784    1924277.40149   1495980.42045  24153488.9584   24153497.3404
       206.0004        142.0004
  22388452.5104    1582387.19649   1230389.73146  22388453.5464   22388458.6144
       230.0004        179.0004
  22720242.7524   -1500227.05649  -1149912.00746  22720242.8834   22720249.5534
       219.0004        165.0004
  20586496.2094   -1288350.34649   -980817.19547  20586495.7564   20586502.4424
       241.0004        209.0004
  22941040.1664   -2189622.01949  -1668074.50145  22941039.4594   22941046.6994
       218.0004        162.0004
  22064808.5214   -1489502.36149  -1142359.41947  22064808.3414   22064812.4034
       235.0004        188.0004
  22276958.4534    1519995.80849   1182299.86446  22276957.4634   22276964.9234
       225.0004        178.0004
  21056321.9894     299699.94049    240498.89247  21056321.6524   21056328.2064
       241.0004        205.0004
  24182453.1804    1976704.87849   1531152.78345  24182453.3164   24182460.5644
       207.0004        142.0004
 07  2 17 19 57 50.0000000  0 11G 6G18G 5G30G29G 7G26G21G10G24G12
  20347356.0474    -857379.54249   -654060.61547  20347355.8694   20347361.7854
       241.0004        209.0004
  23219312.3714   -2551754.76349  -1933261.53446  23219311.4954   23219318.4954
       223.0004        164.0004
  24156833.7114    1941853.46849   1509676.04445  24156833.7124   24156841.6984
       205.0004        142.0004
  22391349.9034    1597612.99849   1242253.98146  22391349.8414   22391356.0794
       229.0004        179.0004
  22718781.8754   -1507904.19349  -1155894.18846  22718782.2944   22718788.6884
       218.0004        164.0004
  20585248.0624   -1294909.45049   -985928.18347  20585247.5404   20585254.1264
       240.0004        209.0004
  22938484.3814   -2203052.82649  -1678540.05745  22938484.2684   22938490.4354
       219.0004        162.0004
  22063263.3624   -1497622.20649  -1148686.56647  22063262.9114   22063267.5874
       235.0004        188.0004
  22279782.3444    1534835.53249   1193863.28446  22279781.5684   22279789.4384
       224.0004        178.0004
  21057342.9964     305065.29349    244679.68747  21057342.5354   21057349.4094
       241.0004        205.0004
  24185862.8624    1994622.94749   1545114.89345  24185862.5264   24185870.6014
       206.0004        142.0004
 07  2 17 19 57 55.0000000  0 11G 6G18G 5G30G29G 7G26G21G10G24G12
  20346808.0644    -860259.09849   -656304.42547  20346807.8484   20346813.6204
       240.0004        209.0004
  23216303.5644   -2567566.03349  -1945581.99846  23216303.3484   23216308.3544
       222.0004        164.0004
  24160178.2174    1959428.91549   1523371.18045  24160177.3874   24160186.1114
       204.0004        142.0004
  22394248.5924    1612845.52549   1254123.47646  22394249.2844   22394255.0634
       228.0004        179.0004
  22717323.2594   -1515569.40749  -1161867.07946  22717323.1744   22717330.0174
       218.0004        164.0004
  20584001.6424   -1301459.36549   -991032.01647  20584001.0334   20584007.4554
       240.0004        209.0004
  22935930.2584   -2216474.96349  -1688998.86445  22935930.0064   22935936.8554
       219.0004        162.0004
  22061718.9134   -1505738.43749  -1155010.89747  22061718.8304   22061723.2604
       235.0004        189.0004
  22282607.8054    1549683.58649   1205433.18346  22282606.0334   22282614.0404
       225.0004        177.0004
  21058364.7344     310434.49849    248863.48047  21058364.4984   21058370.9104
       241.0004        205.0004
  24189272.5914    2012541.03749   1559077.01745  24189272.6654   24189280.9704
       208.0004        142.0004
 07  2 17 19 58  0.0000000  0 11G 6G18G 5G30G29G 7G26G21G10G24G12
  20346262.2044    -863127.58749   -658539.61447  20346261.8364   20346267.7674
       240.0004        209.0004
  23213295.9804   -2583370.94449  -1957897.50746  23213295.7704   23213302.1454
       223.0004        164.0004
  24163522.6654    1977003.95249   1537065.99745  24163522.1124   24163530.3464
       203.0004        142.0004
  22397148.5904    1628085.11049   1265998.46646  22397148.9664   22397154.3954
       229.0004        179.0004
  22715866.9574   -1523222.39949  -1167830.44746  22715867.0524   22715873.5964
       219.0004        164.0004
  20582757.0384   -1307999.83349   -996128.48447  20582756.6844   20582763.0984
       240.0004        209.0004
  22933377.7934   -2229888.16949  -1699450.71545  22933377.0034   22933383.8854
       219.0004        162.0004
  22060175.2004   -1513850.82549  -1161332.23947  22060174.7794   22060179.7084
       234.0004        189.0004
  22285434.9004    1564540.18349   1217009.74246  22285434.3354   22285441.3554
       225.0004        177.0004
  21059387.2244     315807.79049    253050.46047  21059387.1504   21059393.8124
       241.0004        205.0004
  24192682.3664    2030459.41149   1573039.37045  24192682.5344   24192690.3554
       207.0004        142.0004
 07  2 17 19 58  5.0000000  0 11G 6G18G 5G30G29G 7G26G21G10G24G12
  20345718.4624    -865985.07249   -660766.22347  20345718.1324   20345723.9474
       240.0004        209.0004
  23210289.5914   -2599169.56049  -1970208.10646  23210288.3724   23210294.5024
       223.0004        164.0004
  24166867.0244    1994578.55049   1550760.47345  24166867.2264   24166874.7364
       204.0004        142.0004
  22400049.9344    1643331.68749   1277878.91846  22400049.9984   22400055.6264
       229.0004        179.0004
  22714412.9954   -1530863.23649  -1173784.33846  22714413.2694   22714419.8674
       219.0004        164.0004
  20581514.2454   -1314530.86949  -1001217.60047  20581513.7754   20581520.2984
       240.0004        209.0004
  22930827.0514   -2243292.54049  -1709895.67845  22930826.5494   22930832.9074
       219.0004        162.0004
  22058632.2004   -1521959.43349  -1167650.62847  22058631.5074   22058636.6624
       235.0004        189.0004
  22288263.6334    1579405.30049   1228592.94646  22288262.9074   22288270.0414
       223.0004        177.0004
  21060410.5084     321185.12049    257240.59347  21060410.3114   21060416.8734
       241.0004        205.0004
  24196092.1834    2048377.97549   1587001.87145  24196092.5244   24196099.6664
       208.0004        142.0004
 07  2 17 19 58 10.0000000  0 11G 6G18G 5G30G29G 7G26G21G10G24G12
  20345176.7364    -868831.76349   -662984.42147  20345176.4074   20345182.3784
       240.0004        209.0004
  23207284.3634   -2614962.03149  -1982513.92346  23207284.1224   23207289.8474
       222.0004        164.0004
  24170211.2244    2012152.46249   1564454.40845  24170211.7714   24170219.5704
       206.0004        142.0004
  22402952.5544    1658585.01449   1289764.61646  22402953.1284   22402959.0214
       229.0004        179.0004
  22712961.2694   -1538492.11849  -1179728.91646  22712961.1644   22712967.9424
       218.0004        164.0004
  20580273.1674   -1321052.73149  -1006299.56947  20580272.5444   20580279.1774
       240.0004        209.0004
  22928277.9264   -2256688.16049  -1720333.81945  22928277.5344   22928284.5854
       219.0004        162.0004
  22057089.8854   -1530064.48349  -1173966.25147  22057089.7054   22057094.0754
       234.0004        189.0004
  22291093.9324    1594278.65149   1240182.56046  22291092.6784   22291099.9644
       224.0004        177.0004
  21061434.5034     326566.24449    261433.67447  21061434.4024   21061440.8724
       241.0004        205.0004
  24199501.9644    2066296.48949   1600964.33345  24199502.3034   24199509.8934
       207.0004        142.0004
 07  2 17 19 58 15.0000000  0 11G 6G18G 5G30G29G 7G26G21G10G24G12
  20344637.1704    -871667.11349   -665193.78947  20344637.1114   20344642.8094
       239.0004        209.0004
  23204280.4024   -2630747.84949  -1994814.55246  23204279.0924   23204285.7134
       222.0004        164.0004
  24173555.4104    2029726.20649   1578148.22145  24173555.4764   24173563.8134
       205.0004        142.0004
  22405856.5744    1673845.64649   1301656.00946  22405857.4584   22405863.1844
       229.0004        179.0004
  22711511.9594   -1546108.45449  -1185663.72046  22711511.9674   22711518.6024
       219.0004        164.0004
  20579033.9354   -1327564.85749  -1011373.95647  20579033.4424   20579039.9164
       239.0004        209.0004
  22925730.5724   -2270074.58149  -1730764.79845  22925730.5274   22925736.4884
       219.0004        162.0004
  22055548.3324   -1538165.43049  -1180278.68047  22055548.0824   22055552.8604
       234.0004        189.0004
  22293925.8864    1609160.78749   1251779.00846  22293925.2374   22293932.4594
       223.0004        177.0004
  21062459.3364     331951.76249    265630.17347  21062459.0934   21062465.5174
       241.0004        205.0004
  24202911.8904    2084215.50049   1614927.17545  24202912.9224   24202920.1424
       206.0004        142.0004
 07  2 17 19 58 20.0000000  0 11G 6G18G 5G30G29G 7G26G21G10G24G12
  20344099.6544    -874491.85249   -667394.88147  20344099.4634   20344105.2024
       240.0004        209.0004
  23201277.5564   -2646527.71649  -2007110.55146  23201276.6404   23201283.2084
       221.0004        164.0004
  24176899.4164    2047299.11149   1591841.38445  24176899.9904   24176907.6734
       205.0004        142.0004
  22408761.8014    1689112.76349   1313552.45546  22408761.9074   22408768.0424
       229.0004        179.0004
  22710064.8804   -1553713.01849  -1191589.35746  22710064.9594   22710071.3024
       217.0004        164.0004
  20577796.4394   -1334067.96749  -1016441.31347  20577795.8984   20577802.4994
       239.0004        209.0004
  22923184.8324   -2283452.43849  -1741189.10045  22923184.5704   22923191.4964
       218.0004        162.0004
  22054007.3974   -1546263.01149  -1186588.47447  22054006.8794   22054012.1394
       234.0004        189.0004
  22296759.3824    1624050.95149   1263381.73946  22296757.5864   22296765.9494
       224.0004        177.0004
  21063484.8464     337340.91049    269829.51647  21063484.5334   21063491.3114
       241.0004        205.0004
  24206321.7354    2102134.28349   1628889.84445  24206322.6724   24206329.9654
       206.0004        142.0004
 07  2 17 19 58 25.0000000  0 11G 6G18G 5G30G29G 7G26G21G10G24G12
  20343564.2724    -877305.28349   -669587.16347  20343564.0644   20343569.8404
       240.0004        209.0004
  23198276.0044   -2662300.94149  -2019401.36546  23198275.0584   23198281.8794
       221.0004        164.0004
  24180243.3874    2064871.81649   1605534.38445  24180243.6364   24180251.4364
       205.0004        142.0004
  22411668.4204    1704387.09049   1325454.52946  22411668.4254   22411675.2394
       228.0004        178.0004
  22708620.1854   -1561305.04249  -1197505.20546  22708619.7204   22708627.0984
       218.0004        164.0004
  20576560.7734   -1340561.32149  -1021501.06747  20576560.2744   20576566.8004
       239.0004        209.0004
  22920640.8594   -2296821.05949  -1751606.20045  22920639.9914   22920647.4044
       218.0004        162.0004
  22052467.2574   -1554356.50749  -1192895.08647  22052466.6054   22052471.7494
       234.0004        189.0004
  22299594.5224    1638949.84749   1274991.25646  22299593.1434   22299600.4524
       224.0004        177.0004
  21064511.1974     342734.39949    274032.23647  21064510.9034   21064517.5564
       241.0004        205.0004
  24209731.6914    2120053.51849   1642852.86145  24209732.2714   24209739.7434
       207.0004        142.0004
 07  2 17 19 58 30.0000000  0 11G 6G18G 5G30G29G 7G26G21G10G24G12
  20343030.9514    -880107.78949   -671770.93747  20343030.8234   20343036.4984
       240.0004        209.0004
  23195275.6384   -2678067.94649  -2031687.34746  23195274.2264   23195281.8494
       221.0004        164.0004
  24183587.2604    2082443.86049   1619226.87545  24183586.5614   24183594.9544
       205.0004        142.0004
  22414576.3404    1719668.22449   1337361.89546  22414576.7114   22414582.1734
       228.0004        178.0004
  22707177.7964   -1568884.97449  -1203411.64646  22707177.7184   22707184.3654
       217.0004        164.0004
  20575326.8934   -1347045.35949  -1026553.56847  20575326.4184   20575332.7874
       240.0004        209.0004
  22918098.5544   -2310180.81749  -1762016.39645  22918098.4414   22918104.9384
       218.0004        162.0004
  22050927.8234   -1562446.32149  -1199198.84547  22050927.3214   22050932.0464
       235.0004        189.0004
  22302431.2544    1653857.07949   1286607.27346  22302430.1094   22302437.7794
       224.0004        177.0004
  21065538.3054     348131.80749    278238.00547  21065538.0814   21065544.6304
       241.0004        205.0004
  24213141.6324    2137972.79149   1656815.91145  24213142.6504   24213149.9864
       208.0004        142.0004
 07  2 17 19 58 35.0000000  0 11G 6G18G 5G30G29G 7G26G21G10G24G12
  20342499.7774    -882899.20449   -673946.06747  20342499.6214   20342505.2374
       240.0004        209.0004
  23192276.4714   -2693828.52249  -2043968.30046  23192275.6724   23192282.7134
       221.0004        163.0004
  24186931.0154    2100015.43649   1632918.99545  24186930.6564   24186938.7554
       204.0004        141.0004
  22417485.5474    1734956.24249   1349274.62146  22417485.9274   22417492.1854
       228.0004        178.0004
  22705737.7174   -1576452.65749  -1209308.53746  22705736.8554   22705744.6124
       219.0004        164.0004
  20574094.8344   -1353519.85449  -1031598.63047  20574094.2414   20574100.9694
       240.0004        209.0004
  22915557.9684   -2323531.54649  -1772419.56545  22915558.2394   22915564.5274
       218.0004        162.0004
  22049389.1174   -1570532.34849  -1205499.64347  22049388.8464   22049393.1754
       234.0004        189.0004
  22305269.5934    1668772.72949   1298229.84346  22305268.6944   22305276.6774
       224.0004        177.0004
  21066566.1414     353533.25149    282446.91747  21066566.0704   21066572.4094
       241.0004        205.0004
  24216551.6184    2155892.20049   1670779.06445  24216552.4304   24216560.1164
       207.0004        142.0004
 07  2 17 19 58 40.0000000  0 11G 6G18G 5G30G29G 7G26G21G10G24G12
  20341970.6694    -885679.69349   -676112.67447  20341970.4874   20341976.3394
       240.0004        209.0004
  23189278.4894   -2709582.83549  -2056244.37846  23189277.4774   23189284.0234
       221.0004        163.0004
  24190274.6814    2117586.37249   1646610.61945  24190273.9124   24190282.7174
       205.0004        141.0004
  22420396.0794    1750251.04549   1361192.65146  22420396.5224   22420402.1224
       229.0004        178.0004
  22704299.9364   -1584008.21349  -1215195.96946  22704299.5314   22704306.5434
       217.0004        164.0004
  20572864.5454   -1359985.04049  -1036636.43247  20572864.0434   20572870.5954
       240.0004        209.0004
  22913019.0754   -2336873.39549  -1782815.81245  22913019.5074   22913025.4104
       218.0004        162.0004
  22047851.1034   -1578614.70849  -1211797.58047  22047850.1914   22047855.3684
       234.0004        189.0004
  22308109.5014    1683696.66349   1309858.87946  22308108.8084   22308115.5884
       224.0004        177.0004
  21067594.7714     358938.58349    286658.86847  21067594.5084   21067601.0864
       241.0004        205.0004
  24219961.5604    2173811.59849   1684742.21245  24219962.5094   24219969.0544
       206.0004        141.0004
 07  2 17 19 58 45.0000000  0 11G 6G18G 5G30G29G 7G26G21G10G24G12
  20341443.6874    -888448.91049   -678270.50447  20341443.4824   20341449.4054
       240.0004        209.0004
  23186281.7914   -2725330.62649  -2068515.38546  23186280.7824   23186287.3734
       223.0004        163.0004
  24193618.2404    2135156.92349   1660301.93945  24193617.7674   24193625.9724
       203.0004        141.0004
  22423307.9284    1765552.89149   1373116.15746  22423308.0774   22423314.0484
       229.0004        178.0004
  22702864.5594   -1591551.32449  -1221073.72146  22702864.4544   22702870.9654
       217.0004        164.0004
  20571636.1174   -1366440.54949  -1041666.70047  20571635.7034   20571642.2294
       240.0004        209.0004
  22910481.9404   -2350206.00749  -1793204.85146  22910482.5734   22910488.1254
       219.0004        163.0004
  22046313.8184   -1586693.10849  -1218092.43447  22046313.1554   22046317.8354
       234.0004        189.0004
  22310951.0554    1698629.16349   1321494.59446  22310950.0314   22310957.4374
       223.0004        177.0004
  21068624.1674     364348.11149    290874.08647  21068623.9354   21068630.3684
       241.0004        205.0004
  24223371.5964    2191731.24849   1698705.55245  24223372.4984   24223379.3914
       206.0004        141.0004
 07  2 17 19 58 50.0000000  0 11G 6G18G 5G30G29G 7G26G21G10G24G12
  20340918.8094    -891207.19649   -680419.82147  20340918.7254   20340924.3584
       240.0004        209.0004
  23183286.2784   -2741072.13449  -2080781.48146  23183284.9864   23183292.9294
       222.0004        163.0004
  24196961.6714    2152726.80349   1673992.74145  24196961.1724   24196970.3594
       207.0004        141.0004
  22426221.0564    1780861.45549   1385044.90046  22426220.8004   22426227.4284
       228.0004        178.0004
  22701431.4444   -1599082.28049  -1226942.00046  22701430.9964   22701438.0204
       216.0004        164.0004
  20570409.4434   -1372886.71449  -1046689.68847  20570409.1924   20570415.4244
       240.0004        209.0004
  22907946.4954   -2363529.75349  -1803586.98546  22907945.7294   22907953.4114
       218.0004        163.0004
  22044777.2404   -1594767.88249  -1224384.46547  22044776.5994   22044781.7684
       235.0004        189.0004
  22313794.1904    1713569.89649   1333136.70446  22313793.2924   22313800.5854
       224.0004        177.0004
  21069654.3064     369761.49549    295092.30447  21069654.0224   21069660.4554
       241.0004        205.0004
  24226781.6144    2209650.84449   1712668.85445  24226781.9184   24226788.8424
       206.0004        141.0004
 07  2 17 19 58 55.0000000  0 11G 6G18G 5G30G29G 7G26G21G10G24G12
  20340396.0544    -893954.30449   -682560.42547  20340395.6774   20340401.6584
       240.0004        209.0004
  23180292.0214   -2756807.13249  -2093042.51946  23180291.5584   23180297.4174
       222.0004        163.0004
  24200305.0094    2170296.17449   1687683.14445  24200304.7284   24200313.5094
       205.0004        141.0004
  22429135.5194    1796176.97649   1396979.06046  22429136.0724   22429142.0674
       228.0004        177.0004
  22700000.6954   -1606600.85049  -1232800.61446  22700000.6274   22700006.2704
       218.0004        164.0004
  20569184.6064   -1379323.30249  -1051705.21347  20569184.3304   20569190.4394
       240.0004        209.0004
  22905412.8064   -2376844.28849  -1813961.95146  22905413.0234   22905419.5024
       219.0004        163.0004
  22043241.4074   -1602838.78649  -1230673.48147  22043240.8824   22043245.6444
       234.0004        189.0004
  22316638.9294    1728519.09349   1344785.41846  22316638.1734   22316646.0104
       222.0004        177.0004
  21070685.2244     375178.98749    299313.72547  21070684.8584   21070691.6164
       241.0004        205.0004
  24230191.7124    2227570.61749   1726632.29345  24230192.1774   24230199.0594
       206.0004        141.0004
 07  2 17 19 59  0.0000000  0 11G 6G18G 5G30G29G 7G26G21G10G24G12
  20339875.3554    -896690.61149   -684692.60947  20339875.0874   20339880.8614
       240.0004        209.0004
  23177298.8944   -2772535.99649  -2105298.76746  23177297.5314   23177304.1624
       222.0004        163.0004
  24203648.2274    2187864.72249   1701372.90845  24203647.8034   24203655.9404
       205.0004        141.0004
  22432051.2034    1811499.01349   1408918.30646  22432050.6844   22432058.0254
       229.0004        177.0004
  22698572.2414   -1614107.44049  -1238649.89246  22698571.6664   22698578.7144
       216.0004        164.0004
  20567961.5374   -1385750.60749  -1056713.49847  20567961.0874   20567967.5044
       240.0004        209.0004
  22902880.7954   -2390150.00749  -1824330.03646  22902880.1664   22902887.8754
       218.0004        163.0004
  22041706.2414   -1610906.18649  -1236959.75947  22041705.6754   22041710.9344
       234.0004        189.0004
  22319485.1884    1743476.33549   1356440.40546  22319484.6424   22319492.6114
       224.0004        177.0004
  21071716.8614     380600.19049    303538.04347  21071716.7744   21071723.0444
       241.0004        205.0004
  24233601.7354    2245490.15449   1740595.54545  24233602.1364   24233609.4524
       206.0004        140.0004
 07  2 17 19 59  5.0000000  0 11G 6G18G 5G30G29G 7G26G21G10G24G12
  20339356.7844    -899415.61549   -686815.98847  20339356.6264   20339362.3024
       240.0004        209.0004
  23174307.0894   -2788258.18649  -2117549.81546  23174304.9134   23174311.8514
       221.0004        163.0004
  24206991.3544    2205432.89249   1715062.37645  24206991.0594   24206999.2914
       205.0004        141.0004
  22434968.2384    1826828.05949   1420863.01546  22434968.2354   22434974.6334
       229.0004        177.0004
  22697146.1614   -1621601.47449  -1244489.39746  22697145.7334   22697152.8114
       217.0004        164.0004
  20566740.2804   -1392168.25549  -1061714.26447  20566739.8524   20566746.0854
       240.0004        209.0004
  22900350.5484   -2403446.49549  -1834690.92346  22900350.2774   22900357.1704
       219.0004        164.0004
  22040171.8144   -1618969.61549  -1243242.94747  22040170.9774   22040176.0574
       234.0004        189.0004
  22322333.0774    1758442.12149   1368102.05346  22322332.1914   22322340.0284
       224.0004        177.0004
  21072749.2894     386025.58749    307765.62447  21072749.1694   21072755.4404
       241.0004        205.0004
  24237011.7764    2263409.96149   1754559.01345  24237012.0964   24237020.4634
       205.0004        140.0004
 07  2 17 19 59 10.0000000  0 11G 6G18G 5G30G29G 7G26G21G10G24G12
  20338840.3354    -902129.63849   -688930.81147  20338840.2944   20338845.8744
       242.0004        209.0004
  23171316.4354   -2803974.01949  -2129795.91545  23171314.7234   23171322.2714
       221.0004        162.0004
  24210334.3474    2223000.33249   1728751.27945  24210333.9554   24210342.4934
       205.0004        141.0004
  22437886.5624    1842163.84749   1432812.96446  22437886.7144   22437892.9604
       228.0004        177.0004
  22695722.3914   -1629083.29149  -1250319.38246  22695722.2284   22695728.3474
       217.0004        164.0004
  20565520.8654   -1398576.44449  -1066707.65947  20565520.3574   20565526.8604
       240.0004        209.0004
  22897822.0324   -2416733.87149  -1845044.72546  22897821.5284   22897829.1534
       219.0004        164.0004
  22038638.1144   -1627029.33549  -1249523.25147  22038637.3594   22038642.3164
       234.0004        189.0004
  22325182.5304    1773416.14849   1379770.11646  22325181.6284   22325188.9584
       223.0004        177.0004
  21073782.4384     391454.91649    311996.26647  21073782.1644   21073788.7004
       241.0004        205.0004
  24240421.8504    2281329.72349   1768522.44345  24240421.9654   24240430.2384
       205.0004        140.0004
 07  2 17 19 59 15.0000000  0 11G 6G18G 5G30G29G 7G26G21G10G24G12
  20338325.9834    -904832.48249   -691036.92447  20338325.5804   20338331.5834
       242.0004        209.0004
  23168327.0254   -2819683.38949  -2142036.98245  23168326.4214   23168332.4114
       221.0004        162.0004
  24213677.2364    2240567.24749   1742439.76745  24213676.9404   24213686.6024
       203.0004        141.0004
  22440806.1784    1857506.49149   1444768.26546  22440807.2624   22440812.7114
       228.0004        177.0004
  22694300.9714   -1636552.75249  -1256139.73846  22694301.2424   22694307.3684
       217.0004        164.0004
  20564303.2474   -1404975.06349  -1071693.59447  20564302.9294   20564309.3054
       240.0004        209.0004
  22895295.2474   -2430012.13049  -1855391.40846  22895295.6574   22895302.4454
       220.0004        164.0004
  22037105.1234   -1635085.26149  -1255800.59047  22037104.1604   22037109.6314
       234.0004        188.0004
  22328033.5944    1788398.49649   1391444.66446  22328032.7454   22328040.8974
       224.0004        176.0004
  21074816.3884     396888.26849    316230.04847  21074816.0884   21074822.8254
       241.0004        205.0004
  24243831.9004    2299249.53549   1782485.91745  24243831.4454   24243840.3384
       206.0004        139.0004
 07  2 17 19 59 20.0000000  0 11G 6G18G 5G30G29G 7G26G21G10G24G12
  20337813.7174    -907524.35749   -693134.49147  20337813.5654   20337819.2864
       242.0004        209.0004
  23165338.8194   -2835386.47349  -2154273.14545  23165338.6004   23165343.5944
       222.0004        162.0004
  24217019.9974    2258133.35949   1756127.63645  24217019.4464   24217029.3104
       202.0004        142.0004
  22443727.0434    1872855.73949   1456728.71246  22443726.8814   22443733.5264
       228.0004        177.0004
  22692881.8814   -1644010.04949  -1261950.61146  22692881.7854   22692888.2894
       218.0004        164.0004
  20563087.4264   -1411364.29649  -1076672.21847  20563086.9114   20563093.4554
       241.0004        209.0004
  22892770.2084   -2443281.35949  -1865731.06646  22892770.5954   22892777.0054
       220.0004        165.0004
  22035572.7694   -1643137.60549  -1262075.14247  22035572.0414   22035576.6384
       234.0004        188.0004
  22330886.2034    1803388.96049   1403125.53546  22330885.5404   22330893.0514
       223.0004        176.0004
  21075851.0524     402325.44249    320466.80447  21075850.7024   21075857.4724
       241.0004        205.0004
  24247241.9374    2317169.19349   1796449.26345  24247242.6034   24247250.2574
       206.0004        139.0004
 07  2 17 19 59 25.0000000  0 11G 6G18G 5G30G29G 7G26G21G10G24G12
  20337303.6334    -910204.93249   -695223.25147  20337303.6184   20337309.3424
       242.0004        209.0004
  23162351.8784   -2851082.84349  -2166504.07745  23162350.5984   23162357.5864
       221.0004        162.0004
  24220362.6384    2275699.04549   1769815.16845  24220361.8324   24220370.6744
       205.0004        141.0004
  22446649.2544    1888211.99649   1468694.61646  22446649.2584   22446656.0774
       228.0004        177.0004
  22691465.2094   -1651454.76349  -1267751.67546  22691465.8654   22691471.3864
       217.0004        164.0004
  20561873.4634   -1417743.73549  -1081643.21247  20561872.8724   20561879.5254
       240.0004        209.0004
  22890246.9154   -2456541.24649  -1876063.43846  22890246.7024   22890253.8124
       219.0004        165.0004
  22034041.2264   -1651185.95149  -1268346.57547  22034040.3114   22034045.2284
       234.0004        188.0004
  22333740.4184    1818387.96949   1414813.06746  22333739.8044   22333746.7644
       224.0004        176.0004
  21076886.5104     407766.83549    324706.85247  21076886.0654   21076892.7324
       241.0004        205.0004
  24250652.0074    2335089.07049   1810412.78145  24250653.5224   24250661.1924
       208.0004        139.0004
 07  2 17 19 59 30.0000000  0 11G 6G18G 5G30G29G 7G26G21G10G24G12
  20336795.5774    -912874.68649   -697303.57147  20336795.4694   20336801.3654
       242.0004        209.0004
  23159366.1284   -2866773.05349  -2178730.20445  23159365.6554   23159371.8954
       222.0004        162.0004
  24223705.1164    2293263.78549   1783501.96145  24223704.7884   24223712.6864
       204.0004        141.0004
  22449572.6954    1903574.65449   1480665.50946  22449572.8944   22449579.8934
       227.0004        177.0004
  22690050.8284   -1658887.40549  -1273543.34046  22690050.4554   22690057.0984
       218.0004        164.0004
  20560661.2384   -1424113.95249  -1086607.01547  20560660.8114   20560667.1524
       240.0004        209.0004
  22887725.2954   -2469792.28949  -1886388.91746  22887724.5784   22887731.8074
       219.0004        165.0004
  22032510.3034   -1659230.86049  -1274615.32847  22032509.5714   22032514.5904
       234.0004        188.0004
  22336596.1494    1833394.92049   1426506.79146  22336595.0874   22336603.1294
       222.0004        176.0004
  21077922.6754     413211.88949    328949.75447  21077922.3884   21077928.7474
       241.0004        205.0004
  24254062.0234    2353008.64249   1824376.06445  24254062.8824   24254071.6774
       205.0004        138.0004
 07  2 17 19 59 35.0000000  0 11G 6G18G 5G30G29G 7G26G21G10G24G12
  20336289.6854    -915533.16049   -699375.11547  20336289.5404   20336295.2834
       242.0004        209.0004
  23156381.6544   -2882456.61849  -2190951.15845  23156380.9514   23156387.6684
       222.0004        162.0004
  24227047.5164    2310828.01349   1797188.35445  24227047.3244   24227055.8084
       202.0004        141.0004
  22452497.4174    1918944.19449   1492641.76346  22452498.1794   22452503.9924
       227.0004        177.0004
  22688638.8624   -1666307.51849  -1279325.24146  22688638.5824   22688645.1394
       218.0004        164.0004
  20559450.8904   -1430474.43749  -1091563.23847  20559450.4594   20559456.8984
       240.0004        209.0004
  22885205.4534   -2483033.93749  -1896707.08646  22885205.3924   22885212.2524
       218.0004        165.0004
  22030980.1474   -1667271.83249  -1280881.02047  22030979.8204   22030984.3484
       235.0004        188.0004
  22339453.4814    1848410.27349   1438207.04946  22339452.8894   22339460.3654
       223.0004        176.0004
  21078959.6354     418661.07149    333195.86747  21078959.3404   21078965.9784
       241.0004        205.0004
  24257472.0214    2370928.32949   1838339.43745  24257472.9914   24257481.1614
       206.0004        137.0004
 07  2 17 19 59 40.0000000  0 11G 6G18G 5G30G29G 7G26G21G10G24G12
  20335785.9114    -918180.60049   -701438.05647  20335785.8284   20335791.6494
       242.0004        209.0004
  23153398.3674   -2898133.81749  -2203167.14645  23153397.7464   23153403.0894
       222.0004        162.0004
  24230389.7164    2328391.42949   1810874.11445  24230389.2914   24230398.3774
       204.0004        141.0004
  22455423.4024    1934320.32049   1504623.15546  22455424.0634   22455429.8564
       227.0004        177.0004
  22687229.2214   -1673715.36649  -1285097.58246  22687229.4084   22687235.5104
       217.0004        164.0004
  20558242.3064   -1436825.49549  -1096512.11547  20558241.7554   20558248.2194
       240.0004        209.0004
  22882687.3804   -2496266.48349  -1907018.14846  22882687.3154   22882694.6244
       219.0004        165.0004
  22029450.7034   -1675309.14349  -1287143.85747  22029450.2494   22029454.9504
       235.0004        188.0004
  22342312.3624    1863433.75649   1449913.66346  22342311.4704   22342318.9234
       224.0004        176.0004
  21079997.3214     424114.11749    337444.99347  21079996.8624   21080003.5984
       241.0004        205.0004
  24260882.0304    2388847.82849   1852302.66245  24260883.1604   24260889.2884
       205.0004        137.0004
 07  2 17 19 59 45.0000000  0 11G 6G18G 5G30G29G 7G26G21G10G24G12
  20335284.2424    -920816.89049   -703492.30947  20335284.3064   20335289.7994
       242.0004        209.0004
  23150416.3414   -2913804.53349  -2215378.08345  23150416.3704   23150421.6114
       221.0004        162.0004
  24233731.8034    2345954.20149   1824559.37345  24233731.3474   24233740.0874
       204.0004        141.0004
  22458350.6484    1949703.12149   1516609.74346  22458350.9974   22458357.4074
       228.0004        177.0004
  22685821.9334   -1681110.79049  -1290860.23646  22685822.3324   22685828.5144
       217.0004        164.0004
  20557035.5724   -1443166.97649  -1101453.52947  20557035.1214   20557041.5984
       240.0004        209.0004
  22880171.0364   -2509489.86849  -1917322.09246  22880170.7374   22880178.5234
       218.0004        165.0004
  22027921.9714   -1683342.70049  -1293403.77047  22027921.2174   22027925.7134
       235.0004        188.0004
  22345172.7934    1878465.47449   1461626.67446  22345171.4604   22345179.7354
       222.0004        176.0004
  21081035.7524     429571.13049    341697.21147  21081035.4934   21081042.0114
       241.0004        205.0004
  24264292.0224    2406767.36249   1866265.91445  24264291.9504   24264298.3714
       207.0004        136.0004
 07  2 17 19 59 50.0000000  0 11G 6G18G 5G30G29G 7G26G21G10G24G12
  20334784.7174    -923442.01749   -705537.86047  20334784.7014   20334790.4014
       242.0004        209.0004
  23147435.5194   -2929468.70749  -2227583.92946  23147434.6644   23147441.4754
       223.0004        163.0004
  24237073.7384    2363516.27649   1838244.09145  24237073.0434   24237081.3804
       200.0004        140.0004
  22461279.1764    1965092.64849   1528601.57946  22461279.4904   22461285.3474
       228.0004        177.0004
  22684416.9964   -1688493.80849  -1296613.22946  22684416.4554   22684423.3514
       219.0004        164.0004
  20555830.6774   -1449498.79949  -1106387.41647  20555830.2554   20555836.6814
       241.0004        209.0004
  22877656.4674   -2522703.95349  -1927618.77346  22877656.1084   22877663.3774
       219.0004        165.0004
  22026393.9604   -1691372.47249  -1299660.73647  22026393.4154   22026398.3364
       235.0004        188.0004
  22348034.8004    1893505.39949   1473346.09146  22348034.1484   22348041.5284
       224.0004        176.0004
  21082074.9594     435032.13849    345952.54247  21082074.7834   21082081.4444
       241.0004        205.0004
  24267702.0354    2424686.89949   1880229.16945  24267701.8504   24267707.6634
       205.0004        136.0004
 07  2 17 19 59 55.0000000  0 11G 6G18G 5G30G29G 7G26G21G10G24G12
  20334287.3304    -926055.79649   -707574.57047  20334287.3164   20334293.0494
       242.0004        209.0004
  23144456.0034   -2945126.17649  -2239784.54546  23144455.1474   23144461.6414
       223.0004        163.0004
  24240415.6034    2381077.81749   1851928.39445  24240415.7294   24240422.9444
       205.0004        140.0004
  22464209.0254    1980489.06349   1540598.77846  22464209.0924   22464215.5254
       227.0004        177.0004
  22683014.4884   -1695864.17049  -1302356.36146  22683014.4764   22683020.2934
       219.0004        164.0004
  20554627.6374   -1455820.87149  -1111313.70547  20554627.1584   20554633.5794
       240.0004        209.0004
  22875143.7284   -2535908.54449  -1937908.06146  22875144.1774   22875150.5004
       219.0004        165.0004
  22024866.7124   -1699398.27449  -1305914.59847  22024866.2424   22024870.8894
       234.0004        188.0004
  22350898.4034    1908553.74449   1485072.07046  22350897.8254   22350904.9024
       224.0004        176.0004
  21083114.9324     440497.29149    350211.10747  21083114.5544   21083121.3304
       241.0004        205.0004
  24271112.0874    2442606.54549   1894192.50645  24271112.7084   24271118.4294
       205.0004        136.0004
 07  2 17 20  0  0.0000000  0 11G 6G18G 5G30G29G 7G26G21G10G24G12
  20333792.0054    -928658.73149   -709602.83147  20333791.9994   20333797.4764
       242.0004        209.0004
  23141477.7044   -2960777.43249  -2251980.32546  23141476.9494   23141482.8984
       223.0004        163.0004
  24243757.3024    2398638.33349   1865611.88745  24243757.2164   24243765.4724
       204.0004        140.0004
  22467140.0564    1995891.78949   1552600.89246  22467140.4924   22467146.5594
       227.0004        177.0004
  22681614.2744   -1703222.43749  -1308090.07246  22681615.1354   22681620.2944
       220.0004        164.0004
  20553426.3634   -1462133.61349  -1116232.72447  20553425.9194   20553432.4104
       240.0004        209.0004
  22872632.6704   -2549104.14349  -1948190.33346  22872632.5764   22872639.6164
       219.0004        165.0004
  22023340.1184   -1707420.65149  -1312165.80047  22023339.2204   22023344.1744
       235.0004        188.0004
  22353763.4984    1923609.95249   1496804.17446  22353762.1324   22353770.5194
       224.0004        176.0004
  21084155.6384     445966.10149    354472.51647  21084155.3134   21084161.9464
       240.0004        205.0004
  24274522.0604    2460525.76749   1908155.51345  24274522.3084   24274528.4864
       205.0004        135.0004
 07  2 17 20  0  5.0000000  0 11G 6G18G 5G30G29G 7G26G21G10G24G12
  20333298.8464    -931250.35549   -711622.28547  20333298.7804   20333304.5604
       242.0004        209.0004
  23138500.6294   -2976422.03149  -2264170.91246  23138500.3104   23138505.8854
       224.0004        164.0004
  24247098.8714    2416198.26349   1879294.93345  24247097.8034   24247106.5604
       204.0004        140.0004
  22470072.4064    2011301.30849   1564608.29646  22470072.9724   22470079.2274
       229.0004        177.0004
  22680216.4534   -1710568.12049  -1313813.97046  22680215.8534   22680222.9854
       219.0004        164.0004
  20552226.9294   -1468436.58849  -1121144.13747  20552226.6304   20552232.8914
       240.0004        210.0004
  22870123.4234   -2562290.31849  -1958465.27446  22870123.2534   22870130.7754
       219.0004        165.0004
  22021814.2464   -1715439.12149  -1318413.96047  22021813.7264   22021817.9244
       234.0004        188.0004
  22356630.1984    1938674.44949   1508542.73346  22356629.4374   22356636.6154
       224.0004        176.0004
  21085197.0954     451438.99949    358737.10547  21085196.7924   21085203.6044
       241.0004        205.0004
  24277932.0204    2478444.98749   1922118.51345  24277932.6874   24277938.7304
       204.0004        136.0004
 07  2 17 20  0 10.0000000  0 11G 6G18G 5G30G29G 7G26G21G10G24G12
  20332807.7834    -933831.00949   -713633.17747  20332807.8104   20332813.2334
       242.0004        210.0004
  23135524.7784   -2992060.32549  -2276356.59246  23135524.6304   23135530.4704
       224.0004        164.0004
  24250440.2334    2433757.17049   1892977.18445  24250438.9604   24250448.5124
       206.0004        140.0004
  22473005.9864    2026717.26949   1576620.73346  22473006.6514   22473012.5404
       227.0004        178.0004
  22678820.9374   -1717901.57449  -1319528.34146  22678820.2294   22678827.2104
       217.0004        164.0004
  20551029.3024   -1474730.18649  -1126048.23647  20551028.8694   20551035.3734
       241.0004        210.0004
  22867615.8784   -2575467.46349  -1968733.16046  22867615.4294   22867622.4174
       218.0004        165.0004
  22020289.0894   -1723454.04749  -1324659.34747  22020288.2924   22020293.1724
       234.0004        188.0004
  22359498.3964    1953746.87549   1520287.46946  22359497.8824   22359505.2004
       224.0004        176.0004
  21086239.2424     456915.60649    363004.59747  21086238.8114   21086245.3884
       240.0004        205.0004
  24281341.9254    2496363.84649   1936081.23945  24281341.7174   24281347.8864
       204.0004        136.0004
 07  2 17 20  0 15.0000000  0 11G 6G18G 5G30G29G 7G26G21G10G24G12
  20332318.8854    -936400.24149   -715635.18047  20332318.7894   20332324.4064
       242.0004        210.0004
  23132550.2174   -3007691.80649  -2288536.96446  23132549.5494   23132555.4914
       225.0004        164.0004
  24253781.5204    2451315.59249   1906659.05845  24253780.6874   24253789.9104
       203.0004        140.0004
  22475940.8654    2042140.14949   1588638.54746  22475941.4994   22475947.1274
       229.0004        178.0004
  22677427.8484   -1725222.27249  -1325232.77946  22677427.7834   22677433.7064
       219.0004        164.0004
  20549833.5664   -1481013.86349  -1130944.61147  20549833.0574   20549839.5994
       240.0004        210.0004
  22865110.1784   -2588634.96249  -1978993.54846  22865110.0044   22865117.2864
       219.0004        165.0004
  22018764.6554   -1731464.93449  -1330901.60347  22018764.0274   22018769.0744
       234.0004        188.0004
  22362368.2084    1968827.75049   1532038.79646  22362367.7354   22362375.3404
       223.0004        176.0004
  21087282.2314     462396.45649    367275.38547  21087281.9684   21087288.3924
       241.0004        205.0004
  24284751.8324    2514282.86949   1950044.08745  24284752.4864   24284758.8214
       205.0004        136.0004
 07  2 17 20  0 20.0000000  0 11G 6G18G 5G30G29G 7G26G21G10G24G12
  20331832.0824    -938958.47549   -717628.60847  20331832.1064   20331837.7424
       243.0004        210.0004
  23129576.8374   -3023316.96149  -2300712.39446  23129576.3284   23129582.3174
       224.0004        165.0004
  24257122.6054    2468873.05549   1920340.18445  24257122.0544   24257130.7814
       205.0004        140.0004
  22478876.9644    2057569.42449   1600661.35346  22478877.5774   22478883.4784
       228.0004        178.0004
  22676037.0804   -1732530.71049  -1330927.65546  22676036.7764   22676042.5224
       219.0004        164.0004
  20548639.6294   -1487288.14949  -1135833.66047  20548639.0434   20548645.8694
       240.0004        210.0004
  22862606.2124   -2601793.29449  -1989246.78046  22862606.4374   22862612.7964
       219.0004        165.0004
  22017240.9184   -1739472.23749  -1337141.05347  22017239.9124   22017245.4564
       234.0004        188.0004
  22365239.5204    1983916.59349   1543796.33046  22365238.4284   22365245.8584
       223.0004        176.0004
  21088325.9084     467881.03249    371549.08547  21088325.4864   21088332.2244
       241.0004        205.0004
  24288161.6424    2532201.54049   1964006.66545  24288161.6364   24288169.2414
       205.0004        135.0004
 07  2 17 20  0 25.0000000  0 11G 6G18G 5G30G29G 7G26G21G10G24G12
  20331347.4394    -941505.36649   -719613.19747  20331347.4014   20331353.0034
       242.0004        210.0004
  23126604.7354   -3038935.44249  -2312882.63846  23126603.9754   23126609.7514
       223.0004        165.0004
  24260463.5604    2486429.86649   1934020.80345  24260462.6114   24260471.7794
       203.0004        139.0004
  22481814.3514    2073005.40349   1612689.38146  22481814.6444   22481821.4664
       228.0004        178.0004
  22674648.7484   -1739826.54949  -1336612.71346  22674648.5574   22674655.1684
       220.0004        164.0004
  20547447.5244   -1493552.62249  -1140715.06447  20547447.2784   20547453.6964
       241.0004        210.0004
  22860104.0694   -2614942.19249  -1999492.66646  22860103.4104   22860111.8224
       220.0004        165.0004
  22015717.9244   -1747475.67049  -1343377.49147  22015717.0264   22015722.4224
       234.0004        188.0004
  22368112.4294    1999013.66949   1555560.28046  22368111.5794   22368118.8664
       223.0004        176.0004
  21089370.3504     473369.65849    375825.93447  21089370.2034   21089376.5164
       241.0004        205.0004
  24291571.4624    2550120.18249   1977969.22545  24291572.1954   24291578.9644
       204.0004        135.0004
 07  2 17 20  0 30.0000000  0 11G 6G18G 5G30G29G 7G26G21G10G24G12
  20330864.8614    -944041.29149   -721589.24447  20330864.8254   20330870.4884
       242.0004        210.0004
  23123633.8534   -3054547.55149  -2325047.90746  23123633.0024   23123639.0584
       224.0004        165.0004
  24263804.3274    2503985.62249   1947700.60245  24263803.5584   24263812.1944
       206.0004        139.0004
  22484752.9604    2088447.69649   1624722.32546  22484753.9894   22484759.8534
       228.0004        178.0004
  22673262.7674   -1747110.09349  -1342288.19346  22673263.1874   22673268.6094
       217.0004        164.0004
  20546257.2504   -1499807.67349  -1145589.13247  20546256.6524   20546263.4254
       240.0004        210.0004
  22857603.6234   -2628081.94749  -2009731.42946  22857603.7104   22857610.4854
       219.0004        165.0004
  22014195.5714   -1755475.56949  -1349611.17947  22014194.5304   22014199.8984
       233.0004        188.0004
  22370986.8054    2014118.62249   1567330.36246  22370986.4384   22370993.4734
       222.0004        176.0004
  21090415.5204     478861.96149    380105.64647  21090415.3694   21090421.9634
       240.0004        204.0004
  24294981.2124    2568038.42149   1991931.47445  24294982.8434   24294988.8174
       203.0004        135.0004
 07  2 17 20  0 35.0000000  0 11G 6G18G 5G30G29G 7G26G21G10G24G12
  20330384.4204    -946565.97849   -723556.53247  20330384.2284   20330389.9914
       242.0004        210.0004
  23120664.2154   -3070153.04149  -2337208.02146  23120663.7684   23120670.2064
       224.0004        166.0004
  24267144.9374    2521540.62649   1961379.80845  24267144.1164   24267153.2234
       203.0004        139.0004
  22487692.7874    2103896.60749   1636760.43046  22487692.9444   22487699.1854
       229.0004        178.0004
  22671879.1204   -1754381.12149  -1347953.92746  22671879.0754   22671884.7054
       219.0004        164.0004
  20545068.7834   -1506052.97949  -1150455.60547  20545068.3354   20545074.9114
       240.0004        210.0004
  22855105.0034   -2641212.21649  -2019962.79246  22855105.0304   22855112.4744
       218.0004        165.0004
  22012673.9774   -1763471.68349  -1355841.91347  22012673.2334   22012678.0084
       234.0004        188.0004
  22373862.7464    2029231.69449   1579106.77346  22373862.0484   22373868.9784
       224.0004        175.0004
  21091461.4224     484358.23349    384388.45747  21091461.1354   21091467.5744
       240.0004        204.0004
  24298390.9334    2585956.54649   2005893.62445  24298391.8734   24298397.6484
       203.0004        135.0004
 07  2 17 20  0 40.0000000  0 11G 6G18G 5G30G29G 7G26G21G10G24G12
  20329906.1194    -949079.53749   -725515.15147  20329905.9394   20329911.7344
       242.0004        210.0004
  23117695.8384   -3085752.04449  -2349363.07546  23117695.1934   23117701.6704
       224.0004        166.0004
  24270485.3714    2539094.70549   1975058.29645  24270484.3134   24270493.9474
       205.0004        139.0004
  22490633.8584    2119351.96249   1648803.55646  22490634.3584   22490640.8134
       229.0004        178.0004
  22670497.8814   -1761639.70349  -1353609.96046  22670497.5114   22670504.3734
       218.0004        164.0004
  20543882.1604   -1512288.75349  -1155314.64947  20543881.6074   20543888.0134
       240.0004        210.0004
  22852608.1554   -2654333.21649  -2030186.94546  22852608.2094   22852615.4414
       219.0004        166.0004
  22011153.0544   -1771464.14149  -1362069.79947  22011151.9374   22011157.8584
       233.0004        188.0004
  22376740.2174    2044352.71849   1590889.38846  22376739.4864   22376747.0244
       223.0004        175.0004
  21092508.0604     489858.31349    388674.23347  21092507.5914   21092514.3754
       241.0004        204.0004
  24301800.5924    2603874.38549   2019855.55545  24301801.4134   24301806.9744
       205.0004        135.0004
 07  2 17 20  0 45.0000000  0 11G 6G18G 5G30G29G 7G26G21G10G24G12
  20329429.9454    -951581.83449   -727464.99347  20329429.7794   20329435.7424
       242.0004        210.0004
  23114728.6954   -3101344.44149  -2361512.98546  23114728.2074   23114733.4624
       225.0004        166.0004
  24273825.6544    2556647.98149   1988736.15145  24273824.8714   24273834.5934
       204.0004        139.0004
  22493576.1904    2134813.89349   1660851.80846  22493576.7314   22493582.9144
       228.0004        178.0004
  22669118.9964   -1768885.70549  -1359256.19146  22669118.6164   22669124.7544
       218.0004        164.0004
  20542697.3984   -1518514.75849  -1160166.08147  20542696.9474   20542703.4064
       240.0004        210.0004
  22850113.1064   -2667444.78949  -2040403.74846  22850113.6654   22850120.4714
       218.0004        166.0004
  22009632.8374   -1779452.80049  -1368294.73447  22009632.1994   22009636.8464
       233.0004        188.0004
  22379619.2084    2059481.87449   1602678.32446  22379618.2134   22379625.2514
       223.0004        175.0004
  21093555.4334     495362.35649    392963.09347  21093555.0964   21093561.5724
       241.0004        204.0004
  24305210.2214    2621792.08049   2033817.38245  24305211.3424   24305216.3404
       207.0004        135.0004
 07  2 17 20  0 50.0000000  0 11G 6G18G 5G30G29G 7G26G21G10G24G12
  20328955.9194    -954072.93749   -729406.11047  20328955.8074   20328961.5134
       242.0004        210.0004
  23111762.8174   -3116930.24549  -2373657.77346  23111762.0904   23111768.9374
       224.0004        166.0004
  24277165.7714    2574200.40849   2002413.34645  24277164.9184   24277173.8764
       203.0004        138.0004
  22496519.7484    2150282.28349   1672905.09046  22496520.4234   22496527.0674
       229.0004        178.0004
  22667742.5214   -1776119.18549  -1364892.65646  22667742.8684   22667748.6484
       220.0004        164.0004
  20541514.4794   -1524731.11349  -1165009.99447  20541514.1164   20541520.5654
       241.0004        210.0004
  22847619.8514   -2680546.88149  -2050613.16246  22847619.9624   22847627.1514
       219.0004        166.0004
  22008113.3504   -1787437.71349  -1374516.73647  22008112.4614   22008117.6334
       234.0004        188.0004
  22382499.7174    2074619.05149   1614473.53046  22382499.2184   22382506.3294
       224.0004        175.0004
  21094603.5844     500870.28449    397254.98747  21094603.1704   21094609.5574
       241.0004        204.0004
  24308619.8084    2639709.47749   2047778.97745  24308620.4024   24308627.7364
       205.0004        135.0004
 07  2 17 20  0 55.0000000  0 11G 6G18G 5G30G29G 7G26G21G10G24G12
  20328483.9724    -956552.95949   -731338.59547  20328483.8734   20328489.5284
       242.0004        210.0004
  23108798.1624   -3132509.58749  -2385797.49446  23108797.2634   23108804.3874
       225.0004        166.0004
  24280505.6894    2591751.79249   2016089.73145  24280504.7264   24280513.4864
       205.0004        139.0004
  22499464.5144    2165757.01649   1684963.31446  22499464.9854   22499471.5244
       230.0004        178.0004
  22666368.4154   -1783340.25449  -1370519.45446  22666368.3204   22666374.5534
       219.0004        164.0004
  20540333.3644   -1530937.94949  -1169846.48847  20540333.0234   20540339.4944
       241.0004        210.0004
  22845128.3564   -2693639.62849  -2060815.29146  22845128.5974   22845135.2904
       220.0004        166.0004
  22006594.5564   -1795419.03149  -1380735.93947  22006593.6524   22006599.1454
       234.0004        188.0004
  22385381.7494    2089764.08449   1626274.83546  22385380.7934   22385388.7134
       224.0004        175.0004
  21095652.4114     506381.99149    401549.82047  21095652.2644   21095658.9614
       240.0004        204.0004
  24312029.3154    2657626.46849   2061740.24945  24312029.7024   24312036.4304
       203.0004        135.0004
 07  2 17 20  1  0.0000000  0 11G 6G18G 5G30G29G 7G26G21G10G24G12
  20328014.2254    -959021.49049   -733262.12247  20328014.1894   20328019.9524
       242.0004        210.0004
  23105834.8194   -3148082.05949  -2397931.88546  23105834.5644   23105840.6484
       224.0004        166.0004
  24283845.4864    2609302.53549   2029765.61945  24283844.6244   24283852.9534
       203.0004        139.0004
  22502410.5514    2181238.41349   1697026.73546  22502411.3454   22502417.4144
       228.0004        178.0004
  22664996.7104   -1790548.50949  -1376136.27546  22664996.4994   22665002.5034
       216.0004        165.0004
  20539154.1374   -1537134.84049  -1174675.23047  20539153.7604   20539160.2364
       240.0004        210.0004
  22842638.7294   -2706722.62349  -2071009.82146  22842638.9104   22842645.3534
       220.0004        166.0004
  22005076.4894   -1803396.35249  -1386952.03347  22005076.0134   22005080.8944
       234.0004        188.0004
  22388265.3554    2104917.41049   1638082.63246  22388264.9774   22388272.1374
       224.0004        175.0004
  21096702.0684     511897.84349    405847.88947  21096701.8974   21096708.0494
       240.0004        204.0004
  24315438.8314    2675543.47449   2075701.53545  24315438.9424   24315446.3794
       204.0004        135.0004
 07  2 17 20  1  5.0000000  0 11G 6G18G 5G30G29G 7G26G21G10G24G12
  20327546.6004    -961478.90349   -735176.99247  20327546.6324   20327552.1764
       242.0004        210.0004
  23102872.7384   -3163648.01049  -2410061.18746  23102871.0554   23102878.4534
       224.0004        166.0004
  24287185.0994    2626852.28549   2043440.73445  24287184.1024   24287193.0644
       208.0004        139.0004
  22505357.7984    2196726.18249   1709095.11646  22505358.0354   22505364.3774
       229.0004        178.0004
  22663627.3724   -1797744.28949  -1381743.37846  22663627.5274   22663633.0114
       220.0004        165.0004
  20537976.7574   -1543322.09949  -1179496.47347  20537976.3254   20537982.8324
       240.0004        210.0004
  22840150.9064   -2719796.29649  -2081197.09346  22840151.5624   22840158.0634
       219.0004        166.0004
  22003559.1434   -1811370.04949  -1393165.30147  22003558.3444   22003563.1944
       233.0004        188.0004
  22391150.4694    2120078.64549   1649896.57046  22391150.2694   22391157.6084
       224.0004        175.0004
  21097752.3954     517417.47849    410148.89947  21097752.2204   21097758.6684
       240.0004        204.0004
  24318848.2704    2693460.11549   2089662.53045  24318848.8414   24318856.8714
       205.0004        135.0004
 07  2 17 20  1 10.0000000  0 11G 6G18G 5G30G29G 7G26G21G10G24G12
  20327081.1254    -963925.07049   -737083.09747  20327080.8754   20327086.7664
       242.0004        210.0004
  23099911.8904   -3179207.38549  -2422185.36146  23099911.4744   23099917.5584
       222.0004        166.0004
  24290524.5144    2644401.10049   2057115.12145  24290523.7004   24290532.0474
       205.0004        139.0004
  22508306.2734    2212220.36849   1721168.49446  22508306.4344   22508313.3384
       229.0004        178.0004
  22662260.4614   -1804927.56049  -1387340.71346  22662260.7434   22662266.1204
       219.0004        165.0004
  20536801.2054   -1549499.65849  -1184310.15547  20536800.9294   20536807.2854
       241.0004        210.0004
  22837664.8654   -2732860.49349  -2091376.98346  22837664.6044   22837672.3774
       220.0004        166.0004
  22002042.4854   -1819340.07049  -1399375.69847  22002041.7234   22002046.4854
       234.0004        188.0004
  22394037.0754    2135247.83149   1661716.70446  22394036.5214   22394043.4764
       224.0004        175.0004
  21098803.4874     522940.96049    414452.91147  21098803.0534   21098809.8584
       240.0004        204.0004
  24322257.6784    2711376.44549   2103623.28245  24322257.4824   24322266.6074
       205.0004        135.0004
 07  2 17 20  1 15.0000000  0 11G 6G18G 5G30G29G 7G26G21G10G24G12
  20326617.7894    -966359.99849   -738980.44247  20326617.6654   20326623.4344
       242.0004        210.0004
  23096952.3114   -3194760.15049  -2434304.38646  23096951.4434   23096957.8234
       223.0004        166.0004
  24293863.7564    2661948.97149   2070788.76945  24293863.0294   24293872.0244
       202.0004        139.0004
  22511255.9444    2227720.92649   1733246.85246  22511256.4214   22511262.5384
       229.0004        178.0004
  22660895.9454   -1812098.24049  -1392928.25346  22660895.8784   22660901.8294
       219.0004        165.0004
  20535627.4904   -1555667.54849  -1189116.29947  20535627.2114   20535633.4254
       241.0004        210.0004
  22835180.6584   -2745915.17249  -2101549.44946  22835180.4044   22835187.7374
       219.0004        166.0004
  22000526.5494   -1827306.28649  -1405583.13347  22000526.0634   22000531.0084
       234.0004        188.0004
  22396925.2134    2150424.97449   1673543.05346  22396924.4224   22396932.4824
       223.0004        175.0004
  21099855.3154     528468.30149    418759.93247  21099855.1744   21099861.4034
       240.0004        204.0004
  24325667.0024    2729292.44949   2117583.78745  24325667.1714   24325675.4414
       202.0004        136.0004
 07  2 17 20  1 20.0000000  0 11G 6G18G 5G30G29G 7G26G21G10G24G12
  20326156.5954    -968783.60449   -740868.96847  20326156.4954   20326161.9194
       242.0004        210.0004
  23093994.0134   -3210306.15949  -2446418.15746  23093993.3914   23093999.0584
       223.0004        166.0004
  24297202.8414    2679496.07249   2084461.82245  24297201.5774   24297211.1184
       204.0004        139.0004
  22514206.8714    2243228.01349   1745330.28046  22514207.2794   22514212.8914
       228.0004        178.0004
  22659533.8674   -1819256.19649  -1398505.88046  22659534.1014   22659539.6474
       219.0004        165.0004
  20534455.6864   -1561825.57349  -1193914.76347  20534455.3524   20534461.8154
       241.0004        210.0004
  22832698.2534   -2758960.19349  -2111714.39146  22832697.6424   22832705.6594
       219.0004        166.0004
  21999011.3714   -1835268.61049  -1411787.54947  21999010.8824   21999015.6604
       234.0004        188.0004
  22399814.9214    2165610.20949   1685375.69246  22399814.0914   22399821.2584
       225.0004        175.0004
  21100907.9044     533999.63949    423070.06047  21100907.6564   21100913.9824
       240.0004        204.0004
  24329076.3224    2747208.28849   2131544.15745  24329076.8914   24329084.4814
       205.0004        136.0004
 07  2 17 20  1 25.0000000  0 11G 6G18G 5G30G29G 7G26G21G10G24G12
  20325697.5284    -971196.03149   -742748.78047  20325697.3924   20325703.1234
       242.0004        209.0004
  23091036.9334   -3225845.59349  -2458526.78546  23091036.2684   23091042.0014
       224.0004        165.0004
  24300541.7424    2697042.09049   2098134.02445  24300540.8764   24300550.0524
       204.0004        139.0004
  22517158.9814    2258741.41849   1757418.65146  22517159.1854   22517165.2694
       229.0004        178.0004
  22658174.1464   -1826401.64049  -1404073.74546  22658174.3624   22658179.6644
       219.0004        165.0004
  20533285.7084   -1567973.91849  -1198705.68147  20533285.2924   20533291.8004
       240.0004        210.0004
  22830217.6864   -2771995.78349  -2121871.99146  22830217.6694   22830225.1554
       218.0004        166.0004
  21997496.8874   -1843227.33149  -1417989.14547  21997496.0904   21997501.3674
       234.0004        188.0004
  22402706.0834    2180803.28849   1697214.45246  22402705.7104   22402712.3934
       224.0004        175.0004
  21101961.1944     539534.77849    427383.15447  21101961.0364   21101967.4554
       241.0004        204.0004
  24332485.5244    2765123.73049   2145504.22245  24332486.2804   24332493.2404
       203.0004        135.0004
 07  2 17 20  1 30.0000000  0 11G 6G18G 5G30G29G 7G26G21G10G24G12
  20325240.6234    -973597.08249   -744619.73247  20325240.5994   20325246.1564
       242.0004        209.0004
  23088081.1754   -3241378.28949  -2470630.17946  23088081.2444   23088086.7824
       222.0004        165.0004
  24303880.4564    2714587.25049   2111805.56745  24303878.7654   24303888.7544
       202.0004        139.0004
  22520112.3194    2274261.27549   1769512.02346  22520112.3814   22520118.7664
       228.0004        178.0004
  22656816.8434   -1833534.37549  -1409631.71846  22656816.5124   22656823.2024
       219.0004        165.0004
  20532117.5744   -1574112.44349  -1203488.94847  20532117.0914   20532123.4754
       240.0004        210.0004
  22827738.9564   -2785021.68849  -2132022.03446  22827738.6254   22827745.7314
       220.0004        166.0004
  21995983.1064   -1851182.27149  -1424187.80147  21995982.6784   21995987.5284
       234.0004        188.0004
  22405598.8204    2196004.41449   1709059.47346  22405599.2164   22405604.9504
       224.0004        175.0004
  21103015.2564     545073.91749    431699.36547  21103015.1374   21103021.4894
       241.0004        204.0004
  24335894.7004    2783038.90949   2159464.08945  24335894.6514   24335901.4184
       204.0004        134.0004
 07  2 17 20  1 35.0000000  0 11G 6G18G 5G30G29G 7G26G21G10G24G12
  20324785.8124    -975987.25249   -746482.19847  20324785.5444   20324791.2414
       242.0004        209.0004
  23085126.5884   -3256904.70449  -2482728.67346  23085125.4704   23085132.2104
       222.0004        165.0004
  24307218.8994    2732131.10149   2125476.09045  24307217.6734   24307226.1944
       205.0004        139.0004
  22523066.7814    2289787.11749   1781610.08446  22523067.2554   22523073.3254
       228.0004        178.0004
  22655461.8734   -1840654.81149  -1415180.10846  22655462.1404   22655467.5494
       220.0004        165.0004
  20530951.2384   -1580241.59449  -1208264.90847  20530950.6594   20530957.2854
       240.0004        210.0004
  22825261.9794   -2798038.36949  -2142164.89346  22825262.7294   22825268.4974
       221.0004        166.0004
  21994469.9864   -1859133.85949  -1430383.83347  21994469.2964   21994474.4514
       234.0004        188.0004
  22408492.9674    2211213.07349   1720910.38046  22408492.4834   22408499.5254
       225.0004        175.0004
  21104070.0094     550616.55849    436018.30747  21104069.8664   21104076.3484
       240.0004        204.0004
  24339303.7164    2800953.39049   2173423.40545  24339303.6514   24339311.8044
       205.0004        134.0004
 07  2 17 20  1 40.0000000  0 11G 6G18G 5G30G29G 7G26G21G10G24G12
  20324333.1694    -978365.97349   -748335.74847  20324332.8874   20324338.7474
       242.0004        209.0004
  23082173.2964   -3272424.26449  -2494821.83146  23082172.6644   23082178.1504
       223.0004        165.0004
  24310557.2224    2749674.12149   2139145.95445  24310556.2824   24310565.8374
       206.0004        139.0004
  22526022.5254    2305319.49249   1793713.22546  22526022.6094   22526029.3324
       228.0004        178.0004
  22654109.3764   -1847762.47849  -1420718.53746  22654109.5064   22654114.5674
       221.0004        165.0004
  20529786.8154   -1586360.78049  -1213033.10147  20529786.2654   20529792.8244
       241.0004        210.0004
  22822786.8464   -2811045.29749  -2152300.15246  22822786.0844   22822793.7574
       220.0004        167.0004
  21992957.5774   -1867081.55649  -1436576.84147  21992956.8434   21992961.6054
       234.0004        188.0004
  22411388.6524    2226429.81249   1732767.56546  22411388.2694   22411395.5194
       225.0004        175.0004
  21105125.5124     556163.22749    440340.38747  21105125.2564   21105131.6274
       241.0004        204.0004
  24342712.7354    2818867.71349   2187382.59545  24342712.5614   24342721.5284
       203.0004        134.0004
 07  2 17 20  1 45.0000000  0 11G 6G18G 5G30G29G 7G26G21G10G24G12
  20323882.6504    -980733.51349   -750180.58747  20323882.4494   20323888.2374
       242.0004        209.0004
  23079221.2754   -3287937.26849  -2506909.86946  23079221.2384   23079226.1574
       223.0004        165.0004
  24313895.3224    2767216.01649   2152814.95045  24313894.9514   24313903.8194
       204.0004        139.0004
  22528979.4234    2320858.11949   1805821.23646  22528979.4924   22528985.8334
       228.0004        178.0004
  22652759.2464   -1854857.60049  -1426247.20046  22652759.3014   22652764.5834
       219.0004        165.0004
  20528624.2084   -1592470.29949  -1217793.76847  20528623.5804   20528630.1774
       240.0004        210.0004
  22820313.5384   -2824042.71749  -2162428.01146  22820313.6364   22820320.6524
       221.0004        167.0004
  21991445.8674   -1875025.64949  -1442767.04547  21991445.2294   21991450.5814
       234.0004        188.0004
  22414285.8204    2241654.31749   1744630.81446  22414285.4634   22414291.8014
       225.0004        175.0004
  21106181.7054     561713.62649    444665.36947  21106181.5754   21106187.8754
       241.0004        204.0004
  24346121.6194    2836781.57249   2201341.43045  24346122.1004   24346129.3974
       204.0004        134.0004
 07  2 17 20  1 50.0000000  0 11G 6G18G 5G30G29G 7G26G21G10G24G12
  20323434.2664    -983089.85549   -752016.69347  20323434.0494   20323439.7164
       241.0004        209.0004
  23076270.5114   -3303443.62749  -2518992.74146  23076270.0214   23076275.9044
       223.0004        165.0004
  24317233.2454    2784756.89649   2166483.15445  24317232.7204   24317241.1364
       205.0004        139.0004
  22531937.5434    2336403.02449   1817934.14446  22531938.1444   22531943.7924
       228.0004        178.0004
  22651411.5374   -1861940.07949  -1431766.00246  22651411.5844   22651417.3304
       220.0004        165.0004
  20527463.4414   -1598570.09149  -1222546.84847  20527462.7834   20527469.3344
       240.0004        210.0004
  22817842.0204   -2837030.56149  -2172548.40146  22817842.1774   22817849.3754
       220.0004        167.0004
  21989934.8494   -1882966.04149  -1448954.34847  21989934.0054   21989939.4944
       234.0004        188.0004
  22417184.4684    2256886.65249   1756500.16846  22417183.8574   22417190.3454
       225.0004        175.0004
  21107238.6624     567267.83549    448993.33047  21107238.1934   21107244.8214
       240.0004        204.0004
  24349530.4734    2854695.00449   2215299.93245  24349531.3104   24349538.4704
       202.0004        134.0004
 07  2 17 20  1 55.0000000  0 11G 6G18G 5G30G29G 7G26G21G10G24G12
  20322988.0564    -985434.74249   -753843.88347  20322987.9884   20322993.6574
       242.0004        209.0004
  23073321.0154   -3318943.23449  -2531070.35646  23073319.7334   23073326.5314
       222.0004        165.0004
  24320570.9664    2802296.76449   2180150.56145  24320570.6094   24320579.2364
       208.0004        139.0004
  22534896.8634    2351954.32749   1830052.02746  22534896.7364   22534903.2134
       227.0004        177.0004
  22650066.2374   -1869009.79749  -1437274.86646  22650065.8164   22650072.1204
       219.0004        165.0004
  20526304.5744   -1604660.03549  -1227292.26147  20526304.0854   20526310.4224
       240.0004        210.0004
  22815372.3804   -2850008.67549  -2182661.21346  22815372.2764   22815379.9194
       221.0004        167.0004
  21988424.5654   -1890902.64349  -1455138.71747  21988423.5914   21988429.0444
       234.0004        188.0004
  22420084.6324    2272126.92149   1768375.69046  22420084.4394   22420090.7124
       226.0004        175.0004
  21108296.3434     572825.99249    453324.35447  21108296.1014   21108302.5874
       240.0004        204.0004
  24352939.2074    2872608.11449   2229258.17845  24352940.7004   24352947.3054
       203.0004        134.0004
 07  2 17 20  2  0.0000000  0 11G 6G18G 5G30G29G 7G26G21G10G24G12
  20322543.9864    -987768.39149   -755662.30947  20322543.6964   20322549.5854
       241.0004        209.0004
  23070372.8324   -3334436.16349  -2543142.74946  23070371.5744   23070378.5194
       222.0004        164.0004
  24323908.5114    2819835.64849   2193817.21145  24323908.2894   24323916.6064
       205.0004        139.0004
  22537857.3474    2367511.93149   1842174.83746  22537856.7364   22537863.8604
       228.0004        177.0004
  22648723.3484   -1876066.88849  -1442773.89746  22648723.0754   22648728.6134
       219.0004        165.0004
  20525147.5524   -1610740.20549  -1232030.05447  20525147.0964   20525153.6154
       240.0004        210.0004
  22812904.5444   -2862977.13849  -2192766.49546  22812904.9254   22812912.1114
       221.0004        167.0004
  21986915.0074   -1898835.53349  -1461320.18147  21986914.2264   21986919.2424
       234.0004        188.0004
  22422986.3094    2287375.05249   1780257.35846  22422986.3704   22422992.8744
       225.0004        175.0004
  21109354.7384     578387.97149    457658.36747  21109354.5784   21109361.1334
       241.0004        204.0004
  24356347.9054    2890520.82949   2243216.10945  24356349.3704   24356355.2714
       204.0004        134.0004
 07  2 17 20  2  5.0000000  0 11G 6G18G 5G30G29G 7G26G21G10G24G12
  20322102.0774    -990090.58549   -757471.81047  20322101.8624   20322107.5054
       242.0004        209.0004
  23067425.9244   -3349922.21549  -2555209.79546  23067425.7234   23067430.9334
       223.0004        164.0004
  24327245.9094    2837373.60749   2207483.14245  24327245.4884   24327253.9014
       205.0004        138.0004
  22540819.0774    2383075.91149   1854302.60346  22540818.9564   22540824.9624
       226.0004        177.0004
  22647382.8654   -1883111.13149  -1448262.91346  22647382.3134   22647388.2354
       220.0004        165.0004
  20523992.4254   -1616810.39349  -1236760.07147  20523991.8164   20523998.2824
       240.0004        210.0004
  22810438.6054   -2875935.77049  -2202864.12346  22810438.5624   22810446.0604
       220.0004        167.0004
  21985406.1354   -1906764.59549  -1467498.67047  21985405.8504   21985410.3284
       234.0004        189.0004
  22425889.4734    2302631.19749   1792145.24646  22425889.5604   22425895.1814
       224.0004        175.0004
  21110413.9344     583953.95649    461995.49647  21110413.5954   21110419.9664
       239.0004        204.0004
  24359756.5694    2908433.22849   2257173.80045  24359758.3404   24359764.2194
       205.0004        135.0004
 07  2 17 20  2 10.0000000  0 11G 6G18G 5G30G29G 7G26G21G10G24G12
  20321662.3344    -992401.46149   -759272.49747  20321662.0964   20321667.7064
       242.0004        209.0004
  23064480.2924   -3365401.56349  -2567271.61746  23064479.7234   23064485.6484
       223.0004        164.0004
  24330583.0964    2854910.50849   2221148.24645  24330581.7894   24330591.4264
       207.0004        139.0004
  22543781.9934    2398646.13349   1866435.23346  22543781.3854   22543788.1804
       227.0004        177.0004
  22646044.8394   -1890142.64649  -1453742.01146  22646044.1304   22646049.9954
       219.0004        165.0004
  20522839.1834   -1622870.78749  -1241482.45647  20522838.6944   20522845.0094
       240.0004        210.0004
  22807974.5304   -2888884.70849  -2212954.19946  22807974.6284   22807981.3914
       221.0004        167.0004
  21983898.0074   -1914689.93949  -1473674.25747  21983897.5044   21983902.6454
       234.0004        189.0004
  22428794.1294    2317895.11949   1804039.21546  22428793.9494   22428799.8224
       226.0004        175.0004
  21111473.8114     589523.75849    466335.59847  21111473.1814   21111480.0054
       240.0004        204.0004
  24363165.0994    2926345.15149   2271131.11945  24363165.9314   24363174.2764
       202.0004        135.0004
 07  2 17 20  2 15.0000000  0 11G 6G18G 5G30G29G 7G26G21G10G24G12
  20321224.7084    -994701.18549   -761064.49247  20321224.3994   20321230.0864
       242.0004        209.0004
  23061535.9124   -3380874.36349  -2579328.34046  23061535.1014   23061541.4854
       223.0004        164.0004
  24333920.0424    2872446.12249   2234812.34445  24333919.4684   24333928.4564
       208.0004        139.0004
  22546746.0744    2414222.43449   1878572.59846  22546745.3434   22546752.5544
       227.0004        177.0004
  22644709.1644   -1897161.69649  -1459211.39146  22644708.4054   22644714.9604
       219.0004        165.0004
  20521687.7474   -1628921.60549  -1246197.38047  20521687.3714   20521693.6814
       240.0004        210.0004
  22805512.2164   -2901824.19249  -2223036.90646  22805512.4924   22805519.7304
       220.0004        167.0004
  21982390.5294   -1922611.72649  -1479847.07447  21982389.5484   21982395.1424
       233.0004        189.0004
  22431700.2174    2333166.67049   1815939.12946  22431699.3584   22431706.7824
       224.0004        175.0004
  21112534.3934     595097.20449    470678.54347  21112533.9674   21112540.5074
       240.0004        204.0004
  24366573.5554    2944256.44049   2285087.94445  24366573.9424   24366582.4144
       204.0004        134.0004
 07  2 17 20  2 20.0000000  0 11G 6G18G 5G30G29G 7G26G21G10G24G12
  20320789.2864    -996989.38449   -762847.50247  20320788.9514   20320794.9734
       242.0004        209.0004
  23058592.8734   -3396340.11849  -2591379.55546  23058591.8294   23058597.6834
       224.0004        164.0004
  24337256.8014    2889980.86149   2248475.76845  24337256.6384   24337265.3274
       206.0004        139.0004
  22549711.3754    2429805.15849   1890714.97346  22549711.3704   22549717.5404
       227.0004        177.0004
  22643375.9424   -1904167.77549  -1464670.66846  22643375.7974   22643381.3964
       219.0004        165.0004
  20520538.2364   -1634962.34549  -1250904.45147  20520537.6974   20520544.3264
       240.0004        210.0004
  22803051.8034   -2914753.72549  -2233111.85846  22803051.1964   22803059.2654
       220.0004        168.0004
  21980883.8144   -1930529.58149  -1486016.82847  21980883.3614   21980888.0924
       234.0004        189.0004
  22434607.8184    2348446.21749   1827845.25546  22434607.3744   22434614.1864
       225.0004        175.0004
  21113595.7694     600674.69149    475024.63647  21113595.2624   21113602.0174
       240.0004        204.0004
  24369981.9304    2962167.50449   2299044.59145  24369980.7234   24369990.2384
       202.0004        134.0004
 07  2 17 20  2 25.0000000  0 11G 6G18G 5G30G29G 7G26G21G10G24G12
  20320355.9734    -999266.49949   -764621.87847  20320355.7504   20320361.3994
       242.0004        209.0004
  23055651.0734   -3411799.37049  -2603425.72046  23055650.6254   23055655.3214
       223.0004        164.0004
  24340593.3244    2907514.28849   2262138.17045  24340593.9574   24340602.6324
       207.0004        138.0004
  22552677.8194    2445393.89549   1902862.03046  22552677.9364   22552684.4304
       226.0004        177.0004
  22642045.0734   -1911161.37949  -1470120.22846  22642044.8094   22642050.4884
       219.0004        165.0004
  20519390.5444   -1640993.50549  -1255604.05547  20519390.1524   20519396.4984
       240.0004        210.0004
  22800593.2024   -2927673.70049  -2243179.35846  22800593.3484   22800600.2094
       222.0004        168.0004
  21979377.7534   -1938443.92349  -1492183.84247  21979376.9644   21979381.9914
       234.0004        189.0004
  22437516.9004    2363733.32849   1839757.28846  22437516.6804   22437523.2614
       223.0004        175.0004
  21114657.7924     606255.79449    479373.54847  21114657.2474   21114663.9224
       240.0004        204.0004
  24373390.1954    2980077.89849   2313000.70945  24373389.2744   24373397.4384
       201.0004        134.0004
 07  2 17 20  2 30.0000000  0 11G 6G18G 5G30G29G 7G26G21G10G24G12
  20319924.8454   -1001532.08549   -766387.27347  20319924.6494   20319930.3014
       242.0004        209.0004
  23052710.5754   -3427251.71849  -2615466.50846  23052709.7814   23052715.7004
       224.0004        164.0004
  24343929.6804    2925046.78049   2275799.84245  24343929.9584   24343938.6894
       206.0004        138.0004
  22555645.4714    2460989.03749   1915014.07546  22555645.9414   22555652.5794
       228.0004        177.0004
  22640716.7254   -1918142.02349  -1475559.67646  22640716.0984   22640722.2234
       219.0004        165.0004
  20518244.7524   -1647014.61949  -1260295.83447  20518244.2554   20518250.7944
       240.0004        210.0004
  22798136.4974   -2940583.72349  -2253239.11546  22798136.3394   22798144.3564
       221.0004        168.0004
  21977872.4504   -1946354.37749  -1498347.83547  21977871.4364   21977876.7734
       234.0004        189.0004
  22440427.4434    2379028.37749   1851675.50746  22440426.5864   22440433.3424
       224.0004        175.0004
  21115720.5954     611840.89349    483725.57047  21115720.0414   21115727.1244
       239.0004        204.0004
  24376798.3634    2997987.96249   2326956.57745  24376798.9334   24376804.4824
       201.0004        134.0004
 07  2 17 20  2 35.0000000  0 11G 6G18G 5G30G29G 7G26G21G10G24G12
  20319495.8364   -1003786.55249   -768143.99647  20319495.4364   20319501.3074
       242.0004        209.0004
  23049771.3394   -3442697.56749  -2627502.21846  23049771.1254   23049776.5794
       225.0004        164.0004
  24347265.7654    2942577.94149   2289460.47745  24347265.4494   24347275.9124
       206.0004        138.0004
  22558614.2424    2476590.10349   1927170.74946  22558614.7564   22558621.2024
       228.0004        177.0004
  22639390.7304   -1925110.12149  -1480989.35546  22639389.9364   22639395.8584
       218.0004        165.0004
  20517100.8034   -1653026.12149  -1264980.11547  20517100.1574   20517106.8144
       240.0004        210.0004
  22795681.5864   -2953484.27449  -2263291.48646  22795681.4884   22795689.0814
       221.0004        168.0004
  21976367.7894   -1954261.36049  -1504509.11147  21976366.9584   21976371.9524
       234.0004        189.0004
  22443339.4394    2394330.92949   1863599.57046  22443338.5304   22443346.4824
       225.0004        175.0004
  21116784.0904     617429.58649    488080.39947  21116783.4954   21116790.2914
       240.0004        204.0004
  24380206.4124    3015897.32349   2340911.89845  24380206.4944   24380212.7954
       201.0004        133.0004
 07  2 17 20  2 40.0000000  0 11G 6G18G 5G30G29G 7G26G21G10G24G12
  20319069.0354   -1006029.44749   -769891.70447  20319068.8014   20319074.5844
       242.0004        209.0004
  23046833.4294   -3458136.40449  -2639532.46846  23046832.1704   23046838.6794
       225.0004        164.0004
  24350601.6874    2960108.18249   2303120.38845  24350601.4794   24350611.4204
       208.0004        138.0004
  22561584.2454    2492197.57849   1939332.40846  22561584.7704   22561590.8314
       227.0004        177.0004
  22638067.1904   -1932065.21749  -1486408.91746  22638067.7024   22638072.7194
       219.0004        164.0004
  20515958.7914   -1659027.51649  -1269656.53147  20515958.1284   20515964.8034
       240.0004        210.0004
  22793228.6264   -2966374.68249  -2273335.96046  22793227.9574   22793236.0354
       221.0004        167.0004
  21974863.9084   -1962164.39649  -1510667.32047  21974863.6484   21974867.9204
       234.0004        189.0004
  22446252.9674    2409641.47849   1875529.85946  22446252.2134   22446259.1144
       224.0004        175.0004
  21117848.3244     623022.30449    492438.35947  21117847.9384   21117854.6654
       240.0004        204.0004
  24383614.4234    3033806.42749   2354867.02045  24383614.1154   24383623.8314
       199.0004        132.0004
 07  2 17 20  2 45.0000000  0 11G 6G18G 5G30G29G 7G26G21G10G24G12
  20318644.3974   -1008260.88549   -771630.48647  20318644.1754   20318649.8824
       242.0004        209.0004
  23043896.8214   -3473568.42049  -2651557.41246  23043895.7934   23043902.5724
       224.0004        165.0004
  24353937.3894    2977637.34449   2316779.46045  24353935.9814   24353946.8564
       206.0004        138.0004
  22564555.4664    2507811.33149   1951498.95846  22564555.5334   22564562.1594
       227.0004        177.0004
  22636746.0754   -1939007.50049  -1491818.46846  22636746.2774   22636751.5854
       218.0004        164.0004
  20514818.6314   -1665018.95849  -1274325.18447  20514818.2274   20514824.4844
       240.0004        210.0004
  22790777.5574   -2979255.24449  -2283372.74946  22790778.4124   22790784.5164
       221.0004        167.0004
  21973360.7174   -1970063.61549  -1516822.54747  21973360.3094   21973365.4974
       234.0004        189.0004
  22449167.9584    2424959.84849   1887466.25446  22449167.3954   22449173.9234
       225.0004        175.0004
  21118913.3204     628618.93649    496799.36947  21118912.9514   21118919.7184
       240.0004        204.0004
  24387022.3214    3051715.06049   2368821.77745  24387021.9164   24387030.4334
       201.0004        132.0004
 07  2 17 20  2 50.0000000  0 11G 6G18G 5G30G29G 7G26G21G10G24G12
  20318221.8974   -1010481.19149   -773360.59847  20318221.7384   20318227.3924
       242.0004        209.0004
  23040961.4424   -3488993.84949  -2663577.21946  23040960.3154   23040966.4234
       223.0004        165.0004
  24357272.8454    2995165.12449   2330437.45545  24357271.6224   24357281.5894
       204.0004        138.0004
  22567527.7934    2523430.99849   1963670.12146  22567527.6764   22567534.1564
       228.0004        177.0004
  22635427.3704   -1945937.18049  -1497218.22046  22635426.6504   22635432.8994
       217.0004        164.0004
  20513680.3394   -1671000.71449  -1278986.29247  20513679.9154   20513686.3524
       240.0004        210.0004
  22788328.3264   -2992126.15449  -2293402.02646  22788328.8684   22788335.6734
       221.0004        167.0004
  21971858.2214   -1977959.35649  -1522975.06847  21971857.8394   21971862.6954
       234.0004        189.0004
  22452084.3694    2440285.71649   1899408.48146  22452083.9564   22452090.2384
       224.0004        175.0004
  21119979.0094     634219.17649    501163.19347  21119978.6534   21119985.6294
       240.0004        204.0004
  24390430.1214    3069622.98249   2382775.98445  24390429.5674   24390437.8084
       202.0004        132.0004
 07  2 17 20  2 55.0000000  0 11G 6G18G 5G30G29G 7G26G21G10G24G12
  20317801.5624   -1012690.00949   -775081.75247  20317801.5194   20317807.1994
       242.0004        209.0004
  23038027.4074   -3504412.36649  -2675591.63746  23038026.9364   23038031.4064
       224.0004        164.0004
  24360608.0814    3012691.90949   2344094.67845  24360607.4724   24360615.7464
       205.0004        138.0004
  22570501.3074    2539056.91349   1975846.14846  22570501.7674   22570508.1404
       228.0004        177.0004
  22634111.1204   -1952853.92749  -1502607.89546  22634110.5614   22634116.5774
       219.0004        164.0004
  20512543.9774   -1676972.48349  -1283639.61747  20512543.4624   20512549.9474
       240.0004        210.0004
  22785880.9804   -3004987.14149  -2303423.55846  22785880.8534   22785887.4554
       220.0004        167.0004
  21970356.4284   -1985851.29549  -1529124.62747  21970355.6694   21970360.6534
       234.0004        189.0004
  22455002.2914    2455619.39149   1911356.79146  22455001.9564   22455007.6604
       225.0004        175.0004
  21121045.4454     639823.32949    505530.06947  21121045.1654   21121051.7624
       240.0004        204.0004
  24393837.8434    3087530.50549   2396729.88245  24393837.7284   24393844.4504
       199.0004        132.0004
 07  2 17 20  3  0.0000000  0 11G 6G18G 5G30G29G 7G26G21G10G24G12
  20317383.3534   -1014887.66249   -776794.20947  20317383.3384   20317388.7374
       242.0004        209.0004
  23035094.6064   -3519824.24149  -2687600.88546  23035093.1374   23035098.8894
       223.0004        164.0004
  24363943.0874    3030217.34549   2357750.85245  24363942.3044   24363950.9174
       206.0004        138.0004
  22573475.9614    2554688.78249   1988026.81646  22573476.2484   22573482.4984
       228.0004        177.0004
  22632797.2994   -1959758.03049  -1507987.70646  22632796.7514   22632802.8464
       218.0004        164.0004
  20511409.4404   -1682934.50349  -1288285.34747  20511408.8674   20511415.4344
       241.0004        210.0004
  22783435.4604   -3017838.42449  -2313437.55046  22783435.4764   22783442.8064
       220.0004        167.0004
  21968855.3194   -1993739.69149  -1535271.42447  21968854.5784   21968859.4104
       234.0004        189.0004
  22457921.6274    2470960.59649   1923310.98046  22457920.4054   22457927.9154
       225.0004        175.0004
  21122112.5704     645431.11349    509899.76547  21122112.3964   21122118.9694
       240.0004        204.0004
  24397245.4144    3105437.26849   2410683.17745  24397246.1584   24397253.3074
       201.0004        132.0004
 07  2 17 20  3  5.0000000  0 11G 6G18G 5G30G29G 7G26G21G10G24G12
  20316967.3824   -1017073.62249   -778497.55847  20316967.1364   20316972.9654
       242.0004        209.0004
  23032163.1764   -3535229.04949  -2699604.61946  23032162.6664   23032168.1394
       223.0004        164.0004
  24367277.8904    3047741.79849   2371406.25145  24367277.4954   24367285.8814
       207.0004        137.0004
  22576451.7964    2570326.98649   2000212.41546  22576452.2274   22576458.0954
       227.0004        177.0004
  22631485.9634   -1966649.07149  -1513357.34046  22631485.1894   22631491.4664
       219.0004        164.0004
  20510276.8314   -1688886.38449  -1292923.17547  20510276.2214   20510282.8974
       241.0004        210.0004
  22780991.9044   -3030679.58549  -2323443.63746  22780992.3774   22780998.9934
       221.0004        167.0004
  21967354.9564   -2001624.11449  -1541415.13347  21967354.6874   21967359.2204
       234.0004        189.0004
  22460842.4724    2486309.74449   1935271.34246  22460841.5834   22460848.2254
       224.0004        175.0004
  21123180.4824     651042.93549    514272.60847  21123180.3774   21123186.8574
       241.0004        204.0004
  24400652.9004    3123343.70249   2424636.21945  24400654.2894   24400660.3524
       201.0004        132.0004
 07  2 17 20  3 10.0000000  0 11G 6G18G 5G30G29G 7G26G21G10G24G12
  20316553.5384   -1019248.44649   -780192.22047  20316553.3934   20316558.9254
       242.0004        209.0004
  23029232.9724   -3550627.31049  -2711603.25246  23029231.6554   23029237.7494
       224.0004        165.0004
  24370612.4474    3065264.81249   2385060.53345  24370612.2064   24370620.1854
       207.0004        137.0004
  22579428.8004    2585971.03349   2012402.57846  22579429.1064   22579435.4184
       227.0004        178.0004
  22630177.0234   -1973527.53149  -1518717.17046  22630175.9054   22630182.8294
       216.0004        164.0004
  20509146.0664   -1694828.57749  -1297553.45247  20509145.4944   20509151.8574
       241.0004        210.0004
  22778550.1854   -3043511.06049  -2333442.18346  22778549.6684   22778557.2044
       221.0004        167.0004
  21965855.2664   -2009505.08249  -1547556.14147  21965854.5254   21965859.5694
       234.0004        189.0004
  22463764.7124    2501666.29149   1947237.49046  22463763.7504   22463770.9634
       225.0004        175.0004
  21124249.0594     656658.30649    518648.22447  21124248.7774   21124255.4364
       240.0004        204.0004
  24404060.2274    3141249.34749   2438588.63945  24404061.3404   24404067.3634
       202.0004        132.0004
 07  2 17 20  3 15.0000000  0 11G 6G18G 5G30G29G 7G26G21G10G24G12
  20316141.8484   -1021411.76149   -781877.92447  20316141.7184   20316147.5004
       242.0004        209.0004
  23026304.0664   -3566018.63849  -2723596.48346  23026302.9224   23026308.9594
       224.0004        165.0004
  24373946.7794    3082786.71649   2398713.95245  24373947.0684   24373954.8344
       204.0004        137.0004
  22582406.9464    2601621.31949   2024597.59846  22582407.0654   22582414.1884
       226.0004        178.0004
  22628870.5434   -1980393.00949  -1524066.89946  22628870.0394   22628875.8014
       217.0004        164.0004
  20508017.2074   -1700760.75049  -1302175.92647  20508017.0154   20508023.2134
       240.0004        210.0004
  22776110.3604   -3056332.56749  -2343432.96346  22776110.0774   22776116.9224
       220.0004        167.0004
  21964356.2884   -2017382.23749  -1553694.18647  21964355.8634   21964360.5794
       234.0004        189.0004
  22466688.4784    2517030.59949   1959209.67046  22466687.1764   22466694.1284
       224.0004        175.0004
  21125318.3904     662277.56649    523026.86647  21125318.2864   21125324.5604
       240.0004        204.0004
  24407467.4684    3159154.49449   2452540.67144  24407468.3314   24407474.9194
       203.0004        131.0004
 07  2 17 20  3 20.0000000  0 11G 6G18G 5G30G29G 7G26G21G10G24G12
  20315732.3924   -1023563.56949   -783554.66047  20315732.3514   20315737.8474
       242.0004        209.0004
  23023376.5134   -3581403.00849  -2735584.30146  23023375.8394   23023381.8974
       224.0004        165.0004
  24377280.8954    3100307.53749   2412366.52245  24377281.6594   24377289.6454
       206.0004        136.0004
  22585386.2854    2617277.77349   2036797.42546  22585386.9424   22585393.0344
       227.0004        178.0004
  22627566.5034   -1987245.51749  -1529406.50946  22627566.0924   22627572.3974
       219.0004        164.0004
  20506890.2724   -1706682.88149  -1306790.57247  20506889.8864   20506896.1634
       241.0004        210.0004
  22773672.4344   -3069143.99249  -2353415.88546  22773671.9254   22773680.2524
       220.0004        167.0004
  21962858.0334   -2025255.57549  -1559829.24547  21962857.4704   21962862.5504
       235.0004        189.0004
  22469613.6784    2532402.65449   1971187.88946  22469612.6414   22469619.8564
       225.0004        175.0004
  21126388.4324     667900.74149    527408.55947  21126388.1564   21126394.7674
       240.0004        204.0004
  24410874.6324    3177059.13949   2466492.32045  24410875.0534   24410883.3634
       202.0004        132.0004
 07  2 17 20  3 25.0000000  0 12G 6G18G 5G16G30G29G 7G26G21G10G24G12
  20315325.0284   -1025704.21649   -785222.69547  20315324.8434   20315330.5874
       242.0004        209.0004
  23020450.1864   -3596780.78449  -2747566.97046  23020449.1154   23020455.8824
       224.0004        165.0004
  24380614.7154    3117826.84549   2426017.91645  24380614.6324   24380624.1354
       206.0004        136.0004
                  -1492119.00559  -1140684.70443
       204.0004         74.0004
  22588366.7354    2632940.05249   2049001.78646  22588367.8384   22588373.1964
       227.0004        178.0004
  22626264.9084   -1994085.38449  -1534736.26846  22626264.2734   22626270.7124
       217.0004        164.0004
  20505765.1894   -1712595.30249  -1311397.65447  20505764.7944   20505771.2404
       241.0004        210.0004
  22771236.3864   -3081945.66349  -2363391.20246  22771236.1414   22771243.3874
       220.0004        167.0004
  21961360.4684   -2033125.44849  -1565961.61347  21961359.7074   21961364.7474
       235.0004        189.0004
  22472540.3004    2547782.10149   1983171.87546  22472539.8744   22472546.0734
       224.0004        175.0004
  21127459.1844     673527.46249    531793.01447  21127458.8954   21127465.3984
       241.0004        204.0004
  24414281.6314    3194962.91049   2480443.28045  24414283.0044   24414289.1864
       201.0004        132.0004
 07  2 17 20  3 30.0000000  0 11G 6G18G 5G30G29G 7G26G21G10G24G12
  20314919.9114   -1027833.14949   -786881.60547  20314919.7344   20314925.5084
       242.0004        209.0004
  23017525.2304   -3612151.47849  -2759544.12346  23017524.0104   23017530.0604
       223.0004        165.0004
  24383948.3534    3135345.13349   2439668.51845  24383947.9944   24383956.9974
       206.0004        136.0004
  22591348.3774    2648608.60949   2061211.03946  22591348.5554   22591355.0834
       227.0004        178.0004
  22624965.7794   -2000912.11849  -1540055.79146  22624965.3624   22624971.0904
       218.0004        165.0004
  20504642.0354   -1718497.56349  -1315996.81747  20504641.6824   20504648.1114
       241.0004        210.0004
  22768802.2484   -3094737.16649  -2373358.60246  22768801.7674   22768808.9674
       220.0004        166.0004
  21959863.6254   -2040991.38849  -1572090.91647  21959862.9034   21959868.1024
       235.0004        190.0004
  22475468.4074    2563169.41349   1995161.97846  22475467.9474   22475474.9544
       225.0004        174.0004
  21128530.6834     679158.24649    536180.63947  21128530.6234   21128536.7744
       241.0004        204.0004
  24417688.6184    3212866.34449   2494393.99145  24417690.0554   24417697.3104
       201.0004        132.0004
 07  2 17 20  3 35.0000000  0 11G 6G18G 5G30G29G 7G26G21G10G24G12
  20314516.9394   -1029950.85849   -788531.76647  20314516.8434   20314522.5344
       242.0004        209.0004
  23014601.5374   -3627515.47149  -2771516.04846  23014600.6444   23014607.8774
       223.0004        165.0004
  24387281.7234    3152862.04649   2453318.04845  24387281.4464   24387289.6684
       206.0004        135.0004
  22594331.1504    2664283.10249   2073424.92146  22594331.3104   22594337.4704
       227.0004        178.0004
  22623669.1164   -2007726.11049  -1545365.39246  22623669.0904   22623675.1174
       220.0004        165.0004
  20503520.7534   -1724389.97949  -1320588.30847  20503520.2484   20503526.6134
       241.0004        210.0004
  22766369.9534   -3107518.81049  -2383318.31846  22766370.2404   22766376.2644
       220.0004        166.0004
  21958367.4674   -2048853.74849  -1578217.42347  21958366.9094   21958371.8094
       234.0004        190.0004
  22478397.9564    2578564.15849   2007157.88446  22478397.3394   22478403.7834
       225.0004        175.0004
  21129602.9064     684792.64349    540571.07847  21129602.6804   21129609.1484
       241.0004        204.0004
  24421095.4114    3230768.93349   2508344.03545  24421095.1884   24421103.7934
       200.0004        132.0004
 07  2 17 20  3 40.0000000  0 12G 6G18G 5G16G30G29G 7G26G21G10G24G12
  20314116.1274   -1032057.16249   -790173.04447  20314115.9604   20314121.6924
       242.0004        209.0004
  23011679.1814   -3642872.64749  -2783482.67946  23011677.9074   23011684.6794
       224.0004        165.0004
  24390614.8424    3170377.65449   2466966.56145  24390614.8094   24390623.8624
       203.0004        135.0004
                  -1529384.44949  -1169725.42243
       204.0004         74.0004
  22597315.0464    2679963.54049   2085643.43846  22597315.6844   22597321.8244
       227.0004        178.0004
  22622374.8774   -2014527.23249  -1550664.95446  22622373.4774   22622380.6234
       217.0004        165.0004
  20502401.3584   -1730272.48549  -1325172.07547  20502400.9134   20502407.3114
       241.0004        210.0004
  22763939.5654   -3120290.51049  -2393270.27946  22763939.3134   22763946.3944
       220.0004        166.0004
  21956872.0084   -2056712.41449  -1584341.05547  21956871.3044   21956876.5344
       234.0004        190.0004
  22481328.9284    2593966.48849   2019159.70046  22481327.8114   22481335.2074
       224.0004        174.0004
  21130675.8044     690430.78649    544964.43447  21130675.6684   21130681.9064
       240.0004        204.0004
  24424502.1014    3248670.87549   2522293.58245  24424501.6394   24424509.9994
       202.0004        132.0004
 07  2 17 20  3 45.0000000  0 12G 6G18G 5G16G30G29G 7G26G21G10G24G12
  20313717.5114   -1034152.02549   -791805.40647  20313717.2964   20313723.0544
       242.0004        209.0004
  23008758.0924   -3658222.96349  -2795443.94546  23008756.7294   23008763.9164
       224.0004        165.0004
  24393947.7234    3187891.94549   2480614.04945  24393947.6914   24393956.2734
       205.0004        135.0004
                  -1541785.73549  -1179389.63843
       205.0004         74.0004
  22600300.0714    2695649.93649   2097866.59246  22600300.8974   22600306.7144
       227.0004        178.0004
  22621083.1004   -2021315.47049  -1555954.50446  22621082.8104   22621088.8534
       219.0004        165.0004
  20501283.8424   -1736145.03549  -1329748.08847  20501283.4674   20501289.8024
       241.0004        211.0004
  22761511.0964   -3133052.26949  -2403214.50146  22761510.5444   22761518.0444
       221.0004        166.0004
  21955377.2634   -2064567.42249  -1590461.83647  21955376.2994   21955381.7534
       235.0004        189.0004
  22484261.3104    2609376.35449   2031167.38146  22484260.3204   22484267.8574
       224.0004        175.0004
  21131749.4354     696072.66949    549360.70547  21131749.2844   21131755.5154
       241.0004        204.0004
  24427908.6604    3266572.13549   2536242.58945  24427908.6014   24427916.2634
       200.0004        132.0004
 07  2 17 20  3 50.0000000  0 12G 6G18G 5G16G30G29G 7G26G21G10G24G12
  20313321.0194   -1036235.51949   -793428.90547  20313320.8514   20313326.6764
       242.0004        209.0004
  23005838.3434   -3673566.44149  -2807399.88646  23005838.1004   23005843.3064
       224.0004        165.0004
  24397280.3084    3205404.89549   2494260.48445  24397279.1654   24397289.3624
       204.0004        135.0004
                  -1554176.71449  -1189045.80243
       204.0004         74.0004
  22603286.2484    2711342.24749   2110094.36246  22603287.0704   22603292.7054
       227.0004        178.0004
  22619793.7644   -2028090.89549  -1561234.03946  22619793.7634   22619800.1914
       221.0004        165.0004
  20500168.2504   -1742007.61549  -1334316.33247  20500167.6394   20500174.0854
       241.0004        211.0004
  22759084.5154   -3145804.03349  -2413150.92946  22759084.9534   22759090.3574
       221.0004        167.0004
  21953883.2004   -2072418.77649  -1596579.77147  21953882.2544   21953887.3354
       235.0004        190.0004
  22487195.1574    2624793.73449   2043180.92046  22487194.6894   22487201.2984
       224.0004        175.0004
  21132823.7574     701718.25749    553759.86347  21132823.4114   21132829.9234
       240.0004        204.0004
  24431315.0714    3284472.64049   2550191.01245  24431316.0124   24431322.3704
       201.0004        132.0004
 07  2 17 20  3 55.0000000  0 12G 6G18G 5G16G30G29G 7G26G21G10G24G12
  20312926.7504   -1038307.44449   -795043.39347  20312926.5344   20312932.3644
       243.0004        209.0004
  23002919.8834   -3688902.89649  -2819350.36046  23002919.6504   23002925.6484
       224.0004        166.0004
  24400612.7024    3222916.67849   2507906.01545  24400611.6284   24400621.3324
       204.0004        135.0004
                  -1566557.22449  -1198693.83243
       205.0004         74.0004
  22606273.5794    2727040.71349   2122326.92946  22606273.5134   22606280.8754
       227.0004        178.0004
  22618506.9654   -2034853.21649  -1566503.37146  22618506.0344   22618513.1914
       217.0004        165.0004
  20499054.5804   -1747860.07549  -1338876.68847  20499054.2704   20499060.6214
       241.0004        211.0004
  22756659.8624   -3158545.63049  -2423079.45146  22756659.4824   22756666.7594
       220.0004        167.0004
  21952389.8564   -2080266.28849  -1602694.71447  21952389.1974   21952393.8664
       235.0004        190.0004
  22490130.4354    2640218.80449   2055200.45546  22490129.6574   22490136.1864
       224.0004        175.0004
  21133898.8464     707367.76449    558162.07647  21133898.5564   21133905.0534
       240.0004        204.0004
  24434721.3824    3302372.61749   2564139.01845  24434722.1644   24434728.7884
       203.0004        132.0004
 07  2 17 20  4  0.0000000  0 11G 6G18G 5G30G29G 7G26G21G10G24G12
  20312534.6394   -1040368.06349   -796649.07347  20312534.5254   20312540.0954
       242.0004        209.0004
  23000002.7254   -3704232.58849  -2831295.56246  23000001.3204   23000008.0894
       223.0004        166.0004
  24403944.8014    3240426.97049   2521550.38345  24403943.1324   24403953.8274
       205.0004        135.0004
  22609262.0264    2742744.97449   2134563.99946  22609262.4734   22609268.9034
       226.0004        178.0004
  22617222.5754   -2041602.72349  -1571762.74246  22617222.7134   22617228.6514
       219.0004        165.0004
  20497942.7474   -1753702.72849  -1343429.40547  20497942.1904   20497948.6504
       241.0004        211.0004
  22754237.1244   -3171277.31949  -2433000.23746  22754236.5304   22754243.8184
       219.0004        166.0004
  21950897.2094   -2088110.22349  -1608806.86747  21950896.6204   21950901.3664
       235.0004        190.0004
  22493067.1564    2655651.22549   2067225.71946  22493066.0944   22493073.1514
       224.0004        175.0004
  21134974.6114     713020.89749    562567.11247  21134974.0324   21134980.6144
       241.0004        204.0004
  24438127.5214    3320271.74549   2578086.36245  24438127.0274   24438135.4154
       198.0004        133.0004
 07  2 17 20  4  5.0000000  0 12G 6G18G 5G16G30G29G 7G26G21G10G24G12
  20312144.7224   -1042417.18949   -798245.79247  20312144.2854   20312150.1384
       242.0004        209.0004
  22997086.9084   -3719555.36049  -2843235.38246  22997085.8094   22997092.3074
       224.0004        166.0004
  24407276.6744    3257935.91149   2535193.69645  24407275.5354   24407286.2264
       202.0004        135.0004
                  -1591287.35049  -1217965.82243
       205.0004         74.0004
  22612251.5834    2758455.16049   2146805.69446  22612251.9444   22612258.8814
       226.0004        178.0004
  22615940.6684   -2048339.24149  -1577011.96246  22615939.7814   22615946.1574
       219.0004        165.0004
  20496832.8344   -1759535.33649  -1347974.29047  20496832.4184   20496838.6284
       241.0004        211.0004
  22751816.2724   -3183998.82249  -2442913.09046  22751816.1554   22751823.2214
       219.0004        166.0004
  21949405.2914   -2095950.43349  -1614916.11547  21949404.7034   21949409.4134
       235.0004        190.0004
  22496005.2804    2671091.19649   2079256.86146  22496004.8104   22496011.5824
       224.0004        174.0004
  21136051.0774     718677.78149    566975.07747  21136050.6174   21136057.1794
       240.0004        204.0004
  24441533.5134    3338170.19949   2592033.18945  24441533.1494   24441541.3084
       201.0004        133.0004
 07  2 17 20  4 10.0000000  0 11G 6G18G 5G30G29G 7G26G21G10G24G12
  20311757.0074   -1044454.57949   -799833.37347  20311756.9234   20311762.3684
       241.0004        209.0004
  22994172.4414   -3734870.93949  -2855169.58646  22994171.3464   22994177.1974
       224.0004        166.0004
  24410608.3234    3275443.83849   2548836.21845  24410607.3684   24410618.4484
       202.0004        134.0004
  22615242.3104    2774171.53049   2159052.20546  22615243.1534   22615248.8354
       226.0004        178.0004
  22614661.3034   -2055062.51449  -1582250.87146  22614660.8964   22614667.7394
       218.0004        166.0004
  20495724.9074   -1765357.62649  -1352511.14347  20495724.5354   20495730.7314
       241.0004        211.0004
  22749397.3944   -3196710.03949  -2452817.92346  22749396.9804   22749404.8644
       219.0004        166.0004
  21947914.0924   -2103786.66349  -1621022.27147  21947913.2964   21947918.4124
       235.0004        190.0004
  22498944.8924    2686538.91449   2091294.04546  22498944.0354   22498951.0924
       223.0004        175.0004
  21137128.3194     724338.66349    571386.14647  21137127.8914   21137134.5794
       240.0004        204.0004
  24444939.3874    3356068.16849   2605979.62645  24444938.9414   24444944.9184
       200.0004        133.0004
 07  2 17 20  4 15.0000000  0 12G 6G18G 5G16G30G29G 7G26G21G10G24G12
  20311371.4284   -1046480.84249   -801412.27447  20311371.2704   20311376.9024
       242.0004        209.0004
  22991259.2164   -3750179.94349  -2867098.67246  22991259.0134   22991263.8834
       225.0004        166.0004
  24413939.6704    3292950.03349   2562477.38945  24413939.5614   24413949.9934
       204.0004        134.0004
                  -1615975.79049  -1237205.30543
       204.0004         74.0004
  22618234.1384    2789893.46349   2171303.05246  22618234.9924   22618240.5394
       226.0004        178.0004
  22613384.2874   -2061773.17849  -1587479.96546  22613384.5904   22613390.2324
       220.0004        166.0004
  20494618.8004   -1771170.28449  -1357040.48047  20494618.2414   20494624.4404
       241.0004        211.0004
  22746980.3964   -3209411.40449  -2462715.07946  22746980.0834   22746987.7994
       219.0004        166.0004
  21946423.5584   -2111619.53949  -1627125.80247  21946423.4174   21946427.8744
       235.0004        190.0004
  22501885.8664    2701993.77049   2103336.78746  22501885.3594   22501892.3354
       224.0004        174.0004
  21138206.1904     730002.95749    575799.88647  21138205.8554   21138212.1694
       240.0004        204.0004
  24448345.0904    3373965.09249   2619925.25545  24448344.5234   24448349.7954
       198.0004        133.0004
 07  2 17 20  4 20.0000000  0 12G 6G18G 5G16G30G29G 7G26G21G10G24G12
  20310988.0434   -1048495.53449   -802982.16747  20310987.6564   20310993.4814
       242.0004        209.0004
  22988347.3264   -3765481.96349  -2879022.31646  22988346.7694   22988353.1924
       224.0004        166.0004
  24417270.7454    3310454.93149   2576117.55145  24417269.9564   24417280.4084
       204.0004        134.0004
                  -1628304.53649  -1246812.98243
       204.0004         74.0004
  22621227.0554    2805621.37849   2183558.56046  22621227.1604   22621233.5034
       226.0004        177.0004
  22612109.8224   -2068470.80249  -1592698.88246  22612108.9434   22612116.0684
       219.0004        166.0004
  20493514.6114   -1776972.82349  -1361561.93947  20493514.1054   20493520.3174
       241.0004        210.0004
  22744565.3004   -3222102.65249  -2472604.35346  22744564.9854   22744572.0224
       220.0004        166.0004
  21944933.7514   -2119448.63949  -1633226.39447  21944932.6994   21944937.6364
       236.0004        190.0004
  22504828.2464    2717456.15949   2115385.39446  22504827.5224   22504834.8794
       224.0004        174.0004
  21139284.7994     735671.05149    580216.57847  21139284.4784   21139290.8944
       240.0004        203.0004
  24451750.6164    3391861.30049   2633870.33345  24451749.0864   24451757.4314
       199.0004        133.0004
 07  2 17 20  4 25.0000000  0 12G 6G18G 5G16G30G29G 7G26G21G10G24G12
  20310606.8444   -1050498.81349   -804543.16447  20310606.6204   20310612.3254
       242.0004        209.0004
  22985436.7474   -3780777.10349  -2890940.59846  22985436.3544   22985442.3724
       225.0004        167.0004
  24420601.5284    3327958.36349   2589756.57345  24420600.5604   24420611.3654
       203.0004        134.0004
                  -1640622.94649  -1256412.60643
       204.0004         74.0004
  22624221.1174    2821355.16349   2195818.64846  22624221.7874   22624227.7684
       227.0004        177.0004
  22610837.7664   -2075155.47849  -1597907.71646  22610837.3434   22610844.2514
       218.0004        166.0004
  20492412.3394   -1782765.39949  -1366075.63347  20492411.7694   20492418.1804
       241.0004        210.0004
  22742152.1334   -3234783.78549  -2482485.75146  22742151.8664   22742159.3044
       219.0004        166.0004
  21943444.6014   -2127274.09149  -1639324.14547  21943443.9904   21943448.7574
       236.0004        190.0004
  22507772.0764    2732925.96649   2127439.79446  22507771.1544   22507778.5534
       223.0004        174.0004
  21140364.1124     741342.85749    584636.16747  21140363.7014   21140370.1534
       240.0004        203.0004
  24455155.9664    3409756.69749   2647814.77745  24455155.0584   24455162.6414
       198.0004        132.0004
 07  2 17 20  4 30.0000000  0 12G 6G18G 5G16G30G29G 7G26G21G10G24G12
  20310227.8614   -1052490.41049   -806095.06347  20310227.6824   20310233.2884
       242.0004        209.0004
  22982527.5334   -3796065.10449  -2902853.31746  22982526.3584   22982532.5414
       224.0004        167.0004
  24423932.1354    3345460.63749   2603394.69545  24423931.0744   24423941.1884
       205.0004        134.0004
                  -1652930.74049   -954998.46443
       205.0004         74.0004
  22627216.3104    2837094.96249   2208083.40946  22627216.0544   22627223.1424
       225.0004        177.0004
  22609568.2034   -2081826.96849  -1603106.28546  22609568.0224   22609574.4504
       220.0004        166.0004
  20491312.0064   -1788547.70749  -1370581.33047  20491311.5004   20491317.8704
       241.0004        210.0004
  22739740.9454   -3247454.60849  -2492359.11646  22739741.1154   22739747.8194
       219.0004        166.0004
  21941956.2254   -2135095.68149  -1645418.89247  21941955.4304   21941960.3984
       236.0004        190.0004
  22510717.3204    2748403.42049   2139500.13246  22510716.2854   22510723.5494
       223.0004        174.0004
  21141444.1514     747018.60549    589058.82647  21141443.7634   21141450.2784
       240.0004        203.0004
  24458561.2224    3427651.51449   2661758.76044  24458559.9514   24458567.0554
       199.0004        131.0004
 07  2 17 20  4 35.0000000  0 12G 6G18G 5G16G30G29G 7G26G21G10G24G12
  20309850.9644   -1054470.91549   -807638.31247  20309850.8134   20309856.5234
       242.0004        209.0004
  22979619.5584   -3811346.51149  -2914760.89746  22979618.7014   22979625.2574
       224.0004        167.0004
  24427262.3834    3362961.07249   2617031.38645  24427261.9484   24427271.7774
       204.0004        134.0004
                  -1665228.46749   -964580.71843
       205.0004         74.0004
  22630212.5674    2852840.25149   2220352.45346  22630212.2104   22630219.5394
       226.0004        177.0004
  22608301.0744   -2088485.81249  -1608294.98546  22608300.1694   22608306.2284
       219.0004        166.0004
  20490213.4934   -1794320.37549  -1375079.51247  20490213.1814   20490219.2324
       241.0004        210.0004
  22737331.6384   -3260115.59649  -2502224.81646  22737332.2224   22737338.0364
       219.0004        166.0004
  21940468.4454   -2142913.94749  -1651511.04947  21940467.6804   21940472.6994
       236.0004        190.0004
  22513663.9174    2763887.94149   2151566.00246  22513663.1554   22513670.7104
       224.0004        174.0004
  21142524.8444     752697.72649    593484.11047  21142524.4254   21142530.8924
       240.0004        203.0004
  24461966.2394    3445545.17649   2675701.84744  24461964.7844   24461972.1324
       198.0004        131.0004
 07  2 17 20  4 40.0000000  0 12G 6G18G 5G16G30G29G 7G26G21G10G24G12
  20309476.3864   -1056439.46349   -809172.24647  20309476.1024   20309481.7744
       242.0004        209.0004
  22976713.0294   -3826620.53849  -2926662.72146  22976712.5134   22976717.9284
       225.0004        167.0004
  24430592.4374    3380460.54649   2630667.32445  24430591.5334   24430601.3214
       204.0004        134.0004
                  -1677515.36749   -974154.91443
       205.0004         74.0004
  22633209.9734    2868591.79149   2232626.37446  22633210.0754   22633216.2094
       226.0004        177.0004
  22607036.4994   -2095131.16549  -1613473.17046  22607036.1554   22607042.7204
       220.0004        167.0004
  20489117.0284   -1800082.52049  -1379569.49347  20489116.6304   20489122.7124
       241.0004        210.0004
  22734924.3374   -3272765.96649  -2512082.23946  22734924.0504   22734931.8034
       219.0004        166.0004
  21938981.4554   -2150728.12349  -1657600.01047  21938980.9504   21938985.4484
       236.0004        190.0004
  22516612.0164    2779380.32749   2163637.98446  22516611.4344   22516618.1334
       224.0004        174.0004
  21143606.3534     758381.00949    597912.64447  21143605.8964   21143612.7214
       240.0004        203.0004
  24465371.1684    3463438.45249   2689644.62844  24465369.4674   24465377.8944
       198.0004        130.0004
 07  2 17 20  4 45.0000000  0 12G 6G18G 5G16G30G29G 7G26G21G10G24G12
  20309103.8884   -1058396.94949   -810697.55847  20309103.7004   20309109.6054
       242.0004        209.0004
  22973807.7114   -3841887.99849  -2938559.43946  22973807.6744   22973813.2584
       226.0004        167.0004
  24433922.1464    3397958.16649   2644301.81445  24433921.2984   24433929.7624
       204.0004        135.0004
                  -1689792.21049   -983721.28243
       205.0004         74.0004
  22636208.4474    2884348.73549   2244904.49746  22636208.6594   22636215.2114
       226.0004        176.0004
  22605774.3174   -2101763.93249  -1618641.56446  22605773.9084   22605780.4374
       219.0004        167.0004
  20488022.3714   -1805835.02449  -1384051.96647  20488021.8784   20488027.9934
       241.0004        210.0004
  22732518.9094   -3285406.56649  -2521932.05446  22732518.0654   22732525.6994
       218.0004        166.0004
  21937495.0794   -2158539.05849  -1663686.45547  21937494.4294   21937499.2104
       236.0004        190.0004
  22519561.4364    2794879.69649   2175715.41046  22519560.5534   22519567.9334
       224.0004        174.0004
  21144688.4704     764067.59349    602343.74347  21144688.0274   21144694.2824
       240.0004        203.0004
  24468775.8744    3481330.49349   2703586.45444  24468774.7504   24468782.9424
       198.0004        130.0004
 07  2 17 20  4 50.0000000  0 12G 6G18G 5G16G30G29G 7G26G21G10G24G12
  20308733.5384   -1060343.07749   -812214.02047  20308733.3964   20308739.1854
       242.0004        209.0004
  22970903.7084   -3857148.56049  -2950450.77046  22970902.8654   22970909.6384
       225.0004        167.0004
  24437251.5744    3415454.21449   2657935.07945  24437251.1234   24437260.5884
       204.0004        135.0004
                  -1702058.73549   -993279.61043
       205.0004         74.0004
  22639207.9644    2900111.35249   2257187.04446  22639207.2734   22639214.1284
       225.0004        176.0004
  22604514.5974   -2108383.77749  -1623799.89246  22604514.7204   22604520.4284
       219.0004        167.0004
  20486929.6054   -1811577.51349  -1388526.62647  20486929.0444   20486935.2954
       241.0004        211.0004
  22730115.4084   -3298037.03449  -2531773.96246  22730115.7984   22730122.4594
       219.0004        166.0004
  21936009.4014   -2166346.40349  -1669770.09547  21936008.7174   21936013.6964
       236.0004        190.0004
  22522512.2464    2810386.35249   2187798.52346  22522510.8104   22522518.4624
       224.0004        174.0004
  21145771.2784     769757.77249    606777.65047  21145770.8474   21145777.5304
       240.0004        203.0004
  24472180.3944    3499221.57549   2717527.53844  24472181.4114   24472190.8674
       196.0004        129.0004
 07  2 17 20  4 55.0000000  0 12G 6G18G 5G16G30G29G 7G26G21G10G24G12
  20308365.4914   -1062277.31149   -813721.21647  20308365.2514   20308370.9404
       242.0004        209.0004
  22968001.1134   -3872401.83649  -2962336.43546  22968000.1544   22968005.8474
       226.0004        167.0004
  24440580.7814    3432949.12849   2671567.45945  24440580.2284   24440588.0214
       206.0004        135.0004
                  -1714314.43249  -1002829.50043
       206.0004         74.0004
  22642208.6724    2915880.08249   2269474.35846  22642209.2154   22642215.2154
       225.0004        176.0004
  22603257.4274   -2114990.19549  -1628947.74746  22603256.7314   22603263.6804
       218.0004        167.0004
  20485838.8314   -1817309.62149  -1392993.20847  20485838.4594   20485844.6364
       241.0004        211.0004
  22727713.9354   -3310656.94349  -2541607.65846  22727714.5514   22727721.1034
       219.0004        166.0004
  21934524.4764   -2174149.73049  -1675850.60847  21934524.1754   21934528.4204
       237.0004        190.0004
  22525464.5314    2825900.72849   2199887.63246  22525464.2464   22525471.3714
       224.0004        174.0004
  21146854.8394     775452.02549    611214.72447  21146854.3874   21146861.1984
       240.0004        203.0004
  24475584.8214    3517112.18449   2731468.24644  24475583.5764   24475593.7584
       195.0004        129.0004
 07  2 17 20  5  0.0000000  0 12G 6G18G 5G16G30G29G 7G26G21G10G24G12
  20307999.5444   -1064200.33349   -815219.67447  20307999.2954   20308005.0894
       242.0004        209.0004
  22965099.8104   -3887648.40849  -2974216.87746  22965098.7334   22965105.0284
       226.0004        167.0004
  24443909.6384    3450442.28649   2685198.47145  24443909.1244   24443917.1864
       205.0004        135.0004
                  -1726559.98949  -1012371.62043
       204.0004         74.0004
  22645210.3974    2931654.24949   2281765.90846  22645210.7074   22645217.8284
       226.0004        176.0004
  22602002.6694   -2121583.87249  -1634085.66946  22602002.5494   22602008.5694
       220.0004        167.0004
  20484749.9144   -1823031.98149  -1397452.18847  20484749.5534   20484755.7214
       241.0004        211.0004
  22725314.3544   -3323266.86449  -2551433.56446  22725314.5624   22725320.7284
       219.0004        166.0004
  21933040.2054   -2181949.69049  -1681928.48947  21933039.4834   21933044.4144
       236.0004        190.0004
  22528418.1714    2841422.15349   2211982.24846  22528417.2614   22528423.8504
       224.0004        173.0004
  21147939.0954     781149.68149    615654.46147  21147938.7974   21147945.4114
       240.0004        203.0004
  24478989.0074    3535001.62649   2745408.04444  24478987.9294   24478997.5844
       196.0004        128.0004
 07  2 17 20  5  5.0000000  0 12G 6G18G 5G16G30G29G 7G26G21G10G24G12
  20307635.7784   -1066111.83849   -816709.16047  20307635.5864   20307641.5374
       242.0004        209.0004
  22962199.7894   -3902888.03849  -2986091.90646  22962199.8004   22962204.8314
       226.0004        167.0004
  24447238.2054    3467933.95249   2698828.31845  24447237.8394   24447247.4214
       205.0004        135.0004
                  -1738795.14649  -1021905.54043
       204.0004         74.0004
  22648213.2194    2947434.16349   2294061.93346  22648213.3084   22648219.9414
       225.0004        175.0004
  22600750.4114   -2128164.50949  -1639213.43146  22600750.1364   22600756.4964
       220.0004        167.0004
  20483662.9164   -1828744.26449  -1401903.31447  20483662.7754   20483668.6304
       241.0004        211.0004
  22722916.7044   -3335866.58149  -2561251.51146  22722916.9124   22722923.6104
       219.0004        166.0004
  21931556.6144   -2189746.00149  -1688003.54047  21931555.8404   21931561.0794
       236.0004        190.0004
  22531373.2044    2856950.90449   2224082.57046  22531371.9264   22531379.8674
       223.0004        173.0004
  21149024.0054     786851.03449    620097.07447  21149023.6564   21149030.2984
       240.0004        203.0004
  24482393.0124    3552890.15448   2759347.12744  24482391.7434   24482400.1124
       193.0004        128.0004
 07  2 17 20  5 10.0000000  0 12G 6G18G 5G16G30G29G 7G26G21G10G24G12
  20307274.2414   -1068011.74649   -818189.60747  20307274.0674   20307279.6344
       242.0004        209.0004
  22959301.1334   -3918120.62749  -2997961.43946  22959300.1174   22959306.0224
       224.0004        167.0004
  24450566.5104    3485424.16249   2712457.03945  24450566.8554   24450575.1764
       205.0004        135.0004
                  -1751019.84549  -1031431.28743
       206.0004         74.0004
  22651217.1184    2963219.83349   2306362.44846  22651216.4494   22651223.5214
       225.0004        175.0004
  22599500.7074   -2134731.96949  -1644330.93046  22599500.2424   22599507.5534
       219.0004        167.0004
  20482577.8404   -1834446.34449  -1406346.49247  20482577.4674   20482583.5304
       241.0004        211.0004
  22720521.0324   -3348455.93149  -2571061.39646  22720520.7314   22720528.1284
       219.0004        166.0004
  21930073.7474   -2197538.56349  -1694075.66147  21930072.7974   21930077.3434
       235.0004        190.0004
  22534329.6484    2872487.04049   2236188.65446  22534328.8094   22534335.8634
       224.0004        173.0004
  21150109.6834     792556.15949    624542.62547  21150108.9944   21150116.0004
       240.0004        203.0004
  24485796.8464    3570777.87649   2773285.58444  24485796.2764   24485805.8384
       197.0004        128.0004
 07  2 17 20  5 15.0000000  0 12G 6G18G 5G16G30G29G 7G26G21G10G24G12
  20306914.9304   -1069900.02749   -819660.99347  20306914.5864   20306920.2864
       242.0004        209.0004
  22956403.8574   -3933346.09349  -3009825.43146  22956403.1334   22956409.1074
       226.0004        167.0004
  24453894.5594    3502912.99149   2726084.67445  24453894.4614   24453903.1424
       203.0004        135.0004
                  -1763233.89449  -1040948.72844                  24543560.8494
       205.0004         97.0004
  22654222.1374    2979011.36549   2318667.53846  22654221.8394   22654228.9344
       225.0004        175.0004
  22598253.4524   -2141286.21049  -1649438.13746  22598253.3454   22598259.9434
       218.0004        167.0004
  20481494.7394   -1840138.22349  -1410781.71947  20481494.4064   20481500.3204
       241.0004        211.0004
  22718127.3544   -3361034.84949  -2580863.13746  22718127.2184   22718133.6164
       218.0004        166.0004
  21928591.5924   -2205327.31249  -1700144.81047  21928590.8024   21928596.0814
       236.0004        190.0004
  22537287.5074    2888030.63149   2248300.54046  22537286.2914   22537292.8734
       224.0004        173.0004
  21151196.0434     798265.11349    628991.16147  21151195.4724   21151202.2764
       240.0004        203.0004
  24489200.5794    3588664.82548   2787223.42844  24489199.9704   24489208.8984
       194.0004        128.0004
 07  2 17 20  5 20.0000000  0 12G 6G18G 5G16G30G29G 7G26G21G10G24G12
  20306557.7744   -1071776.91349   -821123.50147  20306557.4434   20306563.2804
       242.0004        209.0004
  22953507.8364   -3948564.67349  -3021684.06146  22953507.3784   22953513.3334
       224.0004        167.0004
  24457222.3054    3520400.12349   2739710.99545  24457222.1574   24457230.0754
       205.0004        135.0004
                  -1775437.55549  -1050458.06044                  24541237.6714
       205.0004        113.0004
  22657228.2194    2994808.43249   2330976.92446  22657228.7274   22657234.0554
       226.0004        175.0004
  22597008.6424   -2147827.51949  -1654535.26846  22597008.6964   22597014.4774
       219.0004        167.0004
  20480413.4894   -1845820.11749  -1415209.16847  20480413.1454   20480419.2894
       241.0004        211.0004
  22715735.5944   -3373603.58749  -2590656.94946  22715735.2344   22715742.5504
       219.0004        166.0004
  21927110.0984   -2213112.53749  -1706211.22047  21927109.5584   21927113.9674
       235.0004        190.0004
  22540246.7174    2903581.35649   2260417.98646  22540245.3034   22540252.8584
       222.0004        173.0004
  21152283.0944     803977.58349    633442.43647  21152282.7294   21152289.5814
       240.0004        203.0004
  24492604.1214    3606550.69348   2801160.42844  24492603.6634   24492611.6794
       193.0004        128.0004
 07  2 17 20  5 25.0000000  0 12G 6G18G 5G16G30G29G 7G26G21G10G24G12
  20306202.8414   -1073642.12749   -822576.91447  20306202.3994   20306208.0044
       242.0004        209.0004
  22950613.2154   -3963776.08949  -3033537.09846  22950613.0614   22950618.1284
       225.0004        167.0004
  24460549.7594    3537885.83249   2753336.20845  24460549.2844   24460558.7494
       206.0004        136.0004
                  -1787630.57449  -1059959.10344                  24538916.9174
       207.0004        120.0004
  22660235.4124    3010611.33149   2343290.86946  22660234.8364   22660241.7464
       225.0004        175.0004
  22595766.3974   -2154355.63149  -1659622.09546  22595766.0874   22595772.9904
       220.0004        167.0004
  20479334.2414   -1851491.73449  -1419628.60847  20479333.6824   20479340.0684
       241.0004        211.0004
  22713345.8484   -3386161.90249  -2600442.64646  22713344.8994   22713352.5424
       218.0004        166.0004
  21925629.3564   -2220893.99249  -1712274.68647  21925628.4934   21925633.5914
       235.0004        190.0004
  22543207.3394    2919139.49349   2272541.20446  22543206.9834   22543213.3004
       224.0004        173.0004
  21153370.8374     809693.84149    637896.66747  21153370.3164   21153377.1534
       240.0004        203.0004
  24496007.5464    3624435.79749   2815096.84544  24496007.2674   24496015.5794
       197.0004        128.0004
 07  2 17 20  5 30.0000000  0 12G 6G18G 5G16G30G29G 7G26G21G10G24G12
  20305850.0624   -1075495.91349   -824021.42547  20305849.7534   20305855.4894
       242.0004        209.0004
  22947719.8874   -3978980.58649  -3045384.74146  22947718.2354   22947724.1304
       224.0004        167.0004
  24463876.9014    3555369.92049   2766960.15545  24463876.4714   24463886.0094
       205.0004        136.0004
                  -1799813.14549  -1069452.00544                  24536599.2774
       206.0004        124.0004
  22663243.6794    3026419.83249   2355609.16446  22663243.7034   22663249.5834
       226.0004        174.0004
  22594526.6074   -2160870.74849  -1664698.79946  22594525.4564   22594532.9204
       219.0004        167.0004
  20478256.8504   -1857153.37149  -1424040.27447  20478256.4384   20478262.4864
       241.0004        211.0004
  22710958.0314   -3398709.96549  -2610220.35046  22710958.5214   22710964.2484
       220.0004        166.0004
  21924149.2444   -2228671.86649  -1718335.36447  21924148.5984   21924153.2394
       235.0004        190.0004
  22546169.3434    2934704.81849   2284670.02546  22546167.9134   22546175.2784
       222.0004        173.0004
  21154459.2734     815413.66449    642353.66847  21154458.6834   21154465.4334
       240.0004        203.0004
  24499410.7524    3642319.82549   2829032.42844  24499410.4214   24499419.4314
       196.0004        128.0004
 07  2 17 20  5 35.0000000  0 12G 6G18G 5G16G30G29G 7G26G21G10G24G12
  20305499.4974   -1077338.18449   -825456.95747  20305499.1454   20305504.9124
       242.0004        209.0004
  22944827.8794   -3994178.11349  -3057226.97346  22944826.4674   22944832.1264
       224.0004        167.0004
  24467203.6944    3572852.33349   2780582.79645  24467203.8374   24467212.6434
       204.0004        135.0004
                  -1811985.27149  -1078936.76544                  24534283.6684
       207.0004        127.0004
  22666252.9974    3042233.92849   2367931.82746  22666253.2594   22666259.2944
       226.0004        174.0004
  22593289.2984   -2167372.76349  -1669765.32146  22593289.0214   22593295.4844
       219.0004        167.0004
  20477181.3934   -1862804.91949  -1428444.07547  20477181.0234   20477187.1844
       242.0004        211.0004
  22708572.2034   -3411247.68649  -2619989.99046  22708572.0534   22708579.2164
       218.0004        165.0004
  21922669.8684   -2236446.11149  -1724393.21147  21922669.1224   21922674.0604
       236.0004        190.0004
  22549132.6934    2950277.35649   2296804.46646  22549131.7214   22549138.4584
       223.0004        173.0004
  21155548.4184     821137.11549    646813.49947  21155547.9494   21155554.5904
       240.0004        203.0004
  24502813.8074    3660202.87848   2842967.24844  24502814.0554   24502822.2254
       194.0004        128.0004
 07  2 17 20  5 40.0000000  0 12G 6G18G 5G16G30G29G 7G26G21G10G24G12
  20305151.1554   -1079168.66949   -826883.31347  20305150.9374   20305156.5684
       242.0004        209.0004
  22941937.2474   -4009368.39749  -3069063.54146  22941936.7384   22941942.6564
       224.0004        167.0004
  24470530.2524    3590333.37749   2794204.36845  24470530.1254   24470538.7604
       205.0004        135.0004
  24531962.7184   -1824146.62749  -1088413.12744  24531962.1564   24531969.0384
       208.0004        129.0004
  22669263.4324    3058053.95849   2380259.11746  22669264.2254   22669269.4784
       225.0004        174.0004
  22592054.5304   -2173861.42249  -1674821.41846  22592054.0864   22592060.7824
       220.0004        168.0004
  20476107.9184   -1868446.07349  -1432839.78247  20476107.3164   20476113.6414
       242.0004        211.0004
  22706188.3734   -3423774.82749  -2629751.38846  22706188.5534   22706195.2954
       218.0004        166.0004
  21921191.1964   -2244216.46049  -1730448.02847  21921190.3964   21921195.0914
       236.0004        190.0004
  22552097.4934    2965857.37949   2308944.75146  22552096.5784   22552103.2034
       224.0004        173.0004
  21156638.3044     826864.49949    651276.39447  21156637.6944   21156644.6904
       240.0004        203.0004
  24506216.6904    3678085.15849   2856901.46944  24506215.9804   24506224.6674
       196.0004        128.0004
 07  2 17 20  5 45.0000000  0 12G 6G18G 5G16G30G29G 7G26G21G10G24G12
  20304805.0084   -1080987.70549   -828300.74347  20304804.6764   20304810.4344
       242.0004        209.0004
  22939047.9204   -4024551.78249  -3080894.73746  22939045.8394   22939052.9064
       223.0004        167.0004
  24473856.4774    3607812.72549   2807824.61845  24473856.2324   24473865.4464
       204.0004        136.0004
  24529650.5084   -1836297.54649  -1097881.36544  24529649.9774   24529656.6774
       208.0004        131.0004
  22672274.9644    3073879.50149   2392590.70046  22672275.3704   22672281.4094
       226.0004        174.0004
  22590822.2914   -2180337.06749  -1679867.36146  22590822.0894   22590828.9564
       221.0004        167.0004
  20475036.3314   -1874077.20949  -1437227.67747  20475035.8284   20475042.1084
       242.0004        211.0004
  22703806.4824   -3436291.74449  -2639504.82946  22703806.4624   22703813.7284
       219.0004        166.0004
  21919713.2214   -2251983.29649  -1736500.10747  21919712.5994   21919717.4104
       236.0004        190.0004
  22555063.6204    2981444.49249   2321090.54546  22555062.9054   22555069.3794
       225.0004        173.0004
  21157728.8444     832595.42149    655742.04647  21157728.3694   21157734.8264
       240.0004        203.0004
  24509619.3324    3695966.29548   2870834.79444  24509618.1744   24509627.3274
       194.0004        127.0004
 07  2 17 20  5 50.0000000  0 12G 6G18G 5G16G30G29G 7G26G21G10G24G12
  20304461.0654   -1082795.21149   -829709.19347  20304460.7844   20304466.7184
       242.0004        209.0004
  22936159.9354   -4039728.19149  -3092720.50846  22936159.4374   22936164.8204
       223.0004        167.0004
  24477182.3914    3625290.40449   2821443.56445  24477181.9204   24477190.9774
       206.0004        135.0004
  24527340.3204   -1848437.96749  -1107341.42045  24527339.6564   24527346.4894
       206.0004        132.0004
  22675287.4994    3089710.57149   2404926.59346  22675288.0154   22675294.0764
       224.0004        174.0004
  22589592.5304   -2186799.61449  -1684903.10746  22589592.3414   22589599.3164
       218.0004        167.0004
  20473966.6994   -1879698.26249  -1441607.72047  20473966.1384   20473972.5734
       242.0004        211.0004
  22701426.5384   -3448798.34349  -2649250.22046  22701425.8704   22701433.4554
       218.0004        166.0004
  21918235.9014   -2259746.55749  -1742549.39647  21918234.8624   21918239.9444
       236.0004        190.0004
  22558031.1244    2997038.74749   2333241.91546  22558030.0714   22558037.6934
       224.0004        172.0004
  21158820.1014     838329.94949    660210.51047  21158819.9444   21158826.3874
       240.0004        203.0004
  24513021.7854    3713846.32148   2884767.26144  24513020.8494   24513029.0154
       194.0004        128.0004
 07  2 17 20  5 55.0000000  0 12G 6G18G 5G16G30G29G 7G26G21G10G24G12
  20304119.2954   -1084591.13449   -831108.61247  20304119.1114   20304124.8534
       242.0004        209.0004
  22933273.3014   -4054897.50849  -3104540.73746  22933272.3464   22933277.8414
       223.0004        167.0004
  24480508.0074    3642766.49749   2835061.28345  24480507.3974   24480515.6974
       204.0004        136.0004
  24525032.1504   -1860567.76149  -1116793.19745  24525031.3144   24525038.0494
       207.0004        133.0004
  22678301.1554    3105547.28549   2417266.87846  22678301.3494   22678307.7174
       224.0004        174.0004
  22588365.2674   -2193248.95449  -1689928.56546  22588364.6614   22588371.8014
       219.0004        167.0004
  20472898.9624   -1885309.09949  -1445979.80047  20472898.3674   20472904.7814
       242.0004        211.0004
  22699048.6364   -3461294.40449  -2658987.39646  22699048.8454   22699054.9494
       219.0004        166.0004
  21916759.3154   -2267506.11049  -1748595.80047  21916758.9244   21916763.5134
       235.0004        190.0004
  22561000.0204    3012640.28049   2345398.94746  22560999.0954   22561005.9134
       223.0004        172.0004
  21159912.0384     844068.17149    664681.84947  21159911.7284   21159918.4684
       240.0004        203.0004
  24516424.0194    3731725.42348   2898699.00444  24516425.8324   24516431.8314
       193.0004        128.0004
 07  2 17 20  6  0.0000000  0 12G 6G18G 5G16G30G29G 7G26G21G10G24G12
  20303779.7854   -1086375.32749   -832498.88947  20303779.4764   20303785.2524
       242.0004        209.0004
  22930388.0404   -4070059.54449  -3116355.30546  22930387.4434   22930393.3404
       224.0004        167.0004
  24483833.3374    3660241.15249   2848677.87645  24483832.6954   24483841.9714
       204.0004        135.0004
  24522725.9844   -1872686.79649  -1126236.59945  24522725.1614   24522732.7504
       206.0004        134.0004
  22681315.8804    3121389.74449   2429611.64146  22681316.3314   22681322.6094
       226.0004        174.0004
  22587140.5104   -2199684.96649  -1694943.64946  22587140.4284   22587146.8634
       219.0004        167.0004
  20471833.2414   -1890909.58049  -1450343.81147  20471832.7854   20471838.9644
       242.0004        210.0004
  22696672.6984   -3473779.97849  -2668716.40946  22696672.4214   22696680.4944
       219.0004        166.0004
  21915283.4504   -2275261.83649  -1754639.21947  21915283.1954   21915287.4374
       236.0004        190.0004
  22563970.2764    3028249.15749   2357561.69946  22563969.4994   22563976.4324
       224.0004        172.0004
  21161004.7364     849810.21849    669156.16847  21161004.4414   21161010.9424
       240.0004        203.0004
  24519826.1184    3749603.66249   2912630.07244  24519827.8764   24519834.1834
       197.0004        128.0004
 07  2 17 20  6  5.0000000  0 12G 6G18G 5G16G30G29G 7G26G21G10G24G12
  20303442.4644   -1088147.98049   -833880.18147  20303442.2394   20303448.0334
       242.0004        209.0004
  22927504.1204   -4085214.54249  -3128164.39246  22927503.5904   22927509.0304
       224.0004        167.0004
  24487158.3324    3677714.08949   2862293.13545  24487158.6534   24487165.7104
       205.0004        136.0004
  24520421.8354   -1884795.32649  -1135671.81945  24520421.4954   24520429.2324
       207.0004        134.0004
  22684331.6424    3137237.72349   2441960.70846  22684332.3934   22684337.6824
       225.0004        174.0004
  22585918.2434   -2206107.81549  -1699948.46246  22585918.5044   22585924.5394
       221.0004        167.0004
  20470769.4394   -1896499.88749  -1454699.89347  20470768.6724   20470775.2494
       242.0004        210.0004
  22694298.7774   -3486255.08149  -2678437.25846  22694297.7654   22694305.7014
       217.0004        166.0004
  21913808.2794   -2283013.92649  -1760679.80747  21913807.8274   21913812.8374
       237.0004        190.0004
  22566941.9184    3043865.21249   2369730.05546  22566940.4124   22566947.3614
       224.0004        172.0004
  21162098.1124     855555.89849    673633.32047  21162097.9944   21162104.2034
       240.0004        203.0004
  24523228.0004    3767480.84748   2926560.31744  24523227.3434   24523239.0174
       192.0004        127.0004
 07  2 17 20  6 10.0000000  0 12G 6G18G 5G16G30G29G 7G26G21G10G24G12
  20303107.3594   -1089909.07649   -835252.45947  20303107.1014   20303112.9834
       242.0004        209.0004
  22924621.5284   -4100362.52149  -3139967.99846  22924620.3664   22924626.4664
       224.0004        168.0004
  24490483.0174    3695185.35749   2875907.09845  24490483.2914   24490490.8654
       205.0004        136.0004
  24518119.7184   -1896893.25449  -1145098.76645  24518119.2094   24518126.5364
       208.0004        134.0004
  22687348.4544    3153091.18249   2454314.03946  22687349.0554   22687355.2764
       226.0004        174.0004
  22584698.5314   -2212517.49449  -1704943.01046  22584698.3194   22584705.1644
       219.0004        167.0004
  20469707.5734   -1902080.05849  -1459048.07347  20469706.9274   20469713.4374
       242.0004        211.0004
  22691926.8304   -3498719.70149  -2688149.93646  22691926.8564   22691933.9254
       218.0004        166.0004
  21912333.7904   -2290762.41549  -1766717.58347  21912333.3274   21912337.7534
       236.0004        190.0004
  22569914.9034    3059488.40049   2381903.97746  22569913.8444   22569920.3914
       223.0004        172.0004
  21163192.1714     861305.19149    678113.29147  21163192.0274   21163198.1074
       240.0004        203.0004
  24526629.6764    3785356.98448   2940489.74144  24526629.4784   24526637.6534
       193.0004        128.0004
 07  2 17 20  6 15.0000000  0 12G 6G18G 5G16G30G29G 7G26G21G10G24G12
  20302774.4734   -1091658.41949   -836615.58547  20302774.2424   20302779.9174
       242.0004        209.0004
  22921740.3144   -4115503.28349  -3151765.98146  22921738.7604   22921745.0294
       223.0004        168.0004
  24493807.4184    3712655.04449   2889519.81745  24493807.1804   24493816.0144
       206.0004        136.0004
  24515819.6344   -1908980.50049  -1154517.39445  24515819.7114   24515825.5174
       206.0004        134.0004
  22690366.3694    3168950.28249   2466671.76546  22690366.4964   22690372.5544
       226.0004        174.0004
  22583481.3714   -2218913.83949  -1709927.18346  22583481.1314   22583487.5014
       218.0004        168.0004
  20468647.6594   -1907649.87549  -1463388.19247  20468646.9514   20468653.4694
       242.0004        211.0004
  22689556.9194   -3511173.72749  -2697854.37146  22689556.9074   22689564.1564
       218.0004        166.0004
  21910860.0414   -2298507.16949  -1772752.45547  21910859.5784   21910864.0934
       236.0004        190.0004
  22572889.2714    3075118.84649   2394083.53746  22572888.8344   22572895.2064
       224.0004        172.0004
  21164286.9504     867058.25249    682596.19347  21164286.6294   21164293.2114
       240.0004        203.0004
  24530031.1854    3803232.21648   2954418.45844  24530030.7434   24530040.8764
       193.0004        127.0004
 07  2 17 20  6 20.0000000  0 12G 6G18G 5G16G30G29G 7G26G21G10G24G12
  20302443.7584   -1093396.27049   -837969.75647  20302443.6314   20302449.1424
       242.0004        209.0004
  22918860.4564   -4130636.99849  -3163558.47446  22918859.2844   22918865.5054
       223.0004        168.0004
  24497131.4604    3730123.02149   2903131.21245  24497130.8294   24497140.1314
       206.0004        136.0004
  24513521.5584   -1921057.16749  -1163927.77945  24513520.5134   24513527.0784
       208.0004        134.0004
  22693385.3034    3184814.87849   2479033.78846  22693385.2264   22693392.2004
       226.0004        174.0004
  22582266.6584   -2225296.99849  -1714901.08746  22582266.7924   22582273.0924
       221.0004        168.0004
  20467589.7044   -1913209.55449  -1467720.40647  20467589.1634   20467595.5554
       242.0004        211.0004
  22687188.9614   -3523617.32849  -2707550.66946  22687188.0374   22687195.7654
       218.0004        166.0004
  21909386.9654   -2306248.33249  -1778784.52847  21909386.2774   21909390.8204
       236.0004        190.0004
  22575865.0154    3090756.37349   2406268.61746  22575862.9254   22575870.6494
       223.0004        172.0004
  21165382.4194     872814.90049    687081.89347  21165382.1914   21165388.5974
       240.0004        203.0004
  24533432.4494    3821106.25048   2968346.23944  24533433.2984   24533442.1534
       193.0004        127.0004
